[[{"header":{"parameterUnit":"m.s-1","parameterCategory":1,"la1":31.0,"la2":29.5877,"lo1":-88.7671,"lo2":-86.6584,"dy":0.0162,"dx":0.0185,"nx":115,"ny":88,"refTime":"2026-05-02T00:00:00:Z","depth":0,"parameterNumber":2,"parameterNumberName":"U-component_of_WINDS"},"data":[0.0,0.0,0.0,0.0,0.0,0.0,0.0,0.0,0.0,0.0,0.0,0.0,0.0,0.0,0.0,0.0,0.0,0.0,0.0,0.0,0.0,0.0,0.0,0.0,0.0,0.0,0.0,0.0,0.0,0.0,0.0,0.0,0.0,0.0,0.0,0.0,0.0,0.0,0.0,0.0,0.0,0.0,0.0,0.0,0.0,0.0,0.0,0.0,0.0,0.0,0.0,0.0,0.0,0.0,0.0,0.0,0.0,0.0,0.0,0.0,0.0,0.0,0.0,0.0,0.0,0.0,0.0,0.0,0.0,0.0,0.0,0.0,0.0,0.0,0.0,0.0,0.0,0.0,0.0,0.0,0.0,0.0,0.0,0.0,0.0,0.0,0.0,0.0,0.0,0.0,0.0,0.0,0.0,0.0,0.0,0.0,0.0,0.0,0.0,0.0,0.0,0.0,0.0,0.0,0.0,0.0,0.0,0.0,0.0,0.0,0.0,0.0,0.0,0.0,0.0,0.0,0.0,0.0,0.0,0.0,0.0,0.0,0.0,0.0,0.0,0.0,0.0,0.0,0.0,0.0,0.0,0.0,0.0,0.0,0.0,0.0,0.0,0.0,0.0,0.0,0.0,0.0,0.0,0.0,0.0,0.0,0.0,0.0,0.0,0.0,0.0,0.0,0.0,0.0,0.0,0.0,0.0,0.0,0.0,0.0,0.0,0.0,0.0,0.0,0.0,0.0,0.0,0.0,0.0,0.0,0.0,0.0,0.0,0.0,0.0,0.0,0.0,0.0,0.0,0.0,0.0,0.0,0.0,0.0,0.0,0.0,0.0,0.0,0.0,0.0,0.0,0.0,0.0,0.0,0.0,0.0,0.0,0.0,0.0,0.0,0.0,0.0,0.0,0.0,0.0,0.0,0.0,0.0,0.0,0.0,0.0,0.0,0.0,0.0,0.0,0.0,0.0,0.0,0.0,0.0,0.0,0.0,0.0,0.0,0.0,0.0,0.0,0.0,0.0,0.0,0.0,0.0,0.0,0.0,0.0,0.0,0.0,0.0,0.0,0.0,0.0,0.0,0.0,0.0,0.0,0.0,0.0,0.0,0.0,0.0,0.0,0.0,0.0,0.0,0.0,0.0,0.0,0.0,0.0,0.0,0.0,0.0,0.0,0.0,0.0,0.0,0.0,0.0,0.0,0.0,0.0,0.0,0.0,0.0,0.0,0.0,0.0,0.0,0.0,0.0,0.0,0.0,0.0,0.0,0.0,0.0,0.0,0.0,0.0,0.0,0.0,0.0,0.0,0.0,0.0,0.0,0.0,0.0,0.0,0.0,0.0,0.0,0.0,0.0,0.0,0.0,0.0,0.0,0.0,0.0,0.0,0.0,0.0,0.0,0.0,0.0,0.0,0.0,0.0,0.0,0.0,0.0,0.0,0.0,0.0,0.0,0.0,0.0,0.0,0.0,0.0,0.0,0.0,0.0,0.0,0.0,0.0,0.0,0.0,0.0,0.0,0.0,0.0,0.0,0.0,0.0,0.0,0.0,0.0,0.0,0.0,0.0,0.0,0.0,0.0,0.0,0.0,0.0,0.0,0.0,0.0,0.0,0.0,0.0,0.0,0.0,0.0,0.0,0.0,0.0,0.0,0.0,0.0,0.0,0.0,0.0,0.0,0.0,0.0,0.0,0.0,0.0,0.0,0.0,0.0,0.0,0.0,0.0,0.0,0.0,0.0,0.0,0.0,0.0,0.0,0.0,0.0,0.0,0.0,0.0,0.0,0.0,0.0,0.0,0.0,0.0,0.0,0.0,0.0,0.0,0.0,0.0,0.0,0.0,0.0,0.0,0.0,0.0,0.0,0.0,0.0,0.0,0.0,0.0,0.0,0.0,0.0,0.0,0.0,0.0,0.0,0.0,0.0,0.0,0.0,0.0,0.0,0.0,0.0,0.0,0.0,0.0,0.0,0.0,0.0,0.0,0.0,0.0,0.0,0.0,0.0,0.0,0.0,0.0,0.0,0.0,0.0,0.0,0.0,0.0,0.0,0.0,0.0,0.0,0.0,0.0,0.0,0.0,0.0,0.0,0.0,0.0,0.0,0.0,0.0,0.0,0.0,0.0,0.0,0.0,0.0,0.0,0.0,0.0,0.0,0.0,0.0,0.0,0.0,0.0,0.0,0.0,0.0,0.0,0.0,0.0,0.0,0.0,0.0,0.0,0.0,0.0,0.0,0.0,0.0,0.0,0.0,0.0,0.0,0.0,0.0,0.0,0.0,0.0,0.0,0.0,0.0,0.0,0.0,0.0,0.0,0.0,0.0,0.0,0.0,0.0,0.0,0.0,0.0,0.0,0.0,0.0,0.0,0.0,0.0,0.0,0.0,0.0,0.0,0.0,0.0,0.0,0.0,0.0,0.0,0.0,0.0,0.0,0.0,0.0,0.0,0.0,0.0,0.0,0.0,0.0,0.0,0.0,0.0,0.0,0.0,0.0,0.0,0.0,0.0,0.0,0.0,0.0,0.0,0.0,0.0,0.0,0.0,0.0,0.0,0.0,0.0,0.0,0.0,0.0,0.0,0.0,0.0,0.0,0.0,0.0,0.0,0.0,0.0,0.0,0.0,0.0,0.0,0.0,0.0,0.0,0.0,0.0,0.0,0.0,0.0,0.0,0.0,0.0,0.0,0.0,0.0,0.0,0.0,0.0,0.0,0.0,0.0,0.0,0.0,0.0,0.0,0.0,0.0,0.0,0.0,0.0,0.0,0.0,0.0,0.0,0.0,0.0,0.0,0.0,0.0,0.0,0.0,0.0,0.0,0.0,0.0,0.0,0.0,0.0,0.0,0.0,0.0,0.0,0.0,0.0,0.0,0.0,0.0,0.0,0.0,0.0,0.0,0.0,0.0,0.0,0.0,0.0,0.0,0.0,0.0,0.0,0.0,0.0,0.0,0.0,0.0,0.0,0.0,0.0,0.0,0.0,0.0,0.0,0.0,0.0,0.0,0.0,0.0,0.0,0.0,0.0,0.0,0.0,0.0,0.0,0.0,0.0,0.0,0.0,0.0,0.0,0.0,0.0,0.0,0.0,0.0,0.0,0.0,0.0,0.0,0.0,0.0,0.0,0.0,0.0,0.0,0.0,0.0,0.0,0.0,0.0,0.0,0.0,0.0,0.0,0.0,0.0,0.0,0.0,0.0,0.0,0.0,0.0,0.0,0.0,0.0,0.0,0.0,0.0,0.0,0.0,0.0,0.0,0.0,0.0,0.0,0.0,0.0,0.0,0.0,0.0,0.0,0.0,0.0,0.0,0.0,0.0,0.0,0.0,0.0,0.0,0.0,0.0,0.0,0.0,0.0,0.0,0.0,0.0,0.0,0.0,0.0,0.0,0.0,0.0,0.0,0.0,0.0,0.0,0.0,0.0,0.0,0.0,0.0,0.0,0.0,0.0,0.0,0.0,0.0,0.0,0.0,0.0,0.0,0.0,0.0,0.0,0.0,0.0,0.0,0.0,0.0,0.0,0.0,0.0,0.0,0.0,0.0,0.0,0.0,0.0,0.0,0.0,0.0,0.0,0.0,0.0,0.0,0.0,0.0,0.0,0.0,0.0,0.0,0.0,0.0,0.0,0.0,0.0,0.0,0.0,0.0,0.0,0.0,0.0,0.0,0.0,0.0,0.0,0.0,0.0,0.0,0.0,0.0,0.0,0.0,0.0,0.0,0.0,0.0,0.0,0.0,0.0,0.0,0.0,0.0,0.0,0.0,0.0,0.0,0.0,0.0,0.0,0.0,0.0,0.0,0.0,0.0,0.0,0.0,0.0,0.0,0.0,0.0,0.0,0.0,0.0,0.0,0.0,0.0,0.0,0.0,0.0,0.0,0.0,0.0,0.0,0.0,0.0,0.0,0.0,0.0,0.0,0.0,0.0,0.0,0.0,0.0,0.0,0.0,0.0,0.0,0.0,0.0,0.0,0.0,0.0,0.0,0.0,0.0,0.0,0.0,0.0,0.0,0.0,0.0,0.0,0.0,0.0,0.0,0.0,0.0,0.0,0.0,0.0,0.0,0.0,0.0,0.0,0.0,0.0,0.0,0.0,0.0,0.0,0.0,0.0,0.0,0.0,0.0,0.0,0.0,0.0,0.0,0.0,0.0,0.0,0.0,0.0,0.0,0.0,0.0,0.0,0.0,0.0,0.0,0.0,0.0,0.0,0.0,0.0,0.0,0.0,0.0,0.0,0.0,0.0,0.0,0.0,0.0,0.0,0.0,0.0,0.0,0.0,1.5041,0.0,0.0,0.0,0.0,0.0,0.0,0.0,0.0,0.0,0.0,0.0,0.0,0.0,0.0,0.0,0.0,0.0,0.0,0.0,0.0,0.0,0.0,0.0,0.0,0.0,0.0,0.0,0.0,0.0,0.0,0.0,0.0,0.0,0.0,0.0,0.0,0.0,0.0,0.0,0.0,0.0,0.0,0.0,0.0,0.0,0.0,0.0,0.0,0.0,0.0,0.0,0.0,0.0,0.0,0.0,0.0,0.0,0.0,0.0,0.0,0.0,0.0,0.0,0.0,0.0,0.0,0.0,0.0,0.0,0.0,0.0,0.0,0.0,0.0,0.0,0.0,0.0,0.0,0.0,0.0,0.0,0.0,0.0,0.0,0.0,0.0,0.0,0.0,0.0,0.0,0.0,0.0,0.0,0.0,0.0,0.0,0.0,0.0,0.0,0.0,0.0,0.0,0.0,0.0,0.0,0.0,0.0,0.0,0.0,0.0,1.5305,1.5302,1.527,1.5272,1.5234,0.0,0.0,0.0,0.0,0.0,0.0,0.0,0.0,0.0,0.0,0.0,0.0,0.0,0.0,0.0,0.0,0.0,0.0,0.0,0.0,0.0,0.0,0.0,0.0,0.0,0.0,0.0,0.0,0.0,0.0,0.0,0.0,0.0,0.0,0.0,0.0,0.0,0.0,0.0,0.0,0.0,0.0,0.0,0.0,0.0,0.0,0.0,0.0,0.0,0.0,0.0,0.0,0.0,0.0,0.0,0.0,0.0,0.0,0.0,0.0,0.0,0.0,0.0,0.0,0.0,0.0,0.0,0.0,0.0,0.0,0.0,0.0,0.0,0.0,0.0,0.0,0.0,0.0,0.0,0.0,0.0,0.0,0.0,0.0,0.0,0.0,0.0,0.0,0.0,0.0,0.0,0.0,0.0,0.0,0.0,0.0,0.0,0.0,0.0,0.0,0.0,0.0,0.0,0.0,0.0,0.0,0.0,0.0,0.0,0.0,0.0,0.0,1.5896,1.5831,1.5843,0.0,0.0,0.0,0.0,0.0,0.0,0.0,0.0,0.0,0.0,0.0,0.0,0.0,0.0,0.0,0.0,0.0,0.0,0.0,0.0,0.0,0.0,0.0,0.0,0.0,0.0,0.0,0.0,0.0,0.0,0.0,0.0,0.0,0.0,0.0,0.0,0.0,0.0,0.0,0.0,0.0,0.0,0.0,0.0,0.0,0.0,0.0,0.0,0.0,0.0,0.0,0.0,0.0,0.0,0.0,0.0,0.0,0.0,0.0,0.0,0.0,0.0,0.0,0.0,0.0,0.0,0.0,0.0,0.0,0.0,0.0,0.0,0.0,0.0,0.0,0.0,0.0,0.0,0.0,0.0,0.0,0.0,0.0,0.0,0.0,0.0,0.0,0.0,0.0,0.0,0.0,0.0,0.0,0.0,0.0,0.0,0.0,0.0,0.0,0.0,0.0,0.0,0.0,0.0,0.0,0.0,0.0,0.0,0.0,0.0,1.6053,1.7591,1.7593,0.0,1.7644,0.0,0.0,0.0,0.0,0.0,0.0,0.0,0.0,0.0,0.0,0.0,0.0,0.0,0.0,0.0,0.0,0.0,0.0,0.0,0.0,0.0,0.0,0.0,0.0,0.0,0.0,0.0,0.0,0.0,0.0,0.0,0.0,0.0,0.0,0.0,0.0,0.0,0.0,0.0,0.0,0.0,0.0,0.0,0.0,0.0,0.0,0.0,0.0,0.0,0.0,0.0,0.0,0.0,0.0,0.0,0.0,0.0,0.0,0.0,0.0,0.0,0.0,0.0,0.0,0.0,0.0,0.0,0.0,0.0,0.0,0.0,0.0,0.0,0.0,0.0,0.0,0.0,0.0,0.0,0.0,0.0,0.0,0.0,0.0,0.0,0.0,0.0,0.0,0.0,0.0,0.0,0.0,0.0,0.0,0.0,0.0,0.0,0.0,0.0,0.0,0.0,0.0,0.0,0.0,0.0,0.0,0.0,0.0,0.0,0.0,0.0,1.7843,1.7843,1.7792,0.0,0.0,0.0,0.0,0.0,0.0,0.0,0.0,0.0,0.0,0.0,0.0,0.0,0.0,0.0,0.0,0.0,0.0,0.0,0.0,0.0,0.0,0.0,0.0,0.0,0.0,0.0,0.0,0.0,0.0,0.0,0.0,0.0,0.0,0.0,0.0,0.0,0.0,0.0,0.0,0.0,0.0,0.0,0.0,0.0,0.0,0.0,0.0,0.0,0.0,0.0,0.0,0.0,0.0,0.0,0.0,0.0,0.0,0.0,0.0,0.0,0.0,0.0,0.0,0.0,0.0,0.0,0.0,0.0,0.0,0.0,0.0,0.0,0.0,0.0,0.0,0.0,0.0,0.0,0.0,0.0,0.0,0.0,0.0,0.0,0.0,0.0,0.0,0.0,0.0,0.0,0.0,0.0,0.0,0.0,0.0,0.0,0.0,0.0,0.0,0.0,0.0,0.0,0.0,0.0,0.0,0.0,0.0,0.0,0.0,1.7486,0.0,1.8473,1.8531,1.8297,1.7797,0.0,0.0,0.0,0.0,0.0,0.0,0.0,0.0,0.0,0.0,0.0,0.0,0.0,0.0,0.0,0.0,0.0,0.0,0.0,0.0,0.0,0.0,0.0,0.0,0.0,0.0,0.0,0.0,0.0,0.0,0.0,0.0,0.0,0.0,0.0,0.0,0.0,0.0,0.0,0.0,0.0,0.0,0.0,0.0,0.0,0.0,0.0,0.0,0.0,0.0,0.0,0.0,0.0,0.0,0.0,0.0,0.0,0.0,0.0,0.0,0.0,0.0,0.0,0.0,0.0,0.0,0.0,0.0,0.0,0.0,0.0,0.0,0.0,0.0,0.0,0.0,0.0,0.0,0.0,0.0,0.0,0.0,0.0,0.0,0.0,0.0,0.0,0.0,0.0,0.0,0.0,0.0,0.0,0.0,0.0,0.0,0.0,0.0,0.0,0.0,0.0,0.0,0.0,0.0,0.0,0.0,0.0,0.0,0.0,1.8629,1.867,2.0227,2.0273,1.9509,0.0,0.0,0.0,0.0,0.0,0.0,0.0,0.0,0.0,0.0,0.0,0.0,0.0,0.0,0.0,0.0,0.0,0.0,0.0,0.0,0.0,0.0,0.0,0.0,0.0,0.0,0.0,0.0,0.0,0.0,0.0,0.0,0.0,0.0,0.0,0.0,0.0,0.0,0.0,0.0,0.0,0.0,0.0,0.0,0.0,0.0,0.0,0.0,0.0,0.0,0.0,0.0,0.0,0.0,0.0,0.0,0.0,0.0,0.0,0.0,0.0,0.0,0.0,0.0,0.0,0.0,0.0,0.0,0.0,0.0,0.0,0.0,0.0,0.0,0.0,0.0,0.0,0.0,0.0,0.0,0.0,0.0,0.0,0.0,0.0,0.0,0.0,0.0,0.0,0.0,0.0,0.0,0.0,0.0,0.0,0.0,0.0,0.0,0.0,0.0,0.0,0.0,0.0,0.0,0.0,0.0,0.0,0.0,0.0,1.7014,1.7613,1.9239,2.1837,1.9911,1.8955,0.0,0.0,0.0,0.0,0.0,0.0,0.0,0.0,0.0,0.0,0.0,0.0,0.0,0.0,0.0,0.0,0.0,0.0,0.0,0.0,0.0,0.0,0.0,0.0,0.0,0.0,0.0,0.0,0.0,0.0,0.0,0.0,0.0,0.0,0.0,0.0,0.0,0.0,0.0,0.0,0.0,0.0,0.0,0.0,0.0,0.0,0.0,0.0,0.0,0.0,0.0,0.0,0.0,0.0,0.0,0.0,0.0,0.0,0.0,0.0,0.0,0.0,0.0,0.0,0.0,0.0,0.0,0.0,0.0,0.0,0.0,0.0,0.0,0.0,0.0,0.0,0.0,0.0,0.0,0.0,0.0,0.0,0.0,0.0,0.0,0.0,0.0,0.0,0.0,0.0,0.0,0.0,0.0,0.0,0.0,0.0,0.0,0.0,0.0,0.0,0.0,0.0,0.0,0.0,0.0,0.0,0.0,0.0,0.0,1.6963,0.0,2.0536,0.0,2.0034,1.8801,0.0,0.0,0.0,0.0,0.0,0.0,0.0,0.0,0.0,0.0,0.0,0.0,0.0,0.0,0.0,0.0,0.0,0.0,0.0,0.0,0.0,0.0,0.0,0.0,0.0,0.0,0.0,0.0,0.0,0.0,0.0,0.0,0.0,0.0,0.0,0.0,0.0,0.0,0.0,0.0,0.0,0.0,0.0,0.0,0.0,0.0,0.0,0.0,0.0,0.0,0.0,0.0,0.0,0.0,0.0,0.0,0.0,0.0,0.0,0.0,0.0,0.0,0.0,0.0,0.0,0.0,0.0,0.0,0.0,0.0,0.0,0.0,0.0,0.0,0.0,0.0,0.0,0.0,0.0,0.0,0.0,0.0,0.0,0.0,0.0,0.0,0.0,0.0,0.0,0.0,0.0,0.0,0.0,0.0,0.0,0.0,0.0,0.0,0.0,0.0,0.0,0.0,0.0,0.0,0.0,0.0,0.0,0.0,0.0,2.0272,2.2008,2.2474,2.1753,2.0785,1.9162,0.0,0.0,0.0,0.0,0.0,0.0,0.0,0.0,0.0,0.0,0.0,0.0,0.0,0.0,0.0,0.0,0.0,0.0,0.0,0.0,0.0,0.0,0.0,0.0,0.0,0.0,0.0,0.0,0.0,0.0,0.0,0.0,0.0,0.0,0.0,0.0,0.0,0.0,0.0,0.0,0.0,0.0,0.0,0.0,0.0,0.0,0.0,0.0,0.0,0.0,0.0,0.0,0.0,0.0,0.0,0.0,0.0,0.0,0.0,0.0,0.0,0.0,0.0,0.0,0.0,0.0,0.0,0.0,0.0,0.0,0.0,0.0,0.0,0.0,0.0,0.0,0.0,0.0,0.0,0.0,0.0,0.0,0.0,0.0,0.0,0.0,0.0,0.0,0.0,0.0,0.0,0.0,0.0,0.0,0.0,0.0,0.0,0.0,0.0,0.0,0.0,0.0,0.0,0.0,0.0,0.0,0.0,0.0,0.0,1.9645,2.1269,2.2568,2.3309,2.085,1.9935,0.0,0.0,0.0,0.0,0.0,0.0,0.0,0.0,0.0,0.0,0.0,0.0,0.0,0.0,0.0,0.0,0.0,0.0,0.0,0.0,0.0,0.0,0.0,0.0,0.0,0.0,0.0,0.0,0.0,0.0,0.0,0.0,0.0,0.0,0.0,0.0,0.0,0.0,0.0,0.0,0.0,0.0,0.0,0.0,0.0,0.0,0.0,0.0,0.0,0.0,0.0,0.0,0.0,0.0,0.0,0.0,0.0,0.0,0.0,0.0,0.0,0.0,0.0,0.0,0.0,0.0,0.0,0.0,0.0,0.0,0.0,0.0,0.0,0.0,0.0,0.0,0.0,0.0,0.0,0.0,0.0,0.0,0.0,0.0,0.0,0.0,0.0,0.0,0.0,0.0,0.0,0.0,0.0,0.0,0.0,0.0,0.0,0.0,0.0,0.0,0.0,0.0,0.0,0.0,0.0,0.0,0.0,0.0,0.0,2.2611,2.3591,2.4494,2.5137,2.243,2.1235,2.1853,0.0,0.0,0.0,0.0,0.0,0.0,0.0,0.0,0.0,0.0,0.0,0.0,0.0,0.0,0.0,0.0,0.0,0.0,0.0,0.0,0.0,0.0,0.0,0.0,0.0,0.0,0.0,0.0,0.0,0.0,0.0,0.0,0.0,0.0,0.0,0.0,0.0,0.0,0.0,0.0,0.0,0.0,0.0,0.0,0.0,0.0,0.0,0.0,0.0,0.0,0.0,0.0,0.0,0.0,0.0,0.0,0.0,0.0,0.0,0.0,0.0,0.0,0.0,0.0,0.0,0.0,0.0,0.0,0.0,0.0,0.0,0.0,0.0,0.0,0.0,0.0,0.0,0.0,0.0,0.0,0.0,0.0,0.0,0.0,0.0,0.0,0.0,0.0,0.0,0.0,0.0,0.0,0.0,0.0,0.0,0.0,0.0,0.0,0.0,0.0,0.0,0.0,0.0,0.0,0.0,0.0,0.0,0.0,2.8368,2.8494,2.8085,2.7123,2.5216,2.3129,0.0,0.0,0.0,0.0,0.0,0.0,0.0,0.0,0.0,0.0,0.0,0.0,0.0,0.0,0.0,0.0,0.0,0.0,0.0,0.0,0.0,0.0,0.0,0.0,0.0,0.0,0.0,0.0,0.0,0.0,0.0,0.0,0.0,0.0,0.0,0.0,0.0,0.0,0.0,0.0,0.0,0.0,0.0,0.0,0.0,0.0,0.0,0.0,0.0,0.0,0.0,0.0,0.0,0.0,0.0,0.0,0.0,0.0,0.0,0.0,0.0,0.0,0.0,0.0,0.0,0.0,0.0,0.0,0.0,0.0,0.0,0.0,0.0,0.0,0.0,0.0,0.0,0.0,0.0,0.0,0.0,0.0,0.0,0.0,0.0,0.0,0.0,0.0,0.0,0.0,0.0,0.0,0.0,0.0,0.0,0.0,0.0,0.0,0.0,0.0,0.0,0.0,0.0,0.0,0.0,0.0,0.0,0.0,0.0,3.1864,3.3114,3.2693,3.059,2.7554,2.562,0.0,0.0,0.0,0.0,0.0,0.0,0.0,0.0,0.0,0.0,0.0,0.0,0.0,0.0,0.0,0.0,0.0,0.0,0.0,0.0,0.0,0.0,0.0,0.0,0.0,0.0,0.0,0.0,0.0,0.0,0.0,0.0,0.0,0.0,0.0,0.0,0.0,0.0,0.0,0.0,0.0,0.0,0.0,0.0,0.0,0.0,0.0,0.0,0.0,0.0,0.0,0.0,0.0,0.0,0.0,0.0,0.0,0.0,0.0,0.0,0.0,0.0,0.0,0.0,0.0,0.0,0.0,0.0,0.0,0.0,0.0,0.0,0.0,0.0,0.0,0.0,0.0,0.0,0.0,0.0,0.0,0.0,0.0,0.0,0.0,0.0,0.0,0.0,0.0,0.0,0.0,0.0,0.0,0.0,0.0,0.0,0.0,0.0,0.0,0.0,0.0,0.0,0.0,0.0,0.0,0.0,0.0,0.0,3.1209,3.3765,3.5744,3.6067,3.4584,3.1021,2.831,0.0,0.0,0.0,0.0,0.0,0.0,0.0,0.0,0.0,0.0,0.0,0.0,0.0,0.0,0.0,0.0,0.0,0.0,0.0,0.0,0.0,0.0,0.0,0.0,0.0,0.0,0.0,0.0,0.0,0.0,0.0,0.0,0.0,0.0,0.0,0.0,0.0,0.0,0.0,0.0,0.0,0.0,0.0,0.0,0.0,0.0,0.0,0.0,0.0,0.0,0.0,0.0,0.0,0.0,0.0,0.0,0.0,0.0,0.0,0.0,0.0,0.0,0.0,0.0,0.0,0.0,0.0,0.0,0.0,0.0,0.0,0.0,0.0,0.0,0.0,0.0,0.0,0.0,0.0,0.0,0.0,0.0,0.0,0.0,0.0,0.0,0.0,0.0,0.0,0.0,0.0,0.0,0.0,0.0,0.0,0.0,0.0,0.0,0.0,0.0,0.0,0.0,0.0,0.0,0.0,0.0,0.0,0.0,3.2342,3.487,3.7279,3.8528,3.8344,3.4619,3.0786,0.0,0.0,0.0,0.0,0.0,0.0,0.0,0.0,0.0,0.0,0.0,0.0,0.0,0.0,0.0,0.0,0.0,0.0,0.0,0.0,0.0,0.0,0.0,0.0,0.0,0.0,0.0,0.0,0.0,0.0,0.0,0.0,0.0,0.0,0.0,0.0,0.0,0.0,0.0,0.0,0.0,0.0,0.0,0.0,0.0,0.0,0.0,0.0,0.0,0.0,0.0,0.0,0.0,0.0,0.0,0.0,0.0,0.0,0.0,0.0,0.0,0.0,0.0,0.0,0.0,0.0,0.0,0.0,0.0,0.0,0.0,0.0,0.0,0.0,0.0,0.0,0.0,0.0,0.0,0.0,0.0,0.0,0.0,0.0,0.0,0.0,0.0,0.0,0.0,0.0,0.0,0.0,0.0,0.0,0.0,0.0,0.0,0.0,0.0,0.0,0.0,0.0,0.0,0.0,0.0,0.0,0.0,0.0,3.4943,3.7536,3.9287,4.0174,4.0138,3.5402,3.1815,0.0,0.0,0.0,0.0,0.0,0.0,0.0,0.0,0.0,0.0,0.0,0.0,0.0,0.0,0.0,0.0,0.0,0.0,0.0,0.0,0.0,0.0,0.0,0.0,0.0,0.0,0.0,0.0,0.0,0.0,0.0,0.0,0.0,0.0,0.0,0.0,0.0,0.0,0.0,0.0,0.0,0.0,0.0,0.0,0.0,0.0,0.0,0.0,2.2453,0.0,0.0,0.0,0.0,0.0,0.0,0.0,0.0,0.0,0.0,0.0,0.0,0.0,0.0,0.0,0.0,0.0,0.0,0.0,0.0,0.0,0.0,0.0,0.0,0.0,0.0,0.0,0.0,0.0,0.0,0.0,0.0,0.0,0.0,0.0,0.0,0.0,0.0,0.0,0.0,0.0,0.0,0.0,0.0,0.0,0.0,0.0,0.0,0.0,0.0,0.0,0.0,0.0,0.0,0.0,0.0,0.0,0.0,0.0,3.6309,3.8865,4.0866,4.1662,4.1085,3.7226,3.3767,0.0,0.0,0.0,0.0,0.0,0.0,0.0,0.0,0.0,0.0,0.0,0.0,0.0,0.0,0.0,0.0,0.0,0.0,0.0,0.0,0.0,0.0,0.0,0.0,0.0,0.0,0.0,0.0,0.0,0.0,0.0,0.0,0.0,0.0,0.0,0.0,0.0,0.0,0.0,0.0,0.0,0.0,0.0,0.0,0.0,0.0,0.0,0.0,0.0,0.0,0.0,0.0,0.0,0.0,0.0,0.0,0.0,0.0,0.0,0.0,0.0,0.0,0.0,0.0,0.0,0.0,0.0,0.0,0.0,0.0,0.0,0.0,0.0,0.0,0.0,0.0,0.0,0.0,0.0,0.0,0.0,0.0,0.0,0.0,0.0,0.0,0.0,0.0,0.0,0.0,0.0,0.0,0.0,0.0,0.0,0.0,0.0,0.0,0.0,0.0,0.0,0.0,0.0,0.0,0.0,0.0,0.0,3.3799,3.7061,3.9852,4.2036,4.2761,4.192,3.9335,3.5889,3.1645,0.0,0.0,0.0,0.0,0.0,0.0,0.0,0.0,0.0,0.0,0.0,0.0,0.0,0.0,0.0,0.0,0.0,0.0,0.0,0.0,0.0,0.0,0.0,0.0,0.0,0.0,0.0,0.0,0.0,0.0,0.0,0.0,0.0,0.0,0.0,0.0,0.0,0.0,2.0543,2.3143,0.0,0.0,0.0,0.0,0.0,0.0,0.0,0.0,2.476,0.0,0.0,0.0,0.0,0.0,0.0,0.0,0.0,0.0,0.0,0.0,0.0,0.0,0.0,0.0,0.0,0.0,0.0,0.0,0.0,0.0,0.0,0.0,0.0,0.0,0.0,0.0,0.0,0.0,0.0,0.0,0.0,0.0,0.0,0.0,0.0,0.0,0.0,0.0,0.0,0.0,0.0,0.0,0.0,0.0,0.0,0.0,0.0,0.0,0.0,0.0,0.0,0.0,0.0,0.0,0.0,3.2578,3.4681,3.7633,4.1579,4.2629,4.2923,4.2431,4.0414,3.6982,3.2067,0.0,0.0,0.0,0.0,0.0,0.0,0.0,0.0,0.0,0.0,0.0,0.0,0.0,0.0,0.0,0.0,0.0,0.0,0.0,0.0,0.0,0.0,0.0,0.0,0.0,0.0,0.0,0.0,0.0,0.0,0.0,0.0,0.0,0.0,0.0,0.0,0.0,0.0,0.0,2.6063,2.7381,0.0,0.0,0.0,0.0,0.0,0.0,0.0,0.0,2.5894,0.0,0.0,0.0,0.0,0.0,0.0,0.0,0.0,0.0,0.0,0.0,0.0,0.0,0.0,0.0,0.0,0.0,0.0,0.0,0.0,0.0,0.0,0.0,0.0,0.0,0.0,0.0,0.0,0.0,0.0,0.0,0.0,0.0,0.0,0.0,0.0,0.0,0.0,0.0,0.0,0.0,0.0,0.0,0.0,0.0,0.0,0.0,0.0,0.0,0.0,0.0,0.0,0.0,0.0,0.0,3.3667,3.6372,3.953,4.3188,4.3866,4.3827,4.317,3.9974,3.6437,0.0,0.0,0.0,0.0,0.0,0.0,0.0,0.0,0.0,0.0,0.0,0.0,0.0,0.0,0.0,0.0,0.0,0.0,0.0,0.0,0.0,0.0,0.0,0.0,0.0,0.0,0.0,0.0,0.0,0.0,0.0,0.0,0.0,0.0,0.0,0.0,0.0,0.0,0.0,0.0,2.7623,2.8589,2.9979,0.0,0.0,0.0,0.0,0.0,0.0,2.7378,2.6516,0.0,0.0,0.0,0.0,0.0,0.0,0.0,0.0,0.0,0.0,0.0,0.0,0.0,0.0,0.0,0.0,0.0,0.0,0.0,0.0,0.0,0.0,0.0,0.0,0.0,0.0,0.0,0.0,0.0,0.0,0.0,0.0,0.0,0.0,0.0,0.0,0.0,0.0,0.0,0.0,0.0,0.0,0.0,0.0,0.0,0.0,0.0,0.0,0.0,0.0,0.0,0.0,0.0,0.0,0.0,3.4317,3.7763,4.1081,4.4249,4.4878,4.463,4.3605,3.9814,3.6261,0.0,0.0,0.0,0.0,0.0,0.0,0.0,0.0,0.0,0.0,0.0,0.0,0.0,0.0,0.0,0.0,0.0,0.0,0.0,0.0,0.0,0.0,0.0,0.0,0.0,0.0,0.0,0.0,0.0,0.0,0.0,0.0,0.0,0.0,0.0,0.0,0.0,0.0,0.0,0.0,0.0,3.0182,3.2316,3.0609,0.0,0.0,0.0,0.0,3.0356,2.9691,0.0,0.0,0.0,0.0,0.0,0.0,0.0,0.0,0.0,0.0,0.0,0.0,0.0,0.0,0.0,0.0,0.0,0.0,0.0,0.0,0.0,0.0,0.0,0.0,0.0,0.0,0.0,0.0,0.0,0.0,0.0,0.0,0.0,0.0,0.0,0.0,0.0,0.0,0.0,0.0,0.0,0.0,0.0,0.0,0.0,0.0,0.0,0.0,0.0,0.0,0.0,0.0,0.0,0.0,0.0,0.0,3.4315,3.7742,4.0978,4.39,4.4728,4.4407,4.2941,4.1698,3.8414,0.0,0.0,0.0,0.0,0.0,0.0,0.0,0.0,0.0,0.0,0.0,0.0,0.0,0.0,0.0,0.0,0.0,0.0,0.0,0.0,0.0,0.0,0.0,0.0,0.0,0.0,0.0,0.0,0.0,0.0,0.0,0.0,0.0,0.0,0.0,0.0,0.0,0.0,0.0,0.0,0.0,3.3045,3.1092,3.1367,3.1713,0.0,0.0,3.3751,3.3767,3.5451,0.0,0.0,0.0,0.0,0.0,0.0,0.0,0.0,0.0,0.0,0.0,0.0,0.0,0.0,0.0,0.0,0.0,0.0,0.0,0.0,0.0,0.0,0.0,0.0,0.0,0.0,0.0,0.0,0.0,0.0,0.0,0.0,0.0,0.0,0.0,0.0,0.0,0.0,0.0,0.0,0.0,0.0,0.0,0.0,0.0,0.0,0.0,0.0,0.0,0.0,0.0,0.0,0.0,0.0,0.0,3.0598,3.5057,3.9445,4.289,4.5217,4.5442,4.5089,4.4147,4.0585,3.6906,0.0,0.0,0.0,0.0,0.0,0.0,0.0,0.0,0.0,0.0,0.0,0.0,0.0,0.0,0.0,0.0,0.0,0.0,0.0,0.0,0.0,0.0,0.0,0.0,0.0,0.0,0.0,0.0,0.0,0.0,0.0,0.0,0.0,0.0,0.0,0.0,0.0,0.0,0.0,0.0,0.0,0.0,3.4805,3.4948,0.0,0.0,0.0,3.6501,3.6458,0.0,0.0,0.0,0.0,0.0,0.0,0.0,0.0,0.0,0.0,0.0,0.0,0.0,0.0,0.0,0.0,0.0,0.0,0.0,0.0,0.0,0.0,0.0,0.0,0.0,0.0,0.0,0.0,0.0,0.0,0.0,0.0,0.0,0.0,0.0,0.0,0.0,0.0,0.0,0.0,0.0,0.0,0.0,0.0,0.0,0.0,0.0,0.0,0.0,0.0,0.0,0.0,0.0,0.0,0.0,0.0,0.0,3.5603,4.0926,4.4516,4.6121,4.6126,4.5772,4.4994,4.0345,0.0,0.0,0.0,0.0,0.0,0.0,0.0,0.0,0.0,0.0,0.0,0.0,0.0,0.0,0.0,0.0,0.0,0.0,0.0,0.0,0.0,0.0,0.0,0.0,0.0,0.0,0.0,1.434,0.0,0.0,0.0,0.0,0.0,0.0,0.0,0.0,0.0,0.0,0.0,0.0,0.0,0.0,3.5718,3.8242,3.8491,3.8753,0.0,0.0,3.9358,3.933,3.9285,3.7762,0.0,0.0,0.0,0.0,0.0,0.0,0.0,0.0,0.0,0.0,0.0,0.0,0.0,0.0,0.0,0.0,0.0,0.0,0.0,0.0,0.0,0.0,0.0,0.0,0.0,0.0,0.0,0.0,0.0,0.0,0.0,0.0,0.0,0.0,0.0,0.0,0.0,0.0,0.0,0.0,0.0,0.0,0.0,0.0,0.0,0.0,0.0,0.0,0.0,0.0,0.0,0.0,0.0,0.0,0.0,3.5678,4.148,4.4968,4.5795,4.6561,4.6218,4.4779,4.2873,3.9313,0.0,0.0,0.0,0.0,0.0,0.0,0.0,0.0,0.0,0.0,0.0,0.0,0.0,0.0,0.0,0.0,0.0,0.0,0.0,0.0,0.0,0.0,0.0,0.0,0.0,0.0,0.0,0.0,0.0,0.0,0.0,0.0,0.0,0.0,0.0,0.0,0.0,0.0,0.0,0.0,0.0,3.9257,3.933,4.0854,4.2403,0.0,0.0,4.2829,4.2761,4.4701,4.3739,3.6416,0.0,0.0,0.0,0.0,0.0,0.0,0.0,0.0,0.0,0.0,0.0,0.0,0.0,0.0,0.0,0.0,0.0,0.0,0.0,0.0,0.0,0.0,0.0,0.0,0.0,0.0,0.0,0.0,0.0,0.0,0.0,0.0,0.0,0.0,0.0,0.0,0.0,0.0,0.0,0.0,0.0,0.0,0.0,0.0,0.0,0.0,0.0,0.0,0.0,0.0,0.0,0.0,0.0,3.3263,3.6416,4.2603,4.6291,4.725,4.7387,4.6797,4.548,4.2947,3.935,0.0,0.0,0.0,0.0,0.0,0.0,0.0,0.0,0.0,0.0,0.0,0.0,0.0,0.0,0.0,0.0,0.0,0.0,0.0,0.0,0.0,0.0,0.0,0.0,0.0,0.0,0.0,0.0,2.0714,2.108,2.2068,0.0,0.0,0.0,0.0,0.0,0.0,0.0,0.0,0.0,0.0,4.0351,4.2396,4.4111,0.0,0.0,4.6088,4.605,4.553,4.4932,4.2838,3.7817,3.5311,0.0,0.0,0.0,0.0,0.0,0.0,0.0,0.0,0.0,0.0,0.0,0.0,0.0,0.0,0.0,0.0,0.0,0.0,0.0,0.0,0.0,0.0,0.0,0.0,0.0,0.0,0.0,0.0,0.0,0.0,0.0,0.0,0.0,0.0,0.0,0.0,0.0,0.0,0.0,0.0,0.0,0.0,0.0,0.0,0.0,0.0,0.0,0.0,0.0,0.0,0.0,0.0,3.4108,3.7269,4.3428,4.7118,4.8192,4.8097,4.7485,4.625,4.3608,4.0304,0.0,0.0,0.0,0.0,0.0,0.0,0.0,0.0,0.0,0.0,0.0,0.0,0.0,0.0,0.0,0.0,0.0,0.0,0.0,0.0,0.0,0.0,0.0,0.0,0.0,0.0,0.0,0.0,2.3387,2.3419,2.317,0.0,0.0,0.0,0.0,0.0,0.0,0.0,0.0,0.0,0.0,4.2152,4.4987,4.6561,4.7355,4.7278,4.7548,4.7548,4.7009,4.5393,4.3069,3.9698,0.0,0.0,0.0,0.0,0.0,0.0,0.0,0.0,0.0,0.0,0.0,0.0,0.0,0.0,0.0,0.0,0.0,0.0,0.0,0.0,0.0,0.0,0.0,0.0,0.0,0.0,0.0,2.1721,0.0,0.0,2.0469,0.0,0.0,0.0,0.0,0.0,0.0,0.0,0.0,0.0,0.0,0.0,0.0,0.0,0.0,0.0,0.0,0.0,0.0,0.0,0.0,0.0,0.0,0.0,3.8171,4.3802,4.7174,4.823,4.8658,4.8266,4.7095,4.548,4.2727,3.8652,0.0,0.0,0.0,0.0,0.0,0.0,0.0,0.0,0.0,0.0,0.0,0.0,0.0,0.0,0.0,0.0,0.0,0.0,0.0,0.0,0.0,0.0,0.0,0.0,0.0,0.0,2.3368,2.3871,2.399,0.0,0.0,0.0,0.0,0.0,0.0,0.0,0.0,0.0,0.0,4.1879,4.5064,4.6681,4.7702,4.822,4.8163,4.7509,4.6971,4.6971,4.6817,4.5663,0.0,0.0,0.0,0.0,0.0,0.0,0.0,0.0,0.0,0.0,0.0,0.0,0.0,0.0,0.0,0.0,0.0,0.0,0.0,0.0,0.0,0.0,0.0,0.0,0.0,0.0,0.0,2.6746,2.5956,0.0,0.0,0.0,0.0,0.0,0.0,0.0,0.0,0.0,0.0,0.0,3.3091,3.471,0.0,0.0,0.0,0.0,0.0,0.0,0.0,0.0,0.0,0.0,0.0,0.0,3.6052,3.9945,4.5152,4.8452,4.9784,4.9554,4.89,4.7902,4.6361,4.3094,3.8065,0.0,0.0,0.0,0.0,0.0,0.0,0.0,0.0,0.0,0.0,0.0,0.0,0.0,0.0,0.0,0.0,0.0,0.0,0.0,0.0,0.0,0.0,0.0,0.0,0.0,2.536,0.0,0.0,0.0,0.0,0.0,0.0,0.0,0.0,0.0,0.0,0.0,3.7066,4.0404,4.297,4.534,4.7529,4.8548,4.9394,0.0,0.0,0.0,0.0,0.0,0.0,0.0,0.0,0.0,0.0,0.0,0.0,0.0,0.0,4.3547,3.6872,3.4967,3.4497,3.4838,0.0,0.0,0.0,0.0,0.0,0.0,0.0,0.0,0.0,0.0,0.0,0.0,0.0,0.0,3.0544,0.0,2.9709,0.0,0.0,0.0,0.0,0.0,0.0,0.0,0.0,3.5247,3.691,3.7649,3.8963,3.9082,0.0,3.7704,3.4917,0.0,0.0,0.0,0.0,0.0,0.0,0.0,0.0,3.767,4.1424,4.601,4.8926,4.9984,4.9454,4.8857,4.8306,4.6728,4.3644,3.8872,3.5385,3.2145,0.0,0.0,0.0,0.0,0.0,0.0,0.0,0.0,0.0,0.0,0.0,0.0,0.0,0.0,0.0,0.0,0.0,0.0,0.0,0.0,0.0,0.0,0.0,2.6525,0.0,0.0,0.0,0.0,0.0,0.0,0.0,0.0,0.0,3.4639,3.7315,4.0363,4.3386,4.5475,4.7165,4.8491,0.0,0.0,0.0,0.0,0.0,0.0,0.0,4.6811,4.6512,4.5837,4.56,4.6526,4.8316,4.9337,4.8394,0.0,0.0,4.2151,4.0137,3.9673,4.0035,4.048,4.106,4.1934,4.2947,4.3925,0.0,0.0,0.0,0.0,0.0,0.0,0.0,0.0,3.4338,3.4103,0.0,3.3242,0.0,0.0,0.0,0.0,0.0,3.4611,0.0,0.0,4.1443,4.3349,4.3716,4.2971,4.2867,4.3326,4.3521,4.1943,3.8651,3.3513,0.0,0.0,0.0,0.0,0.0,0.0,3.9861,4.2748,4.6494,4.86,4.8919,4.8532,4.8304,4.8231,4.6727,4.4416,4.1299,3.8909,3.5752,3.1715,2.8587,0.0,0.0,0.0,0.0,0.0,0.0,0.0,0.0,0.0,0.0,0.0,0.0,0.0,0.0,0.0,0.0,0.0,0.0,0.0,0.0,2.6378,0.0,0.0,0.0,0.0,0.0,0.0,0.0,0.0,0.0,0.0,3.7909,4.0902,4.4249,4.6666,0.0,0.0,0.0,0.0,5.0471,4.976,4.9242,4.93,5.0038,4.9824,4.9759,5.0468,0.0,0.0,5.1304,5.1982,5.2239,5.1067,5.2221,5.2779,5.101,4.851,4.7318,4.8009,4.6972,4.6897,4.899,4.9471,5.0067,3.9593,0.0,0.0,0.0,0.0,3.7106,3.875,4.1463,4.0801,3.983,3.8719,3.8707,0.0,0.0,0.0,0.0,0.0,0.0,3.904,4.1342,4.2845,4.4113,4.5141,4.5545,4.5795,4.5875,4.5417,4.4473,4.3145,4.0978,3.6671,3.0429,0.0,0.0,0.0,0.0,4.1739,4.5218,4.7825,4.9118,4.9122,4.8725,4.8254,4.7674,4.6617,4.5362,4.3683,4.1919,3.9067,3.5075,3.2863,0.0,0.0,0.0,0.0,0.0,0.0,0.0,0.0,0.0,0.0,0.0,0.0,0.0,0.0,0.0,0.0,0.0,0.0,0.0,2.7236,2.8088,2.9205,0.0,0.0,0.0,0.0,0.0,0.0,0.0,0.0,0.0,4.4862,4.5554,4.6359,0.0,0.0,4.9894,5.0279,5.101,5.2005,5.3235,5.2844,0.0,0.0,5.2491,5.1933,5.1584,5.2714,5.3452,5.2755,5.404,5.4924,5.4011,5.4956,5.5549,5.4434,5.2741,5.1605,5.1721,5.1854,5.2392,5.3601,5.4374,5.5126,4.5114,4.2521,4.0514,4.0136,4.0891,4.1041,4.257,4.4842,4.428,4.3595,4.2937,4.2863,4.1086,3.8209,3.8101,0.0,0.0,0.0,4.2145,4.436,4.5117,4.601,4.6952,4.7515,4.7679,4.7484,4.6824,4.6356,4.6048,4.5382,4.2151,3.6687,0.0,0.0,3.8633,4.1091,4.3779,4.6566,4.834,4.8959,4.8506,4.7991,4.7635,4.7421,4.6701,4.6086,4.5627,4.3871,4.161,3.8798,3.6193,3.3025,0.0,0.0,0.0,0.0,0.0,0.0,0.0,0.0,0.0,0.0,0.0,2.3788,0.0,0.0,0.0,0.0,2.7103,2.9344,3.1328,3.1904,0.0,0.0,0.0,0.0,0.0,0.0,0.0,4.2368,4.4747,4.7011,4.9182,4.9601,4.9721,4.9856,5.0457,5.1085,5.1591,0.0,5.3441,5.5009,5.4678,5.4452,5.4965,5.4537,5.4055,5.3904,5.4933,5.5723,5.5509,5.6474,5.7172,5.7215,5.7698,5.8141,5.7796,5.6896,5.6049,5.5626,5.578,5.6258,5.7043,5.7604,5.8242,4.964,4.9325,4.5809,4.4116,4.3942,4.5463,4.6102,4.6102,4.5774,4.6022,4.659,4.5835,4.4745,4.3446,4.2675,0.0,4.3042,4.4687,4.601,4.7194,4.7909,4.8483,4.8844,4.8844,4.8639,4.8269,4.79,4.7768,4.7798,4.7357,4.615,4.4265,4.3079,4.2755,4.3338,4.4608,4.5935,4.7184,4.8295,4.8311,4.7299,4.6624,4.6624,4.7212,4.6717,4.6552,4.6795,4.495,4.3389,4.2189,3.8652,3.5483,3.2969,0.0,0.0,0.0,0.0,0.0,0.0,0.0,0.0,0.0,0.0,0.0,0.0,0.0,0.0,0.0,3.1456,0.0,3.6691,3.693,0.0,0.0,0.0,3.7679,3.8869,4.1733,4.425,4.6013,0.0,0.0,5.1521,5.2915,5.364,5.3003,5.3194,5.339,5.3308,5.4087,5.4872,5.5706,5.5434,5.5472,5.6182,5.5895,5.5809,5.6397,5.742,5.7783,5.807,5.8364,5.8872,5.9267,5.9816,6.0026,6.0541,6.0358,6.0473,5.9281,5.8781,5.8704,5.9319,5.9511,5.9742,4.8933,4.8875,4.7972,4.814,4.9012,4.9418,4.9603,4.9603,4.949,4.927,4.8788,4.8221,4.7304,4.6088,4.5874,4.6164,4.6868,4.7267,4.7851,4.8482,4.8637,4.8627,4.8458,4.8458,4.8383,4.8269,4.8199,4.8345,4.8617,4.8492,4.8371,4.8115,4.7844,4.6809,4.5107,4.6287,4.7593,4.8871,4.8444,4.7497,4.6049,4.5906,4.5941,4.595,4.6358,4.6028,4.49,4.4767,4.3713,4.1718,3.9966,3.7958,3.5528,3.098,0.0,0.0,0.0,0.0,0.0,0.0,0.0,0.0,0.0,2.9361,2.5308,0.0,3.0932,0.0,3.4803,3.7321,3.8554,3.8657,0.0,0.0,4.1481,4.2223,4.624,4.6837,4.7837,5.0143,5.1973,5.3351,5.4031,5.4472,5.4856,5.5262,5.5157,5.5044,5.5018,5.5734,5.6431,5.6893,5.6888,5.6986,5.7433,5.6985,5.6621,5.6785,5.6969,5.6948,5.6455,5.7093,5.7601,5.734,5.8262,5.912,5.9542,6.0165,6.0704,6.0435,6.0281,6.0242,6.0435,6.0473,6.055,5.0309,5.0309,5.0629,5.1194,5.1834,5.0773,5.0483,5.0802,5.0802,5.0548,5.011,5.0009,4.9557,4.8946,4.9093,4.9318,4.9577,4.9577,4.965,4.975,4.975,4.9639,4.9407,4.9407,4.9407,4.9407,4.9407,4.9525,4.975,4.975,4.9928,5.029,5.029,4.9655,4.8486,4.8223,4.8536,4.9284,4.8052,4.6932,4.6014,4.5828,4.5465,4.5078,4.5455,4.5217,4.4182,4.3837,4.3197,4.2013,4.0732,3.9053,3.6906,3.355,3.1152,0.0,0.0,0.0,0.0,0.0,0.0,0.0,0.0,0.0,0.0,0.0,3.4109,3.5612,3.8516,4.07,4.1762,4.2531,4.3855,4.6053,4.5837,4.674,4.992,5.015,5.0878,5.2771,5.3617,5.444,5.5361,5.5847,5.6294,5.6908,5.7126,5.6948,5.6325,5.685,5.759,5.8079,5.8517,5.8799,5.9071,5.8721,5.8417,5.839,5.84,5.8207,5.7813,5.8275,5.8651,5.8486,5.9361,6.0281,6.0545,6.1281,6.1973,6.2204,6.2089,6.1627,6.0935,6.0781,6.0781,5.2175,5.22,5.2809,5.3057,5.3011,5.0923,5.0426,5.1104,5.1224,5.1197,5.1132,5.143,5.1448,5.1267,5.1611,5.1578,5.1267,5.1267,5.1083,5.0802,5.0802,5.0762,5.0643,5.0762,5.0762,5.0643,5.0762,5.0802,5.0802,5.0802,5.0966,5.1231,5.1231,5.1407,5.1668,4.9918,4.9012,4.9054,4.7554,4.6723,4.6615,4.6113,4.5375,4.4509,4.4565,4.4334,4.3814,4.2683,4.2236,4.2402,4.1105,3.9637,3.8089,3.6303,3.4723,0.0,3.2485,0.0,0.0,0.0,0.0,0.0,0.0,0.0,0.0,3.5967,3.7609,3.9692,4.2211,4.4231,4.5451,4.6958,4.8227,4.9121,4.9962,5.0799,5.1611,5.2448,5.3422,5.4579,5.4748,5.5247,5.6418,5.7186,5.779,5.826,5.8841,5.8721,5.7684,5.7923,5.8593,5.9281,5.9942,6.0173,6.0236,6.0298,6.0298,6.0346,6.0247,6.0394,6.0236,6.0261,6.0441,6.0803,6.1197,6.1792,6.2268,6.2708,6.3322,6.3643,6.3386,6.2767,6.1589,6.1243,6.1089,5.1376,5.1439,5.1566,5.1932,5.2427,5.2044,5.2212,5.2854,5.3531,5.3399,5.2784,5.2821,5.2128,5.0961,5.0966,5.0966,5.0885,5.0925,5.0845,5.0802,5.0802,5.0483,4.9945,5.0524,5.0483,4.9945,5.0561,5.0802,5.0802,5.0802,5.0842,5.0885,5.0925,5.0927,5.0929,0.0,0.0,0.0,4.798,4.7279,4.6782,4.6641,4.593,4.464,4.4597,0.0,4.1886,4.196,4.1829,4.1263,4.1202,0.0,0.0,0.0,0.0,0.0,0.0,0.0,0.0,0.0,0.0,0.0,3.9444,3.8595,3.8454,4.1331,4.3107,4.2965,4.5534,4.7614,4.8493,4.9477,5.0415,5.1254,5.2062,5.2855,5.3716,5.4547,5.5395,5.6284,5.6631,5.7138,5.7978,5.8555,5.9132,5.9789,6.0041,6.0066,5.9773,5.9821,5.9979,6.0162,6.0419,6.0408,6.0359,6.0444,6.0518,6.0382,6.0382,6.0419,6.0493,6.0493,6.0419,6.0582,6.0921,6.1344,6.1432,6.2075,6.2862,6.2901,6.3154,6.3205,6.2882,6.2844,6.2844,5.2334,0.0,5.2334,5.2561,0.0,5.2912,5.3066,5.3394,5.3741,5.3864,5.3836,5.3806,5.3599,5.3151,5.3151,5.3151,5.3151,5.3188,5.3151,5.3151,5.2813,5.2463,5.2065,5.2065,5.1813,5.1452,5.181,5.1974,5.2013,5.1977,5.2013,5.1977,5.2013,5.1773,5.1399,5.0365,4.9501,4.8785,4.8148,4.7646,4.7361,4.7361,4.6447,4.4688,0.0,0.0,0.0,0.0,0.0,0.0,0.0,0.0,0.0,0.0,0.0,4.0956,3.9972,3.9769,4.0745,4.1341,4.2197,4.3666,4.4483,4.4222,4.2569,4.4614,4.6283,4.71,4.8578,4.9715,5.0263,5.1082,5.1927,5.2741,5.3521,5.4383,5.5132,5.5619,5.6145,5.6806,5.7386,5.7987,5.8794,5.9428,6.0063,6.0834,6.0995,6.1166,6.1471,6.1263,6.1117,6.152,6.1594,6.1594,6.1581,6.1581,6.1594,6.1594,6.1594,6.1594,6.1594,6.1594,6.1557,6.1654,6.2003,6.2327,6.2379,6.2975,6.3584,6.3771,6.4019,6.4295,6.4436,6.3921,6.3281,5.389,5.389,5.389,5.389,5.389,5.389,5.389,5.3856,0.0,0.0,0.0,5.4506,5.4756,5.5186,5.5313,5.544,5.5359,5.544,5.5395,5.5359,5.4628,5.423,5.4128,5.3549,5.3194,5.3089,5.3338,5.3432,5.3456,5.3586,5.3628,5.3628,5.35,5.299,5.2122,5.1029,5.0022,4.9229,4.8473,4.8105,4.8105,4.797,4.6989,4.5026,4.5466,4.4688,4.2591,4.2489,4.2359,4.2091,4.2167,4.2412,4.2835,4.2985,4.3578,4.4767,4.4925,4.515,4.57,4.6372,4.6719,4.6599,4.8494,4.8823,4.6838,4.734,4.8586,5.0854,5.1118,5.1348,5.1825,5.2548,5.335,5.4053,5.4834,5.5652,5.6392,5.6651,5.701,5.7361,5.8097,5.8759,5.9575,6.0236,6.0896,6.1594,6.1838,6.2118,6.2682,6.2328,6.1998,6.2511,6.2585,6.2732,6.2768,6.2732,6.2805,6.2695,6.2732,6.2805,6.2805,6.2805,6.2805,6.2658,6.3168,6.3288,6.3461,6.378,6.437,6.4765,6.4947,6.5087,6.5367,6.4523,6.3641,5.5412,5.5412,5.5412,5.5412,5.5412,5.5412,5.5412,5.5346,5.4701,5.4478,5.4469,5.4504,5.4205,5.3655,5.4345,5.4665,5.4628,5.4665,5.4665,5.4616,5.3849,5.3148,5.2672,5.3092,5.2966,5.2555,5.3706,5.4314,5.4388,5.4939,5.5244,5.5119,5.4662,5.3631,5.238,5.2067,5.1615,5.0837,4.9554,4.8849,4.8849,4.824,4.7462,4.6515,4.5974,4.4959,4.3335,4.3267,4.2929,4.2325,4.2748,4.329,4.3895,4.4381,4.5004,4.5662,4.5773,4.636,4.7743,4.7979,4.8604,4.9936,5.0435,5.0717,5.1001,5.0815,5.1129,5.2156,5.2655,5.3163,5.3897,5.4626,5.5177,5.5374,5.6073,5.6846,5.7655,5.8317,5.898,5.9632,5.9953,6.0357,6.097,6.1337,6.1777,6.2438,6.2732,6.2938,6.3576,6.3172,6.2732,6.2768,6.2805,6.2805,6.2989,6.2842,6.2952,6.2805,6.2915,6.3025,6.3025,6.3025,6.3025,6.2879,6.3051,6.3064,6.3076,6.3317,6.3873,6.4125,6.4404,6.4714,6.4886,6.4547,6.4524,5.5716,5.5716,5.5716,5.5716,5.5716,5.5716,5.5716,5.5649,5.5349,5.5426,5.5733,5.5758,5.5543,5.5242,5.5612,5.5562,5.5187,5.5134,5.5134,5.508,5.438,5.3833,5.3567,5.3479,5.3237,5.2978,5.3589,5.3902,5.3885,5.4158,5.4395,5.4345,5.3638,5.2958,5.232,5.1871,5.1532,5.1217,5.0541,5.0202,5.0202,4.9492,4.8748,4.8003,4.7293,4.6413,4.5297,4.5263,4.5117,4.4766,4.4981,4.5407,4.6028,4.6686,4.732,4.7937,4.8343,4.8852,4.9574,4.9664,5.0365,5.1919,5.209,5.2651,5.3818,5.292,5.2856,5.4035,5.4363,5.4635,5.506,5.5757,5.6426,5.6859,5.7593,5.84,5.9171,5.9612,5.9979,6.0394,6.0834,6.119,6.1545,6.2388,6.3025,6.3479,6.3847,6.431,6.4677,6.4457,6.4163,6.4163,6.4163,6.4163,6.4127,6.4127,6.4127,6.4163,6.4149,6.4149,6.42,6.4163,6.4163,6.4163,6.4163,6.4163,6.4163,6.4328,6.4604,6.4881,6.5066,6.5346,6.5607,6.5724,6.5577,5.619,5.6224,5.619,5.619,5.6224,5.619,5.6224,5.6224,5.619,5.6472,5.6982,5.6739,5.6512,5.658,5.6761,5.6529,5.6,5.5965,5.5965,5.5906,5.5154,5.4844,5.4844,5.4193,5.3885,5.3714,5.3798,5.3808,5.3598,5.3752,5.3752,5.3528,5.3043,5.2719,5.2605,5.2013,5.1725,5.1725,5.1725,5.1555,5.1217,5.0642,5.0067,4.9526,4.8951,4.8308,4.7597,4.753,4.7386,4.7097,4.7029,4.7273,4.7642,4.8221,4.884,4.9471,5.019,5.0826,5.132,5.1687,5.2443,5.3617,5.3754,5.4326,5.5566,5.4737,5.4481,5.5603,5.5823,5.597,5.6455,5.6969,5.7675,5.8437,5.9051,5.9748,6.0529,6.0676,6.0786,6.0933,6.163,6.2181,6.2412,6.3438,6.431,6.4434,6.5044,6.5506,6.5595,6.5705,6.5852,6.5778,6.5558,6.5228,6.5301,6.5279,6.5243,6.5301,6.5249,6.5139,6.5191,6.5264,6.5301,6.5191,6.5228,6.5154,6.5264,6.5264,6.5385,6.5534,6.5642,6.5829,6.6127,6.6231,6.6195,5.7679,5.7679,5.7679,5.7679,5.7679,5.7712,5.7679,5.7679,5.7679,5.7751,5.7654,5.6433,5.5892,5.5894,5.6529,5.6715,5.6611,5.668,5.6646,5.6581,5.5962,5.5619,5.5551,5.5446,5.5177,5.4601,5.5094,5.5029,5.4522,5.5109,5.5109,5.4548,5.4426,5.4058,5.3481,5.3348,5.3315,5.3281,5.3315,5.2638,5.1319,5.115,5.1082,5.1014,5.0947,5.0574,4.9729,4.9796,4.9182,4.7954,4.7869,4.7786,4.7775,4.7796,4.8127,4.8853,4.9539,5.0773,5.2782,5.433,5.5073,5.5341,5.5285,5.5706,5.6566,5.6539,5.649,5.6656,5.6658,5.7327,5.8657,5.8867,5.9197,5.9846,6.0176,6.0628,6.1337,6.1484,6.1741,6.2511,6.3246,6.3819,6.3914,6.4626,6.5154,6.5301,6.5909,6.6386,6.6439,6.6843,6.721,6.71,6.6329,6.5521,6.5448,6.5338,6.5521,6.5448,6.5359,6.5469,6.5595,6.5506,6.5359,6.5778,6.5521,6.5558,6.5485,6.5338,6.5463,6.5741,6.5754,6.5529,6.5485,6.5676,6.5853,5.9201,5.9201,5.9201,5.9201,5.9201,5.9201,5.9201,5.9167,5.8727,5.8558,5.8423,5.7442,5.6765,5.6359,5.6643,5.6611,5.6201,5.6167,5.6167,5.6099,5.5822,5.5716,5.5716,5.5716,5.5547,5.5277,5.5553,5.5552,5.5379,5.5541,5.5541,5.5279,5.5244,5.5077,5.4803,5.4803,5.4803,5.4803,5.4837,5.4296,5.3247,5.23,5.186,5.1826,5.1454,5.1082,5.0811,5.0744,5.0473,4.9927,4.9869,4.982,4.9778,5.0187,5.0514,5.0857,5.1475,5.2251,5.3203,5.3855,5.4642,5.5524,5.5569,5.6129,5.7371,5.7514,5.7473,5.754,5.7944,5.8391,5.858,5.9333,6.0079,6.0362,6.0806,6.1422,6.2218,6.2768,6.3246,6.3562,6.431,6.4772,6.4956,6.5521,6.6145,6.6586,6.701,6.7156,6.7247,6.7504,6.765,6.7614,6.71,6.6806,6.6659,6.6696,6.6696,6.6696,6.6733,6.6733,6.6659,6.6733,6.6733,6.6659,6.6586,6.6586,6.6806,6.6733,6.6696,6.6639,6.6712,6.6769,6.6699,6.6716,6.6942,6.008,6.008,6.008,6.008,6.008,6.008,6.008,6.0047,5.9539,5.9302,5.9268,5.8727,5.822,5.7712,5.7306,5.6799,5.6359,5.6325,5.6325,5.6325,5.6292,5.6325,5.6325,5.6325,5.6224,5.6055,5.6021,5.5919,5.575,5.5716,5.5716,5.5716,5.5716,5.5716,5.5716,5.5716,5.5716,5.5716,5.5716,5.5446,5.4803,5.3822,5.3044,5.2638,5.2131,5.186,5.1826,5.1826,5.1725,5.1522,5.1511,5.1376,5.1217,5.1691,5.2043,5.2399,5.3186,5.3742,5.395,5.4351,5.5075,5.6129,5.6258,5.6705,5.7738,5.7962,5.8,5.7978,5.8736,5.8875,5.8622,5.9402,6.0267,6.0918,6.164,6.2318,6.3379,6.409,6.442,6.4516,6.5102,6.5778,6.5983,6.6476,6.7043,6.7467,6.7834,6.8017,6.8091,6.8201,6.8421,6.8348,6.8348,6.8128,6.7797,6.754,6.7687,6.7687,6.7577,6.754,6.7687,6.765,6.765,6.721,6.7577,6.7614,6.7393,6.7504,6.7614,6.765,6.765,6.7614,6.7504,6.7614,6.765,6.008,6.0114,6.0114,6.0182,6.0114,6.0182,6.0148,6.025,6.008,6.0047,6.0047,5.9945,5.9945,5.9742,5.8457,5.7848,5.778,5.778,5.7814,5.778,5.778,5.7814,5.7814,5.778,5.7408,5.6799,5.6765,5.6427,5.5852,5.5784,5.5716,5.575,5.5852,5.5784,5.5852,5.5886,5.575,5.5886,5.5886,5.575,5.5683,5.5581,5.4803,5.3653,5.3416,5.3416,5.3416,5.3416,5.3078,5.2334,5.2336,5.2066,5.1389,5.1362,5.1798,5.249,5.3715,5.487,5.5568,5.6645,5.7506,5.7721,5.7569,5.7855,5.8006,5.8045,5.8106,5.7959,5.8757,5.9183,5.917,5.9538,6.0532,6.2227,6.2707,6.353,6.4956,6.5118,6.5264,6.5359,6.5909,6.6623,6.7393,6.7614,6.765,6.7907,6.8385,6.8862,6.8935,6.9449,6.9743,6.9779,6.9706,6.9449,6.8091,6.8054,6.7981,6.7981,6.8128,6.7797,6.7687,6.7687,6.7687,6.7687,6.7687,6.7687,6.7687,6.7687,6.765,6.7687,6.7687,6.7687,6.7687,6.7687,6.7687,6.1569,6.1569,6.1569,6.1569,6.1569,6.1569,6.1569,6.1501,6.1061,6.0858,6.0757,6.0351,6.008,6.008,5.9539,5.9302,5.9302,5.9302,5.9302,5.9302,5.9302,5.9032,5.8626,5.8592,5.822,5.7577,5.7476,5.7374,5.7137,5.7103,5.7103,5.7103,5.7103,5.7103,5.7103,5.7103,5.7103,5.7103,5.7103,5.69,5.6427,5.6427,5.5919,5.5006,5.4938,5.4938,5.4905,5.4938,5.4769,5.4499,5.4466,5.433,5.4126,5.4059,5.416,5.4497,5.4975,5.5412,5.575,5.6166,5.6744,5.7187,5.7239,5.7769,5.8442,5.8596,5.8798,5.9214,5.9546,5.975,6.0013,6.0776,6.1819,6.2648,6.3697,6.4529,6.5197,6.5742,6.6072,6.6219,6.6769,6.7393,6.776,6.8128,6.8458,6.8568,6.9155,6.9596,6.9706,6.9963,7.0183,7.011,7.0073,6.9926,6.9467,6.9265,6.9229,6.9082,6.9009,6.8641,6.8512,6.8017,6.7944,6.8017,6.7944,6.7981,6.8054,6.8054,6.7981,6.7907,6.7907,6.8017,6.7687,6.8017,6.7907,6.2415,6.2415,6.2415,6.2415,6.2415,6.2415,6.2415,6.2347,6.1873,6.167,6.1535,6.1061,6.0858,6.0858,6.0825,6.0825,6.0757,6.0351,6.008,6.008,6.008,5.9844,5.9438,5.937,5.9099,5.8693,5.8626,5.8592,5.8592,5.8592,5.8592,5.8592,5.8389,5.8254,5.822,5.8017,5.7881,5.7881,5.7881,5.7611,5.7205,5.7137,5.6934,5.6494,5.6427,5.6156,5.575,5.5716,5.5716,5.5683,5.5688,5.5722,5.5714,5.5687,5.569,5.5724,5.5922,5.6044,5.6135,5.6453,5.704,5.7471,5.7769,5.8389,5.9225,5.9395,5.9614,6.0005,6.0131,6.0173,6.075,6.2073,6.304,6.2917,6.398,6.5113,6.5637,6.6439,6.6916,6.7337,6.7724,6.8128,6.8458,6.8972,6.9229,6.9284,6.9944,7.0477,7.0477,7.0734,7.0881,7.0881,7.0991,7.1027,7.0824,7.0881,7.022,6.9944,6.9706,6.9412,6.9173,6.8641,6.8385,6.8385,6.8421,6.8458,6.8458,6.8458,6.8421,6.8385,6.8678,6.8935,6.8715,6.8568,6.8605,6.2415,6.2415,6.2415,6.2448,6.2482,6.2516,6.2448,6.2448,6.2448,6.2415,6.2381,6.2347,6.2279,6.2347,6.2245,6.2313,6.1975,6.0892,6.0351,6.0351,6.0317,6.025,6.0114,6.0114,6.0047,5.9877,6.0013,6.0013,5.9911,5.9877,5.9877,5.9877,5.9302,5.9032,5.8998,5.8423,5.8017,5.8084,5.8118,5.8017,5.7915,5.7983,5.7983,5.7915,5.7915,5.734,5.6021,5.5886,5.5919,5.5886,5.5852,5.5778,5.59,5.5913,5.5818,5.6055,5.652,5.678,5.7089,5.8157,5.8778,5.8976,5.958,5.9817,6.0041,6.0136,6.0173,6.0337,6.0404,6.0536,6.14,6.2752,6.3512,6.2917,6.3882,6.5118,6.6262,6.723,6.8035,6.864,6.8879,6.9229,6.9816,7.0036,7.011,7.0237,7.0787,7.1321,7.1358,7.1762,7.2312,7.2349,7.2092,7.1908,7.2202,7.2386,7.1411,7.0677,7.0403,7.011,7.0,6.9669,6.9412,6.9376,6.9357,6.9394,6.9376,6.9376,6.9486,6.9522,6.9743,6.9743,6.9559,6.9412,6.9577,6.2415,6.2415,6.2415,6.2685,6.3125,6.3159,6.3159,6.3159,6.3159,6.3159,6.3159,6.3159,6.3159,6.3159,6.3159,6.2888,6.2381,6.1873,6.167,6.167,6.167,6.1366,6.0994,6.0926,6.0622,6.0182,6.008,6.0114,6.0148,6.0148,6.008,6.0047,5.9877,5.9776,5.9742,5.9539,5.9404,5.9404,5.9404,5.9404,5.9404,5.9404,5.937,5.9404,5.9404,5.9133,5.8727,5.778,5.7239,5.7205,5.7205,5.72,5.7195,5.72,5.748,5.7925,5.818,5.8556,5.906,5.943,5.9783,5.9827,5.9987,6.0333,6.0825,6.0977,6.1172,6.1548,6.1683,6.1839,6.2217,6.2931,6.3727,6.4231,6.5573,6.6812,6.7853,6.8825,6.9376,6.9651,6.9706,6.9853,7.0146,7.0513,7.0954,7.0971,7.1615,7.2055,7.2165,7.2275,7.2496,7.2496,7.2532,7.2532,7.2532,7.2532,7.2055,7.1448,7.1174,7.0954,7.0844,7.0697,7.0477,7.033,7.0312,7.0312,7.0293,7.0274,7.044,7.0293,7.0183,7.0146,7.0146,7.0237,7.0457,6.3226,6.3226,6.3193,6.3497,6.3903,6.3937,6.3903,6.3937,6.3937,6.3937,6.3903,6.3903,6.3903,6.3937,6.3903,6.3666,6.3226,6.3226,6.3226,6.3091,6.255,6.211,6.1738,6.1704,6.1467,6.1061,6.096,6.096,6.096,6.096,6.096,6.096,6.0689,6.0554,6.0486,6.025,6.008,6.008,6.008,6.008,6.008,6.008,6.008,6.008,6.008,6.008,6.0013,5.9167,5.8727,5.8693,5.8733,5.8733,5.8693,5.8739,5.8914,5.9282,5.9389,5.9631,6.0068,6.0351,6.0528,6.0603,6.0806,6.1335,6.1929,6.2144,6.2479,6.3103,6.3226,6.3238,6.3362,6.3927,6.4687,6.5243,6.6567,6.8017,6.9079,6.9779,7.022,7.0367,7.055,7.066,7.1027,7.1321,7.1762,7.1835,7.2165,7.2532,7.2532,7.2496,7.2569,7.2569,7.2532,7.2532,7.2532,7.2532,7.2532,7.2239,7.1982,7.1835,7.1725,7.1541,7.1358,7.1394,7.1377,7.1451,7.1431,7.1264,7.1264,7.1027,7.0844,7.1138,7.1358,7.1248,7.1394,6.458,6.4613,6.458,6.458,6.4647,6.4647,6.4681,6.4681,6.4681,6.4647,6.4681,6.4681,6.4647,6.4647,6.4681,6.458,6.4546,6.441,6.4377,6.4072,6.3328,6.2685,6.2651,6.2651,6.2584,6.2516,6.2482,6.2516,6.2516,6.2381,6.2448,6.2279,6.167,6.1366,6.1264,6.0622,6.0419,6.0452,6.0385,6.0385,6.0385,6.0351,6.0351,6.0385,6.0385,6.0419,6.0419,6.0419,6.025,6.008,5.9885,5.9851,6.002,6.0041,5.9984,6.0095,6.0146,6.0348,6.0502,6.1138,6.1605,6.1732,6.2188,6.283,6.3314,6.3417,6.3634,6.4241,6.4363,6.4491,6.4563,6.5141,6.5697,6.6113,6.698,6.8219,6.966,6.9994,7.0318,7.0967,7.1301,7.1558,7.2108,7.2349,7.2459,7.2606,7.2642,7.2753,7.2936,7.3046,7.2789,7.2863,7.312,7.3193,7.3377,7.3413,7.3413,7.334,7.301,7.2753,7.2422,7.2202,7.2055,7.2129,7.2275,7.2386,7.2312,7.2092,7.2055,7.1945,7.2055,7.2422,7.2386,7.2092,7.2202,6.4613,6.4613,6.4613,6.4918,6.5358,6.5392,6.5392,6.5392,6.5392,6.5425,6.5392,6.5392,6.5392,6.5392,6.5392,6.5121,6.4783,6.4681,6.4613,6.4546,6.4275,6.4038,6.4005,6.4005,6.3971,6.3937,6.3869,6.4005,6.3971,6.3463,6.3226,6.3193,6.2516,6.2144,6.2042,6.1907,6.1806,6.1772,6.1772,6.1772,6.1772,6.1806,6.1772,6.1772,6.1772,6.1772,6.1839,6.2347,6.1738,6.0216,6.0054,6.0114,6.029,6.0306,6.0597,6.1045,6.1109,6.1503,6.2391,6.2751,6.3101,6.3665,6.3757,6.4109,6.4248,6.4347,6.4415,6.4647,6.4638,6.4689,6.4788,6.5352,6.6214,6.7399,6.7919,6.8364,6.8975,6.9501,7.0165,7.0961,7.1184,7.1781,7.2416,7.2679,7.2863,7.3266,7.3413,7.3523,7.378,7.4001,7.3891,7.4147,7.4368,7.4331,7.4368,7.4368,7.4368,7.4463,7.4169,7.367,7.3156,7.2569,7.2459,7.2422,7.2789,7.2973,7.2679,7.2422,7.2532,7.2863,7.2789,7.2899,7.2679,7.2459,7.2863,6.5527,6.5527,6.5527,6.5764,6.6136,6.617,6.617,6.617,6.617,6.617,6.617,6.617,6.617,6.617,6.6136,6.5933,6.5561,6.5527,6.5527,6.5527,6.5527,6.5189,6.4749,6.4613,6.4613,6.4613,6.4613,6.458,6.4512,6.4174,6.4005,6.3903,6.3531,6.3328,6.3362,6.3328,6.3294,6.3328,6.3328,6.3328,6.3328,6.3328,6.3328,6.3328,6.3328,6.3328,6.3396,6.3734,6.3125,6.1995,6.18,6.2038,6.2009,6.1979,6.2267,6.2707,6.2729,6.3087,6.3724,6.3928,6.4177,6.4495,6.4597,6.4776,6.4986,6.5094,6.5094,6.5512,6.5514,6.5531,6.5682,6.6237,6.7167,6.8286,6.87,6.8829,6.8964,7.0198,7.0933,7.1608,7.2237,7.2802,7.345,7.345,7.3744,7.4074,7.4221,7.4441,7.4698,7.4882,7.5028,7.5139,7.5102,7.4955,7.4882,7.4882,7.4895,7.5028,7.5028,7.4625,7.4147,7.3413,7.3377,7.345,7.3487,7.3428,7.334,7.334,7.3634,7.378,7.3523,7.3413,7.3377,7.3193,7.356,6.6812,6.6812,6.6812,6.6812,6.6779,6.6812,6.6745,6.6779,6.6745,6.6745,6.6745,6.6779,6.6711,6.6812,6.6677,6.6779,6.6745,6.6576,6.6677,6.6609,6.6542,6.6068,6.5189,6.5121,6.5087,6.5053,6.4884,6.4952,6.5019,6.485,6.4715,6.4647,6.458,6.4546,6.4343,6.4444,6.458,6.4444,6.4343,6.4309,6.4343,6.4343,6.4309,6.4309,6.4309,6.4343,6.4444,6.458,6.4322,6.3702,6.4268,6.4302,6.4404,6.4472,6.4427,6.4322,6.4267,6.4353,6.4661,6.4742,6.4816,6.4952,6.5101,6.514,6.5883,6.6219,6.6524,6.6981,6.7049,6.7032,6.7151,6.7692,6.8147,6.8842,6.9064,6.9275,6.9937,7.1194,7.2139,7.2365,7.3723,7.4579,7.4904,7.4882,7.4859,7.4955,7.5065,7.5285,7.5542,7.5763,7.5726,7.5616,7.5542,7.5359,7.5322,7.5322,7.5409,7.5519,7.5629,7.5482,7.5359,7.4918,7.4771,7.4661,7.4235,7.4235,7.4418,7.4588,7.4735,7.4588,7.4258,7.4478,7.4698,7.4331,7.4404,6.6812,6.6812,6.6812,6.6812,6.6812,6.6812,6.6846,6.688,6.6846,6.6948,6.6846,6.6846,6.688,6.688,6.6948,6.6812,6.6948,6.6948,6.6812,6.6812,6.6812,6.6711,6.6339,6.6373,6.6305,6.6271,6.6305,6.6305,6.6203,6.5696,6.5459,6.5392,6.5019,6.4613,6.4681,6.4816,6.4613,6.4613,6.4647,6.4715,6.4749,6.4749,6.4749,6.4749,6.4715,6.4647,6.4749,6.5155,6.5338,6.5196,6.4911,6.4932,6.4788,6.4705,6.472,6.4768,6.4806,6.4956,6.5357,6.559,6.5732,6.6305,6.6777,6.7251,6.7371,6.7959,6.8263,6.8605,6.8605,6.847,6.8522,6.8741,6.9079,6.9248,6.9422,6.9612,7.0278,7.0826,7.1462,7.2264,7.3302,7.4097,7.4895,7.5065,7.5285,7.5689,7.5983,7.6166,7.635,7.6533,7.646,7.6276,7.6313,7.6203,7.6203,7.6203,7.6142,7.6179,7.6252,7.6289,7.6203,7.5909,7.5579,7.5189,7.4822,7.5005,7.5372,7.5212,7.5212,7.5065,7.5065,7.5249,7.5359,7.5212,7.5285,6.6812,6.6812,6.6812,6.7015,6.7286,6.732,6.7557,6.7827,6.7895,6.7827,6.7912,6.7827,6.7861,6.7879,6.7861,6.7895,6.7895,6.7895,6.7895,6.7929,6.7929,6.7929,6.7895,6.7793,6.7624,6.7015,6.6812,6.6812,6.6677,6.6474,6.6203,6.6203,6.5797,6.5764,6.5628,6.5628,6.5696,6.5696,6.5628,6.5628,6.5662,6.5662,6.5662,6.5662,6.5628,6.5628,6.573,6.6339,6.6659,6.6758,6.669,6.6321,6.5716,6.5598,6.5665,6.5681,6.6019,6.6238,6.669,6.7112,6.7489,6.7844,6.8268,6.8336,6.8524,6.8904,6.9043,6.914,6.9127,6.918,6.9504,6.9606,6.9863,7.0754,7.0823,7.1243,7.2031,7.2005,7.2184,7.3226,7.4616,7.5452,7.5898,7.5776,7.6056,7.6644,7.668,7.6864,7.6827,7.7011,7.7084,7.7047,7.7121,7.7157,7.7157,7.7121,7.7011,7.6974,7.6876,7.6913,7.69,7.6509,7.6142,7.5922,7.5776,7.6069,7.6326,7.6056,7.5909,7.6166,7.624,7.6069,7.6032,7.624,7.635,6.688,6.6981,6.6981,6.7421,6.803,6.8098,6.8436,6.8977,6.9079,6.8895,6.9083,6.9132,6.8808,6.8996,6.8944,6.9045,6.9045,6.9011,6.8842,6.8842,6.8842,6.8842,6.8842,6.8741,6.8368,6.7252,6.7354,6.732,6.732,6.7151,6.732,6.7184,6.7184,6.7184,6.7151,6.7151,6.7151,6.7151,6.7151,6.7184,6.7184,6.7184,6.7184,6.7184,6.7151,6.7184,6.7252,6.7658,6.8082,6.815,6.871,6.832,6.7557,6.7201,6.7184,6.7133,6.7622,6.7895,6.798,6.854,6.8863,6.9067,6.9272,6.9306,6.9304,6.9465,6.9603,6.957,6.968,6.9823,7.0284,7.0686,7.1335,7.2325,7.28,7.3457,7.4005,7.3864,7.4292,7.4683,7.5705,7.6569,7.6876,7.69,7.7231,7.7488,7.7488,7.7561,7.7598,7.7671,7.7892,7.8075,7.8259,7.7965,7.7892,7.7671,7.7635,7.7341,7.7341,7.7341,7.7341,7.7047,7.6692,7.7011,7.7047,7.7084,7.6986,7.6864,7.69,7.7304,7.7194,7.679,7.6937,7.7268,7.7304,6.7151,6.7726,6.7726,6.8166,6.8842,6.891,6.8977,6.9079,6.918,6.9132,6.9151,6.9166,6.9161,6.9161,6.9147,6.9113,6.9282,6.935,6.9282,6.9282,6.9282,6.9282,6.935,6.9383,6.9045,6.8842,6.8707,6.8707,6.8571,6.8707,6.8436,6.8605,6.8571,6.8571,6.8538,6.8707,6.8504,6.8402,6.8436,6.847,6.847,6.847,6.847,6.847,6.8436,6.8504,6.8605,6.8774,6.8876,6.8963,6.903,6.8992,6.8837,6.8692,6.8658,6.8601,6.8707,6.8895,6.8992,6.9049,6.9151,6.9208,6.968,7.0005,7.014,7.0512,7.0659,7.0794,7.085,7.0973,7.1075,7.1627,7.2312,7.2938,7.358,7.4104,7.4558,7.533,7.5908,7.6003,7.681,7.7524,7.7745,7.7892,7.8038,7.8259,7.8369,7.8626,7.8846,7.8956,7.9176,7.9323,7.947,7.8993,7.8589,7.8321,7.8063,7.7451,7.7341,7.7341,7.7341,7.7341,7.7341,7.7341,7.7341,7.7268,7.7268,7.7341,7.7341,7.7341,7.7341,7.7341,7.7341,7.7341,7.7671,6.759,6.7929,6.8335,6.8944,6.9586,6.9654,6.9654,6.9722,7.006,7.0026,6.9925,7.006,7.0263,7.0208,7.0263,7.0229,7.0195,7.0263,7.0263,7.0263,7.0263,7.0229,7.0195,7.0195,7.0229,7.0229,7.0229,6.9755,6.918,6.9045,6.918,6.9079,6.9079,6.9079,6.9079,6.9045,6.9147,6.9147,6.9147,6.9147,6.9147,6.9147,6.9113,6.9113,6.9113,6.9079,6.918,6.9553,6.9674,6.9708,7.008,7.0208,7.0242,7.0107,6.9857,6.9401,6.9499,6.964,6.9803,6.9964,7.0317,7.0288,7.0591,7.0726,7.0884,7.1053,7.1515,7.1785,7.1875,7.2011,7.2384,7.2672,7.3031,7.3833,7.4457,7.4879,7.5555,7.6732,7.6876,7.6802,7.7844,7.8473,7.8761,7.8872,7.8908,7.8993,7.914,7.9507,7.9874,7.98,7.98,7.9727,7.9617,7.8993,7.8552,7.8332,7.8137,7.7598,7.7341,7.7341,7.7341,7.7341,7.7341,7.7341,7.7341,7.7341,7.7341,7.7341,7.7341,7.7341,7.7341,7.7341,7.7341,7.7451,7.7708,6.8064,6.8402,6.9045,6.9722,7.0364,7.0432,7.0297,7.0331,7.077,7.049,7.0164,7.0681,7.1007,7.1053,7.121,7.1244,7.1312,7.1244,7.1176,7.1176,7.1176,7.1244,7.1278,7.1312,7.1176,7.1041,7.1109,7.0703,6.9958,6.9722,6.962,6.9722,6.962,6.9553,6.9654,6.9789,6.9553,6.9553,6.9553,6.9553,6.9553,6.9553,6.9553,6.9553,6.9553,6.962,6.9789,7.0161,7.0419,7.0554,7.0893,7.1244,7.1278,7.1312,7.076,7.0041,7.0266,7.0343,7.0588,7.0825,7.1041,7.1053,7.1244,7.1379,7.1593,7.1762,7.209,7.2462,7.2621,7.2779,7.3186,7.3413,7.3856,7.4559,7.5183,7.5533,7.5803,7.6311,7.6693,7.7236,7.8618,7.9128,7.9105,7.9386,7.9349,7.9323,7.9507,7.9847,8.0103,7.9874,7.9764,7.9653,7.936,7.8736,7.8332,7.8148,7.7855,7.7488,7.7341,7.7341,7.7341,7.7341,7.7341,7.7341,7.7341,7.7341,7.7341,7.7341,7.7341,7.7341,7.7341,7.7341,7.7341,7.7378,7.7598,6.8707,6.9925,7.0026,7.05,7.1109,7.1142,7.077,7.0229,7.0364,6.9917,6.9502,7.0018,7.0445,7.0558,7.1053,7.1278,7.1312,7.1312,7.1312,7.1312,7.1312,7.1312,7.1312,7.1312,7.1312,7.1312,7.1312,7.1278,7.0838,7.0838,7.0939,7.0872,7.0804,7.0973,7.0737,7.0703,7.1041,7.1007,7.0973,7.0939,7.0939,7.0906,7.0906,7.0939,7.0906,7.0838,7.077,7.0973,7.1007,7.1075,7.1176,7.1312,7.1312,7.1312,7.1672,7.1672,7.1604,7.121,7.1142,7.1244,7.1312,7.1312,7.1312,7.1661,7.2076,7.2776,7.3172,7.3308,7.3341,7.3501,7.4034,7.4916,7.5412,7.5448,7.5561,7.513,7.5066,7.5705,7.608,7.627,7.7155,7.8382,7.9002,7.9434,7.9753,7.9827,7.9874,8.0277,8.0287,7.9984,7.9543,7.9396,7.925,7.8662,7.8075,7.7892,7.7745,7.7414,7.7378,7.7341,7.7341,7.7341,7.7341,7.7341,7.7341,7.7341,7.7341,7.7341,7.7341,7.7341,7.7341,7.7341,7.7341,7.7414,7.7488,6.9586,7.0229,7.0635,7.1007,7.1278,7.1312,7.0906,7.0398,7.0635,7.0385,6.9964,7.05,7.0816,7.0918,7.1244,7.1312,7.1312,7.1312,7.1312,7.1312,7.1312,7.1312,7.1312,7.1312,7.1312,7.1312,7.1312,7.1312,7.1312,7.1312,7.1312,7.1312,7.1312,7.1244,7.1312,7.1312,7.1278,7.1278,7.1278,7.1312,7.1312,7.1312,7.1312,7.1312,7.1312,7.1312,7.1312,7.1312,7.1312,7.1312,7.1312,7.1312,7.1312,7.1312,7.1447,7.1638,7.1447,7.1447,7.1774,7.1481,7.1345,7.1312,7.1323,7.1637,7.2431,7.346,7.4119,7.4119,7.4127,7.4229,7.4348,7.4704,7.4752,7.4953,7.5292,7.4738,7.4291,7.4956,7.537,7.5487,7.572,7.7103,7.8422,7.9257,7.9544,7.9526,7.9773,8.0304,8.0268,7.99,7.9496,7.9029,7.8846,7.8626,7.8002,7.7598,7.7708,7.7488,7.7451,7.7414,7.7341,7.7341,7.7524,7.7451,7.7378,7.7341,7.7341,7.7341,7.7341,7.7341,7.7341,7.7341,7.7341,7.7341,7.7414,7.0466,7.0534,7.1075,7.1312,7.1312,7.1312,7.0872,7.0297,7.0737,7.0541,7.024,7.0622,7.1053,7.1278,7.1312,7.1312,7.1312,7.1312,7.1312,7.1312,7.1312,7.1312,7.1312,7.1312,7.1312,7.1312,7.1312,7.1312,7.1312,7.1312,7.1312,7.1312,7.1312,7.1312,7.1312,7.1312,7.1312,7.1312,7.1312,7.1312,7.1312,7.1312,7.1312,7.1312,7.1312,7.1312,7.1312,7.1312,7.1312,7.1312,7.1312,7.1312,7.1312,7.1312,7.1481,7.1638,7.1481,7.1672,7.1842,7.174,7.1379,7.1413,7.1853,7.2312,7.2781,7.3973,7.4864,7.4864,7.4871,7.5175,7.5364,7.4728,7.4684,7.465,7.4422,7.3932,7.3661,7.4233,7.4654,7.4654,7.51,7.6012,7.7382,7.8674,7.9226,7.9267,7.9709,8.0231,8.0157,7.9863,7.968,7.9286,7.914,7.9029,7.8662,7.8112,7.7928,7.7781,7.7781,7.7892,7.8075,7.8112,7.8222,7.8002,7.7671,7.7451,7.7488,7.7414,7.7341,7.7341,7.7341,7.7341,7.7341,7.7378,7.7414,7.1244,7.1244,7.1278,7.1312,7.1312,7.1312,7.0906,7.0297,7.0331,7.006,6.9654,7.0018,7.0884,7.112,7.1312,7.1312,7.1312,7.1312,7.1312,7.1312,7.1312,7.1312,7.1312,7.1312,7.1312,7.1312,7.1312,7.1312,7.1312,7.1312,7.1312,7.1312,7.1312,7.1312,7.1312,7.1312,7.1312,7.1312,7.1312,7.1312,7.1312,7.1312,7.1312,7.1312,7.1312,7.1312,7.1312,7.1312,7.1312,7.1312,7.1312,7.1312,7.1312,7.1312,7.1481,7.174,7.1481,7.1672,7.1842,7.1706,7.1379,7.1684,7.2394,7.3055,7.3251,7.468,7.5506,7.5473,7.5377,7.554,7.5696,7.5671,7.5126,7.467,7.4339,7.4,7.3671,7.3569,7.3889,7.3889,7.4405,7.5241,7.6117,7.7388,7.8819,7.8958,7.9507,8.0094,8.0231,8.0047,8.0047,7.9863,7.969,7.968,7.9643,7.9312,7.8982,7.8908,7.8908,7.9129,7.9323,7.925,7.8883,7.8736,7.8442,7.8038,7.7708,7.7965,7.7965,7.7524,7.7341,7.7414,7.7671,7.7892,7.7818,7.1312,7.1312,7.1312,7.1312,7.1312,7.1312,7.1142,7.0906,7.0872,7.077,7.0411,7.0782,7.1019,7.1278,7.1312,7.1312,7.1312,7.1312,7.1312,7.1312,7.1312,7.1312,7.1312,7.1312,7.1312,7.1312,7.1312,7.1312,7.1312,7.1312,7.1312,7.1312,7.1312,7.1312,7.1312,7.1312,7.1312,7.1312,7.1312,7.1312,7.1312,7.1312,7.1312,7.1312,7.1312,7.1312,7.1312,7.1312,7.1312,7.1312,7.1312,7.1312,7.1312,7.1312,7.1481,7.1808,7.1481,7.1582,7.1774,7.1515,7.1312,7.1582,7.2563,7.3553,7.3648,7.4877,7.5574,7.5676,7.5676,7.5676,7.5737,7.5425,7.4856,7.4653,7.4348,7.4009,7.3874,7.3747,7.3781,7.416,7.4162,7.4439,7.5188,7.6105,7.7476,7.8705,7.9344,7.9893,8.0076,8.0314,8.0451,8.0451,8.0277,8.0131,8.0157,8.001,7.9863,7.9937,7.9974,8.0121,8.0167,7.9764,7.947,7.936,7.9323,7.9066,7.8883,7.8883,7.8589,7.8002,7.7708,7.7561,7.7892,7.8405,7.8442,7.1312,7.1312,7.1312,7.1312,7.1312,7.1312,7.1312,7.1312,7.1278,7.1312,7.1312,7.1312,7.1312,7.1312,7.1312,7.1312,7.1312,7.1312,7.1312,7.1312,7.1312,7.1312,7.1312,7.1312,7.1312,7.1312,7.1312,7.1312,7.1312,7.1312,7.1312,7.1312,7.1312,7.1312,7.1312,7.1312,7.1312,7.1312,7.1312,7.1312,7.1312,7.1312,7.1312,7.1312,7.1312,7.1312,7.1312,7.1312,7.1312,7.1312,7.1312,7.1312,7.1312,7.1345,7.1447,7.1582,7.165,7.1718,7.183,7.1684,7.1774,7.2271,7.3095,7.3756,7.4141,7.4944,7.5642,7.5676,7.5676,7.5676,7.5642,7.5168,7.4796,7.4525,7.439,7.4213,7.4348,7.4255,7.4356,7.4517,7.4741,7.5303,7.5824,7.6795,7.7368,7.8645,7.9605,8.0047,8.0344,8.0582,8.0975,8.0938,8.0865,8.0718,8.0571,8.0718,8.0901,8.1039,8.1039,8.0828,8.0791,8.0424,8.0241,8.014,8.0103,8.003,7.9837,7.947,7.8956,7.8405,7.8332,7.8479,7.8673,7.915,7.9333,7.1312,7.1312,7.1312,7.1312,7.1312,7.1312,7.1312,7.1312,7.1312,7.1312,7.1312,7.1312,7.1312,7.1312,7.1312,7.1312,7.1312,7.1312,7.1312,7.1312,7.1312,7.1312,7.1312,7.1312,7.1312,7.1312,7.1312,7.1312,7.1312,7.1481,7.1447,7.1515,7.1616,7.1481,7.1345,7.1345,7.1345,7.1312,7.1345,7.1515,7.1481,7.1548,7.165,7.1684,7.1684,7.1751,7.1751,7.1751,7.1751,7.174,7.1706,7.174,7.1684,7.165,7.1887,7.236,7.2394,7.2674,7.3223,7.2722,7.2768,7.313,7.3855,7.4322,7.4641,7.5242,7.5676,7.5676,7.5676,7.5676,7.5439,7.5134,7.4864,7.4728,7.4627,7.4593,7.4728,7.483,7.4931,7.4965,7.6175,7.7181,7.749,7.784,7.7767,7.8603,7.972,8.0252,8.0511,8.0757,8.1124,8.1489,8.1415,8.1452,8.1415,8.1782,8.1966,8.2039,8.1893,8.1599,8.1599,8.1525,8.1277,8.1094,8.0947,8.0901,8.0424,7.991,7.98,7.9764,7.9617,7.969,7.9746,7.9966,8.0287,7.1312,7.1312,7.1312,7.1312,7.1312,7.1312,7.1312,7.1312,7.1312,7.1312,7.1312,7.1312,7.1312,7.1312,7.1312,7.1312,7.1312,7.1312,7.1312,7.1312,7.1312,7.1312,7.1312,7.1312,7.1312,7.1312,7.1312,7.1379,7.1312,7.1751,7.2022,7.209,7.2293,7.2157,7.1751,7.1616,7.1887,7.1616,7.209,7.2597,7.2191,7.2428,7.2665,7.2665,7.2631,7.2631,7.2597,7.2563,7.2587,7.2542,7.2598,7.2576,7.2563,7.2631,7.2766,7.3071,7.3163,7.3477,7.3984,7.3932,7.3708,7.3912,7.4204,7.4634,7.4647,7.5276,7.5608,7.5676,7.5676,7.5676,7.5574,7.5506,7.5371,7.5405,7.5337,7.5337,7.5405,7.5439,7.5506,7.5473,7.6197,7.6485,7.6734,7.7559,7.7805,7.8013,7.8976,7.9927,8.0292,8.0587,8.1012,8.1732,8.1966,8.2076,8.2186,8.2186,8.2186,8.2113,8.2113,8.2039,8.2113,8.2186,8.2039,8.1607,8.1709,8.1672,8.1269,8.0975,8.1305,8.1342,8.0901,8.0608,8.0645,8.0947,8.1525,7.1312,7.1312,7.1312,7.1312,7.1312,7.1312,7.1312,7.1312,7.1312,7.1312,7.1312,7.1312,7.1312,7.1312,7.1312,7.1312,7.1312,7.1312,7.1312,7.1312,7.1312,7.1312,7.1312,7.1312,7.1312,7.1379,7.1616,7.1718,7.1785,7.2462,7.2732,7.2902,7.324,7.2868,7.2462,7.2529,7.2597,7.2496,7.2969,7.3172,7.3003,7.3138,7.3375,7.3375,7.3375,7.3409,7.3443,7.3443,7.3501,7.3549,7.3515,7.3492,7.351,7.3553,7.3587,7.3747,7.4246,7.4458,7.489,7.4958,7.4678,7.4534,7.4796,7.4911,7.4978,7.5411,7.5642,7.5676,7.5676,7.5709,7.5743,7.5743,7.5777,7.5777,7.5811,7.5811,7.5777,7.5845,7.6076,7.6042,7.6149,7.6217,7.6352,7.6914,7.765,7.7892,7.8245,7.9126,8.0191,8.069,8.1165,8.197,8.237,8.2333,8.2296,8.2186,8.2186,8.2186,8.2296,8.2406,8.2186,8.2186,8.2186,8.2186,8.2113,8.2076,8.2113,8.2113,8.2113,8.2003,8.1672,8.1489,8.148,8.1746,8.226,7.1312,7.1312,7.1312,7.1312,7.1312,7.1312,7.1312,7.1312,7.1312,7.1312,7.1312,7.1312,7.1312,7.1312,7.1312,7.1312,7.1312,7.1312,7.1312,7.1312,7.1312,7.1312,7.1345,7.1413,7.1548,7.1718,7.1988,7.2428,7.2529,7.3172,7.351,7.3646,7.3883,7.3747,7.368,7.3646,7.351,7.3341,7.3646,7.3781,7.368,7.3713,7.395,7.3984,7.395,7.395,7.3916,7.3883,7.3883,7.3815,7.3747,7.3654,7.3662,7.3609,7.4006,7.46,7.527,7.5405,7.5506,7.5473,7.5473,7.5296,7.5608,7.5743,7.5642,7.5642,7.5676,7.5676,7.5676,7.5777,7.5811,7.5912,7.598,7.6014,7.6082,7.6082,7.6048,7.6149,7.6448,7.6617,7.686,7.7063,7.7401,7.7816,7.7887,7.7938,7.8245,7.8784,7.9799,8.1008,8.1635,8.2581,8.2774,8.2553,8.2517,8.2774,8.2884,8.3104,8.2847,8.2847,8.2553,8.2517,8.2847,8.292,8.2553,8.2517,8.2884,8.281,8.259,8.248,8.2627,8.215,8.2003,8.2186,8.2553,7.1312,7.1312,7.1312,7.1312,7.1312,7.1312,7.1312,7.1312,7.1312,7.1312,7.1312,7.1312,7.1312,7.1312,7.1312,7.1312,7.1312,7.1312,7.1312,7.1312,7.1312,7.1312,7.1481,7.1785,7.1988,7.2326,7.2732,7.3172,7.3341,7.3916,7.4627,7.4999,7.483,7.4897,7.4931,7.5033,7.439,7.4086,7.4458,7.4525,7.4525,7.4661,7.4796,7.4864,7.483,7.483,7.4864,7.4864,7.4931,7.4999,7.5033,7.5067,7.5039,7.5107,7.5242,7.5337,7.5574,7.5676,7.5676,7.5709,7.5743,7.598,7.6222,7.6121,7.5884,7.5811,7.5845,7.6008,7.6014,7.6149,7.642,7.6555,7.669,7.6826,7.6893,7.6961,7.6927,7.6961,7.7261,7.7498,7.7705,7.7976,7.8314,7.8247,7.8269,7.8239,7.8394,7.9028,7.9566,8.0714,8.1626,8.2572,8.3234,8.302,8.3588,8.3845,8.3948,8.3985,8.3691,8.3544,8.3654,8.3691,8.3801,8.3728,8.3471,8.3581,8.4015,8.3794,8.3398,8.3765,8.3911,8.3177,8.27,8.292,8.3067,7.1142,7.0872,7.0872,7.0872,7.0906,7.1176,7.1312,7.1312,7.1312,7.1312,7.1312,7.1312,7.1312,7.1312,7.1312,7.1312,7.1312,7.1312,7.1312,7.1312,7.1345,7.1582,7.1853,7.2191,7.2529,7.2969,7.3477,7.395,7.4119,7.4627,7.5337,7.554,7.5676,7.5676,7.5608,7.5473,7.5202,7.4999,7.5067,7.5303,7.5405,7.5439,7.5608,7.5676,7.5676,7.5676,7.5676,7.5676,7.5676,7.5676,7.5676,7.5676,7.5676,7.5676,7.5676,7.5642,7.5676,7.5974,7.6143,7.6211,7.6374,7.6584,7.7029,7.6995,7.6922,7.6849,7.6781,7.6781,7.6719,7.6821,7.7063,7.7333,7.757,7.7905,7.7908,7.7911,7.7976,7.7942,7.8111,7.8447,7.8684,7.8855,7.8957,7.8824,7.8957,7.9291,7.9746,8.0337,8.0338,8.0543,8.1236,8.2009,8.2939,8.348,8.4092,8.4589,8.4646,8.4535,8.4315,8.4278,8.4609,8.4572,8.4389,8.4425,8.4462,8.4572,8.4676,8.4499,8.4352,8.4682,8.4792,8.4168,8.3728,8.3765,8.3875,7.0872,7.0229,7.0195,7.0297,7.0398,7.1041,7.1312,7.1312,7.1312,7.1312,7.1312,7.1312,7.1312,7.1312,7.1312,7.1312,7.1312,7.1312,7.1447,7.1413,7.1548,7.1853,7.236,7.2631,7.3206,7.3713,7.4221,7.4695,7.4864,7.5236,7.554,7.5676,7.5676,7.5676,7.5676,7.5676,7.5506,7.5473,7.5473,7.5608,7.5642,7.5676,7.5676,7.5676,7.5676,7.5676,7.5676,7.5676,7.5676,7.5676,7.5676,7.5676,7.5676,7.5676,7.5676,7.5879,7.5946,7.6347,7.6747,7.6917,7.7256,7.7595,7.8036,7.8006,7.7905,7.7629,7.7493,7.7498,7.7371,7.7604,7.7874,7.8077,7.828,7.8551,7.8754,7.8822,7.8822,7.8822,7.8923,7.9126,7.9363,7.96,7.9634,7.96,7.9532,8.0071,8.0467,8.1008,8.0983,8.0501,8.1139,8.1757,8.3128,8.41,8.4246,8.4717,8.5023,8.5013,8.4976,8.5086,8.5453,8.5233,8.4866,8.5159,8.549,8.5196,8.5123,8.5196,8.5306,8.527,8.527,8.5013,8.4829,8.4829,8.4719,7.0872,7.0195,7.0195,7.05,7.1007,7.1244,7.1312,7.1312,7.1312,7.1312,7.1312,7.1312,7.1312,7.1312,7.1312,7.1312,7.1312,7.1481,7.1684,7.1954,7.209,7.2529,7.3206,7.3612,7.4052,7.4492,7.4965,7.5337,7.5405,7.5574,7.5676,7.5676,7.5676,7.5676,7.5676,7.5676,7.5676,7.5676,7.5811,7.5845,7.5845,7.5743,7.5676,7.5709,7.5743,7.5811,7.5845,7.5811,7.5743,7.5676,7.5676,7.5676,7.5676,7.5709,7.6042,7.6476,7.6589,7.7024,7.7522,7.7731,7.7938,7.8182,7.8487,7.8756,7.8655,7.828,7.8077,7.8049,7.8184,7.8452,7.8686,7.8822,7.8957,7.9261,7.9532,7.9566,7.96,7.9634,7.9667,7.9837,8.0073,8.0141,8.0175,8.0209,8.0209,8.0175,8.0242,8.0474,8.0539,8.0355,8.1286,8.212,8.3924,8.4773,8.4777,8.5191,8.5687,8.604,8.6114,8.6224,8.6297,8.6114,8.5894,8.6297,8.6518,8.6114,8.604,8.6407,8.6444,8.6151,8.604,8.5894,8.604,8.6114,8.5857,7.0094,6.9722,6.9722,7.0128,7.0804,7.1176,7.1312,7.1312,7.1312,7.1312,7.1312,7.1312,7.1312,7.1312,7.1312,7.1345,7.1413,7.1684,7.1988,7.2326,7.2868,7.3341,7.395,7.4458,7.4762,7.5134,7.5405,7.5642,7.5676,7.5676,7.5676,7.5676,7.5676,7.5709,7.5709,7.5709,7.5743,7.5709,7.6048,7.6217,7.6183,7.6014,7.6014,7.6014,7.6251,7.6318,7.6657,7.6724,7.6724,7.6724,7.6792,7.6792,7.6888,7.6849,7.6951,7.7193,7.7468,7.7742,7.8243,7.848,7.8653,7.8926,7.923,7.9533,7.9567,7.9228,7.9228,7.9263,7.9263,7.9498,7.9498,7.96,7.9634,7.9837,7.9904,7.9938,7.9938,7.9972,7.9972,8.004,8.0175,8.0175,8.0209,8.0209,8.0209,8.0209,8.0175,8.0175,8.0209,8.0276,8.1125,8.2152,8.367,8.4888,8.5098,8.5736,8.6563,8.6921,8.6822,8.6885,8.6664,8.6848,8.6995,8.6958,8.6921,8.6885,8.6921,8.7031,8.7031,8.6701,8.6738,8.6848,8.7031,8.7031,8.6738,6.9214,6.9214,6.9147,6.9586,7.0364,7.1041,7.1312,7.1312,7.1312,7.1312,7.1312,7.1312,7.1312,7.1312,7.1312,7.1379,7.1582,7.1988,7.2326,7.2935,7.3409,7.4052,7.4492,7.4864,7.5202,7.5439,7.5642,7.5676,7.5676,7.5676,7.5676,7.5676,7.5709,7.5743,7.5811,7.5879,7.6014,7.6352,7.669,7.7029,7.6792,7.6454,7.6623,7.686,7.7096,7.7401,7.7773,7.7976,7.7942,7.7874,7.7739,7.7675,7.7705,7.76,7.7866,7.804,7.8116,7.8488,7.9094,7.9259,7.9632,7.9904,8.0141,8.0175,8.0175,8.0141,8.0107,8.0107,8.0107,8.0107,8.0107,8.0141,8.0175,8.0175,8.0209,8.0209,8.0209,8.0209,8.0209,8.0209,8.0209,8.0209,8.0209,8.0209,8.0209,8.0209,8.0209,8.0209,8.0209,8.0376,8.0804,8.1569,8.2661,8.379,8.4577,8.5427,8.6101,8.6098,8.5873,8.6501,8.6925,8.7031,8.7031,8.7031,8.7031,8.6962,8.7031,8.7031,8.7031,8.7142,8.7031,8.7031,8.7031,8.7031,8.7142,6.9451,6.9925,6.935,6.9857,7.1007,7.1244,7.1312,7.1312,7.1312,7.1312,7.1312,7.1312,7.1312,7.1312,7.1312,7.1515,7.2056,7.2428,7.3341,7.4153,7.4255,7.483,7.5236,7.527,7.5506,7.5642,7.5676,7.5676,7.5676,7.5676,7.5709,7.5777,7.5743,7.6048,7.6657,7.6724,7.686,7.7164,7.7468,7.7841,7.781,7.7607,7.7671,7.7773,7.7807,7.7874,7.7976,7.7976,7.7976,7.7976,7.8111,7.8215,7.8249,7.8314,7.8514,7.8785,7.8892,7.9196,7.9567,7.9769,8.0073,8.0073,8.0209,8.0209,8.0175,8.0175,8.0175,8.0175,8.0175,8.0175,8.0175,8.0175,8.0209,8.0209,8.0209,8.0209,8.0209,8.0209,8.0209,8.0209,8.0209,8.0209,8.0209,8.0209,8.0209,8.0209,8.0209,8.0209,8.0209,8.0376,8.0476,8.116,8.1851,8.2035,8.2612,8.3887,8.4604,8.4738,8.5096,8.5917,8.6532,8.6925,8.7031,8.7031,8.6962,8.6892,8.6962,8.7252,8.7325,8.7399,8.7142,8.7031,8.7105,8.7325,8.7655]},{"header":{"parameterUnit":"m.s-1","parameterCategory":1,"la1":31.0,"la2":29.5877,"lo1":-88.7671,"lo2":-86.6584,"dy":0.0162,"dx":0.0185,"nx":115,"ny":88,"refTime":"2026-05-02T00:00:00:Z","depth":0,"parameterNumber":3,"parameterNumberName":"V-component_of_WINDS"},"data":[0.0,0.0,0.0,0.0,0.0,0.0,0.0,0.0,0.0,0.0,0.0,0.0,0.0,0.0,0.0,0.0,0.0,0.0,0.0,0.0,0.0,0.0,0.0,0.0,0.0,0.0,0.0,0.0,0.0,0.0,0.0,0.0,0.0,0.0,0.0,0.0,0.0,0.0,0.0,0.0,0.0,0.0,0.0,0.0,0.0,0.0,0.0,0.0,0.0,0.0,0.0,0.0,0.0,0.0,0.0,0.0,0.0,0.0,0.0,0.0,0.0,0.0,0.0,0.0,0.0,0.0,0.0,0.0,0.0,0.0,0.0,0.0,0.0,0.0,0.0,0.0,0.0,0.0,0.0,0.0,0.0,0.0,0.0,0.0,0.0,0.0,0.0,0.0,0.0,0.0,0.0,0.0,0.0,0.0,0.0,0.0,0.0,0.0,0.0,0.0,0.0,0.0,0.0,0.0,0.0,0.0,0.0,0.0,0.0,0.0,0.0,0.0,0.0,0.0,0.0,0.0,0.0,0.0,0.0,0.0,0.0,0.0,0.0,0.0,0.0,0.0,0.0,0.0,0.0,0.0,0.0,0.0,0.0,0.0,0.0,0.0,0.0,0.0,0.0,0.0,0.0,0.0,0.0,0.0,0.0,0.0,0.0,0.0,0.0,0.0,0.0,0.0,0.0,0.0,0.0,0.0,0.0,0.0,0.0,0.0,0.0,0.0,0.0,0.0,0.0,0.0,0.0,0.0,0.0,0.0,0.0,0.0,0.0,0.0,0.0,0.0,0.0,0.0,0.0,0.0,0.0,0.0,0.0,0.0,0.0,0.0,0.0,0.0,0.0,0.0,0.0,0.0,0.0,0.0,0.0,0.0,0.0,0.0,0.0,0.0,0.0,0.0,0.0,0.0,0.0,0.0,0.0,0.0,0.0,0.0,0.0,0.0,0.0,0.0,0.0,0.0,0.0,0.0,0.0,0.0,0.0,0.0,0.0,0.0,0.0,0.0,0.0,0.0,0.0,0.0,0.0,0.0,0.0,0.0,0.0,0.0,0.0,0.0,0.0,0.0,0.0,0.0,0.0,0.0,0.0,0.0,0.0,0.0,0.0,0.0,0.0,0.0,0.0,0.0,0.0,0.0,0.0,0.0,0.0,0.0,0.0,0.0,0.0,0.0,0.0,0.0,0.0,0.0,0.0,0.0,0.0,0.0,0.0,0.0,0.0,0.0,0.0,0.0,0.0,0.0,0.0,0.0,0.0,0.0,0.0,0.0,0.0,0.0,0.0,0.0,0.0,0.0,0.0,0.0,0.0,0.0,0.0,0.0,0.0,0.0,0.0,0.0,0.0,0.0,0.0,0.0,0.0,0.0,0.0,0.0,0.0,0.0,0.0,0.0,0.0,0.0,0.0,0.0,0.0,0.0,0.0,0.0,0.0,0.0,0.0,0.0,0.0,0.0,0.0,0.0,0.0,0.0,0.0,0.0,0.0,0.0,0.0,0.0,0.0,0.0,0.0,0.0,0.0,0.0,0.0,0.0,0.0,0.0,0.0,0.0,0.0,0.0,0.0,0.0,0.0,0.0,0.0,0.0,0.0,0.0,0.0,0.0,0.0,0.0,0.0,0.0,0.0,0.0,0.0,0.0,0.0,0.0,0.0,0.0,0.0,0.0,0.0,0.0,0.0,0.0,0.0,0.0,0.0,0.0,0.0,0.0,0.0,0.0,0.0,0.0,0.0,0.0,0.0,0.0,0.0,0.0,0.0,0.0,0.0,0.0,0.0,0.0,0.0,0.0,0.0,0.0,0.0,0.0,0.0,0.0,0.0,0.0,0.0,0.0,0.0,0.0,0.0,0.0,0.0,0.0,0.0,0.0,0.0,0.0,0.0,0.0,0.0,0.0,0.0,0.0,0.0,0.0,0.0,0.0,0.0,0.0,0.0,0.0,0.0,0.0,0.0,0.0,0.0,0.0,0.0,0.0,0.0,0.0,0.0,0.0,0.0,0.0,0.0,0.0,0.0,0.0,0.0,0.0,0.0,0.0,0.0,0.0,0.0,0.0,0.0,0.0,0.0,0.0,0.0,0.0,0.0,0.0,0.0,0.0,0.0,0.0,0.0,0.0,0.0,0.0,0.0,0.0,0.0,0.0,0.0,0.0,0.0,0.0,0.0,0.0,0.0,0.0,0.0,0.0,0.0,0.0,0.0,0.0,0.0,0.0,0.0,0.0,0.0,0.0,0.0,0.0,0.0,0.0,0.0,0.0,0.0,0.0,0.0,0.0,0.0,0.0,0.0,0.0,0.0,0.0,0.0,0.0,0.0,0.0,0.0,0.0,0.0,0.0,0.0,0.0,0.0,0.0,0.0,0.0,0.0,0.0,0.0,0.0,0.0,0.0,0.0,0.0,0.0,0.0,0.0,0.0,0.0,0.0,0.0,0.0,0.0,0.0,0.0,0.0,0.0,0.0,0.0,0.0,0.0,0.0,0.0,0.0,0.0,0.0,0.0,0.0,0.0,0.0,0.0,0.0,0.0,0.0,0.0,0.0,0.0,0.0,0.0,0.0,0.0,0.0,0.0,0.0,0.0,0.0,0.0,0.0,0.0,0.0,0.0,0.0,0.0,0.0,0.0,0.0,0.0,0.0,0.0,0.0,0.0,0.0,0.0,0.0,0.0,0.0,0.0,0.0,0.0,0.0,0.0,0.0,0.0,0.0,0.0,0.0,0.0,0.0,0.0,0.0,0.0,0.0,0.0,0.0,0.0,0.0,0.0,0.0,0.0,0.0,0.0,0.0,0.0,0.0,0.0,0.0,0.0,0.0,0.0,0.0,0.0,0.0,0.0,0.0,0.0,0.0,0.0,0.0,0.0,0.0,0.0,0.0,0.0,0.0,0.0,0.0,0.0,0.0,0.0,0.0,0.0,0.0,0.0,0.0,0.0,0.0,0.0,0.0,0.0,0.0,0.0,0.0,0.0,0.0,0.0,0.0,0.0,0.0,0.0,0.0,0.0,0.0,0.0,0.0,0.0,0.0,0.0,0.0,0.0,0.0,0.0,0.0,0.0,0.0,0.0,0.0,0.0,0.0,0.0,0.0,0.0,0.0,0.0,0.0,0.0,0.0,0.0,0.0,0.0,0.0,0.0,0.0,0.0,0.0,0.0,0.0,0.0,0.0,0.0,0.0,0.0,0.0,0.0,0.0,0.0,0.0,0.0,0.0,0.0,0.0,0.0,0.0,0.0,0.0,0.0,0.0,0.0,0.0,0.0,0.0,0.0,0.0,0.0,0.0,0.0,0.0,0.0,0.0,0.0,0.0,0.0,0.0,0.0,0.0,0.0,0.0,0.0,0.0,0.0,0.0,0.0,0.0,0.0,0.0,0.0,0.0,0.0,0.0,0.0,0.0,0.0,0.0,0.0,0.0,0.0,0.0,0.0,0.0,0.0,0.0,0.0,0.0,0.0,0.0,0.0,0.0,0.0,0.0,0.0,0.0,0.0,0.0,0.0,0.0,0.0,0.0,0.0,0.0,0.0,0.0,0.0,0.0,0.0,0.0,0.0,0.0,0.0,0.0,0.0,0.0,0.0,0.0,0.0,0.0,0.0,0.0,0.0,0.0,0.0,0.0,0.0,0.0,0.0,0.0,0.0,0.0,0.0,0.0,0.0,0.0,0.0,0.0,0.0,0.0,0.0,0.0,0.0,0.0,0.0,0.0,0.0,0.0,0.0,0.0,0.0,0.0,0.0,0.0,0.0,0.0,0.0,0.0,0.0,0.0,0.0,0.0,0.0,0.0,0.0,0.0,0.0,0.0,0.0,0.0,0.0,0.0,0.0,0.0,0.0,0.0,0.0,0.0,0.0,0.0,0.0,0.0,0.0,0.0,0.0,0.0,0.0,0.0,0.0,0.0,0.0,0.0,0.0,0.0,0.0,0.0,0.0,0.0,0.0,0.0,0.0,0.0,0.0,0.0,0.0,0.0,0.0,0.0,0.0,0.0,0.0,0.0,0.0,0.0,0.0,0.0,0.0,0.0,0.0,0.0,0.0,0.0,0.0,0.0,0.0,0.0,0.0,0.0,0.0,0.0,0.0,0.0,0.0,0.0,0.0,0.0,0.0,0.0,0.0,0.0,0.0,0.0,0.0,0.0,0.0,0.0,0.0,0.0,0.0,0.0,0.0,0.0,0.0,0.0,0.0,0.0,0.0,0.0,0.0,0.0,0.0,0.0,0.0,0.0,0.0,0.0,0.0,0.0,0.0,0.0,0.0,0.0,0.0,0.0,0.2652,0.0,0.0,0.0,0.0,0.0,0.0,0.0,0.0,0.0,0.0,0.0,0.0,0.0,0.0,0.0,0.0,0.0,0.0,0.0,0.0,0.0,0.0,0.0,0.0,0.0,0.0,0.0,0.0,0.0,0.0,0.0,0.0,0.0,0.0,0.0,0.0,0.0,0.0,0.0,0.0,0.0,0.0,0.0,0.0,0.0,0.0,0.0,0.0,0.0,0.0,0.0,0.0,0.0,0.0,0.0,0.0,0.0,0.0,0.0,0.0,0.0,0.0,0.0,0.0,0.0,0.0,0.0,0.0,0.0,0.0,0.0,0.0,0.0,0.0,0.0,0.0,0.0,0.0,0.0,0.0,0.0,0.0,0.0,0.0,0.0,0.0,0.0,0.0,0.0,0.0,0.0,0.0,0.0,0.0,0.0,0.0,0.0,0.0,0.0,0.0,0.0,0.0,0.0,0.0,0.0,0.0,0.0,0.0,0.0,0.0,-0.0468,0.1238,0.2214,0.2693,0.2686,0.0,0.0,0.0,0.0,0.0,0.0,0.0,0.0,0.0,0.0,0.0,0.0,0.0,0.0,0.0,0.0,0.0,0.0,0.0,0.0,0.0,0.0,0.0,0.0,0.0,0.0,0.0,0.0,0.0,0.0,0.0,0.0,0.0,0.0,0.0,0.0,0.0,0.0,0.0,0.0,0.0,0.0,0.0,0.0,0.0,0.0,0.0,0.0,0.0,0.0,0.0,0.0,0.0,0.0,0.0,0.0,0.0,0.0,0.0,0.0,0.0,0.0,0.0,0.0,0.0,0.0,0.0,0.0,0.0,0.0,0.0,0.0,0.0,0.0,0.0,0.0,0.0,0.0,0.0,0.0,0.0,0.0,0.0,0.0,0.0,0.0,0.0,0.0,0.0,0.0,0.0,0.0,0.0,0.0,0.0,0.0,0.0,0.0,0.0,0.0,0.0,0.0,0.0,0.0,0.0,0.0,0.0,0.0,0.0,0.0,0.0,0.0,0.2518,0.2898,0.2829,0.0,0.0,0.0,0.0,0.0,0.0,0.0,0.0,0.0,0.0,0.0,0.0,0.0,0.0,0.0,0.0,0.0,0.0,0.0,0.0,0.0,0.0,0.0,0.0,0.0,0.0,0.0,0.0,0.0,0.0,0.0,0.0,0.0,0.0,0.0,0.0,0.0,0.0,0.0,0.0,0.0,0.0,0.0,0.0,0.0,0.0,0.0,0.0,0.0,0.0,0.0,0.0,0.0,0.0,0.0,0.0,0.0,0.0,0.0,0.0,0.0,0.0,0.0,0.0,0.0,0.0,0.0,0.0,0.0,0.0,0.0,0.0,0.0,0.0,0.0,0.0,0.0,0.0,0.0,0.0,0.0,0.0,0.0,0.0,0.0,0.0,0.0,0.0,0.0,0.0,0.0,0.0,0.0,0.0,0.0,0.0,0.0,0.0,0.0,0.0,0.0,0.0,0.0,0.0,0.0,0.0,0.0,0.0,0.0,0.0,0.021,0.326,0.346,0.0,0.319,0.0,0.0,0.0,0.0,0.0,0.0,0.0,0.0,0.0,0.0,0.0,0.0,0.0,0.0,0.0,0.0,0.0,0.0,0.0,0.0,0.0,0.0,0.0,0.0,0.0,0.0,0.0,0.0,0.0,0.0,0.0,0.0,0.0,0.0,0.0,0.0,0.0,0.0,0.0,0.0,0.0,0.0,0.0,0.0,0.0,0.0,0.0,0.0,0.0,0.0,0.0,0.0,0.0,0.0,0.0,0.0,0.0,0.0,0.0,0.0,0.0,0.0,0.0,0.0,0.0,0.0,0.0,0.0,0.0,0.0,0.0,0.0,0.0,0.0,0.0,0.0,0.0,0.0,0.0,0.0,0.0,0.0,0.0,0.0,0.0,0.0,0.0,0.0,0.0,0.0,0.0,0.0,0.0,0.0,0.0,0.0,0.0,0.0,0.0,0.0,0.0,0.0,0.0,0.0,0.0,0.0,0.0,0.0,0.0,0.0,0.0,0.2706,0.3186,0.3458,0.0,0.0,0.0,0.0,0.0,0.0,0.0,0.0,0.0,0.0,0.0,0.0,0.0,0.0,0.0,0.0,0.0,0.0,0.0,0.0,0.0,0.0,0.0,0.0,0.0,0.0,0.0,0.0,0.0,0.0,0.0,0.0,0.0,0.0,0.0,0.0,0.0,0.0,0.0,0.0,0.0,0.0,0.0,0.0,0.0,0.0,0.0,0.0,0.0,0.0,0.0,0.0,0.0,0.0,0.0,0.0,0.0,0.0,0.0,0.0,0.0,0.0,0.0,0.0,0.0,0.0,0.0,0.0,0.0,0.0,0.0,0.0,0.0,0.0,0.0,0.0,0.0,0.0,0.0,0.0,0.0,0.0,0.0,0.0,0.0,0.0,0.0,0.0,0.0,0.0,0.0,0.0,0.0,0.0,0.0,0.0,0.0,0.0,0.0,0.0,0.0,0.0,0.0,0.0,0.0,0.0,0.0,0.0,0.0,0.0,-0.1799,0.0,0.2432,0.3101,0.3309,0.3218,0.0,0.0,0.0,0.0,0.0,0.0,0.0,0.0,0.0,0.0,0.0,0.0,0.0,0.0,0.0,0.0,0.0,0.0,0.0,0.0,0.0,0.0,0.0,0.0,0.0,0.0,0.0,0.0,0.0,0.0,0.0,0.0,0.0,0.0,0.0,0.0,0.0,0.0,0.0,0.0,0.0,0.0,0.0,0.0,0.0,0.0,0.0,0.0,0.0,0.0,0.0,0.0,0.0,0.0,0.0,0.0,0.0,0.0,0.0,0.0,0.0,0.0,0.0,0.0,0.0,0.0,0.0,0.0,0.0,0.0,0.0,0.0,0.0,0.0,0.0,0.0,0.0,0.0,0.0,0.0,0.0,0.0,0.0,0.0,0.0,0.0,0.0,0.0,0.0,0.0,0.0,0.0,0.0,0.0,0.0,0.0,0.0,0.0,0.0,0.0,0.0,0.0,0.0,0.0,0.0,0.0,0.0,0.0,0.0,-0.1753,0.0244,0.3385,0.3575,0.3177,0.0,0.0,0.0,0.0,0.0,0.0,0.0,0.0,0.0,0.0,0.0,0.0,0.0,0.0,0.0,0.0,0.0,0.0,0.0,0.0,0.0,0.0,0.0,0.0,0.0,0.0,0.0,0.0,0.0,0.0,0.0,0.0,0.0,0.0,0.0,0.0,0.0,0.0,0.0,0.0,0.0,0.0,0.0,0.0,0.0,0.0,0.0,0.0,0.0,0.0,0.0,0.0,0.0,0.0,0.0,0.0,0.0,0.0,0.0,0.0,0.0,0.0,0.0,0.0,0.0,0.0,0.0,0.0,0.0,0.0,0.0,0.0,0.0,0.0,0.0,0.0,0.0,0.0,0.0,0.0,0.0,0.0,0.0,0.0,0.0,0.0,0.0,0.0,0.0,0.0,0.0,0.0,0.0,0.0,0.0,0.0,0.0,0.0,0.0,0.0,0.0,0.0,0.0,0.0,0.0,0.0,0.0,0.0,0.0,-0.2695,-0.1232,0.084,0.3459,0.3601,0.3172,0.0,0.0,0.0,0.0,0.0,0.0,0.0,0.0,0.0,0.0,0.0,0.0,0.0,0.0,0.0,0.0,0.0,0.0,0.0,0.0,0.0,0.0,0.0,0.0,0.0,0.0,0.0,0.0,0.0,0.0,0.0,0.0,0.0,0.0,0.0,0.0,0.0,0.0,0.0,0.0,0.0,0.0,0.0,0.0,0.0,0.0,0.0,0.0,0.0,0.0,0.0,0.0,0.0,0.0,0.0,0.0,0.0,0.0,0.0,0.0,0.0,0.0,0.0,0.0,0.0,0.0,0.0,0.0,0.0,0.0,0.0,0.0,0.0,0.0,0.0,0.0,0.0,0.0,0.0,0.0,0.0,0.0,0.0,0.0,0.0,0.0,0.0,0.0,0.0,0.0,0.0,0.0,0.0,0.0,0.0,0.0,0.0,0.0,0.0,0.0,0.0,0.0,0.0,0.0,0.0,0.0,0.0,0.0,0.0,-0.2233,0.0,0.1436,0.0,0.3353,0.3146,0.0,0.0,0.0,0.0,0.0,0.0,0.0,0.0,0.0,0.0,0.0,0.0,0.0,0.0,0.0,0.0,0.0,0.0,0.0,0.0,0.0,0.0,0.0,0.0,0.0,0.0,0.0,0.0,0.0,0.0,0.0,0.0,0.0,0.0,0.0,0.0,0.0,0.0,0.0,0.0,0.0,0.0,0.0,0.0,0.0,0.0,0.0,0.0,0.0,0.0,0.0,0.0,0.0,0.0,0.0,0.0,0.0,0.0,0.0,0.0,0.0,0.0,0.0,0.0,0.0,0.0,0.0,0.0,0.0,0.0,0.0,0.0,0.0,0.0,0.0,0.0,0.0,0.0,0.0,0.0,0.0,0.0,0.0,0.0,0.0,0.0,0.0,0.0,0.0,0.0,0.0,0.0,0.0,0.0,0.0,0.0,0.0,0.0,0.0,0.0,0.0,0.0,0.0,0.0,0.0,0.0,0.0,0.0,0.0,-0.1284,0.1009,0.2164,0.1903,0.2829,0.3121,0.0,0.0,0.0,0.0,0.0,0.0,0.0,0.0,0.0,0.0,0.0,0.0,0.0,0.0,0.0,0.0,0.0,0.0,0.0,0.0,0.0,0.0,0.0,0.0,0.0,0.0,0.0,0.0,0.0,0.0,0.0,0.0,0.0,0.0,0.0,0.0,0.0,0.0,0.0,0.0,0.0,0.0,0.0,0.0,0.0,0.0,0.0,0.0,0.0,0.0,0.0,0.0,0.0,0.0,0.0,0.0,0.0,0.0,0.0,0.0,0.0,0.0,0.0,0.0,0.0,0.0,0.0,0.0,0.0,0.0,0.0,0.0,0.0,0.0,0.0,0.0,0.0,0.0,0.0,0.0,0.0,0.0,0.0,0.0,0.0,0.0,0.0,0.0,0.0,0.0,0.0,0.0,0.0,0.0,0.0,0.0,0.0,0.0,0.0,0.0,0.0,0.0,0.0,0.0,0.0,0.0,0.0,0.0,0.0,-0.1288,0.2048,0.3827,0.3901,0.3676,0.347,0.0,0.0,0.0,0.0,0.0,0.0,0.0,0.0,0.0,0.0,0.0,0.0,0.0,0.0,0.0,0.0,0.0,0.0,0.0,0.0,0.0,0.0,0.0,0.0,0.0,0.0,0.0,0.0,0.0,0.0,0.0,0.0,0.0,0.0,0.0,0.0,0.0,0.0,0.0,0.0,0.0,0.0,0.0,0.0,0.0,0.0,0.0,0.0,0.0,0.0,0.0,0.0,0.0,0.0,0.0,0.0,0.0,0.0,0.0,0.0,0.0,0.0,0.0,0.0,0.0,0.0,0.0,0.0,0.0,0.0,0.0,0.0,0.0,0.0,0.0,0.0,0.0,0.0,0.0,0.0,0.0,0.0,0.0,0.0,0.0,0.0,0.0,0.0,0.0,0.0,0.0,0.0,0.0,0.0,0.0,0.0,0.0,0.0,0.0,0.0,0.0,0.0,0.0,0.0,0.0,0.0,0.0,0.0,0.0,-0.1432,0.196,0.4154,0.4772,0.4157,0.3744,0.3608,0.0,0.0,0.0,0.0,0.0,0.0,0.0,0.0,0.0,0.0,0.0,0.0,0.0,0.0,0.0,0.0,0.0,0.0,0.0,0.0,0.0,0.0,0.0,0.0,0.0,0.0,0.0,0.0,0.0,0.0,0.0,0.0,0.0,0.0,0.0,0.0,0.0,0.0,0.0,0.0,0.0,0.0,0.0,0.0,0.0,0.0,0.0,0.0,0.0,0.0,0.0,0.0,0.0,0.0,0.0,0.0,0.0,0.0,0.0,0.0,0.0,0.0,0.0,0.0,0.0,0.0,0.0,0.0,0.0,0.0,0.0,0.0,0.0,0.0,0.0,0.0,0.0,0.0,0.0,0.0,0.0,0.0,0.0,0.0,0.0,0.0,0.0,0.0,0.0,0.0,0.0,0.0,0.0,0.0,0.0,0.0,0.0,0.0,0.0,0.0,0.0,0.0,0.0,0.0,0.0,0.0,0.0,0.0,-0.1984,0.112,0.3324,0.4539,0.4333,0.4026,0.0,0.0,0.0,0.0,0.0,0.0,0.0,0.0,0.0,0.0,0.0,0.0,0.0,0.0,0.0,0.0,0.0,0.0,0.0,0.0,0.0,0.0,0.0,0.0,0.0,0.0,0.0,0.0,0.0,0.0,0.0,0.0,0.0,0.0,0.0,0.0,0.0,0.0,0.0,0.0,0.0,0.0,0.0,0.0,0.0,0.0,0.0,0.0,0.0,0.0,0.0,0.0,0.0,0.0,0.0,0.0,0.0,0.0,0.0,0.0,0.0,0.0,0.0,0.0,0.0,0.0,0.0,0.0,0.0,0.0,0.0,0.0,0.0,0.0,0.0,0.0,0.0,0.0,0.0,0.0,0.0,0.0,0.0,0.0,0.0,0.0,0.0,0.0,0.0,0.0,0.0,0.0,0.0,0.0,0.0,0.0,0.0,0.0,0.0,0.0,0.0,0.0,0.0,0.0,0.0,0.0,0.0,0.0,0.0,-0.363,0.0867,0.3942,0.5119,0.4797,0.4518,0.0,0.0,0.0,0.0,0.0,0.0,0.0,0.0,0.0,0.0,0.0,0.0,0.0,0.0,0.0,0.0,0.0,0.0,0.0,0.0,0.0,0.0,0.0,0.0,0.0,0.0,0.0,0.0,0.0,0.0,0.0,0.0,0.0,0.0,0.0,0.0,0.0,0.0,0.0,0.0,0.0,0.0,0.0,0.0,0.0,0.0,0.0,0.0,0.0,0.0,0.0,0.0,0.0,0.0,0.0,0.0,0.0,0.0,0.0,0.0,0.0,0.0,0.0,0.0,0.0,0.0,0.0,0.0,0.0,0.0,0.0,0.0,0.0,0.0,0.0,0.0,0.0,0.0,0.0,0.0,0.0,0.0,0.0,0.0,0.0,0.0,0.0,0.0,0.0,0.0,0.0,0.0,0.0,0.0,0.0,0.0,0.0,0.0,0.0,0.0,0.0,0.0,0.0,0.0,0.0,0.0,0.0,0.0,-0.273,-0.2065,0.1639,0.4349,0.5865,0.5819,0.5439,0.0,0.0,0.0,0.0,0.0,0.0,0.0,0.0,0.0,0.0,0.0,0.0,0.0,0.0,0.0,0.0,0.0,0.0,0.0,0.0,0.0,0.0,0.0,0.0,0.0,0.0,0.0,0.0,0.0,0.0,0.0,0.0,0.0,0.0,0.0,0.0,0.0,0.0,0.0,0.0,0.0,0.0,0.0,0.0,0.0,0.0,0.0,0.0,0.0,0.0,0.0,0.0,0.0,0.0,0.0,0.0,0.0,0.0,0.0,0.0,0.0,0.0,0.0,0.0,0.0,0.0,0.0,0.0,0.0,0.0,0.0,0.0,0.0,0.0,0.0,0.0,0.0,0.0,0.0,0.0,0.0,0.0,0.0,0.0,0.0,0.0,0.0,0.0,0.0,0.0,0.0,0.0,0.0,0.0,0.0,0.0,0.0,0.0,0.0,0.0,0.0,0.0,0.0,0.0,0.0,0.0,0.0,0.0,-0.0353,0.1904,0.3262,0.4816,0.6589,0.6965,0.6404,0.0,0.0,0.0,0.0,0.0,0.0,0.0,0.0,0.0,0.0,0.0,0.0,0.0,0.0,0.0,0.0,0.0,0.0,0.0,0.0,0.0,0.0,0.0,0.0,0.0,0.0,0.0,0.0,0.0,0.0,0.0,0.0,0.0,0.0,0.0,0.0,0.0,0.0,0.0,0.0,0.0,0.0,0.0,0.0,0.0,0.0,0.0,0.0,0.0,0.0,0.0,0.0,0.0,0.0,0.0,0.0,0.0,0.0,0.0,0.0,0.0,0.0,0.0,0.0,0.0,0.0,0.0,0.0,0.0,0.0,0.0,0.0,0.0,0.0,0.0,0.0,0.0,0.0,0.0,0.0,0.0,0.0,0.0,0.0,0.0,0.0,0.0,0.0,0.0,0.0,0.0,0.0,0.0,0.0,0.0,0.0,0.0,0.0,0.0,0.0,0.0,0.0,0.0,0.0,0.0,0.0,0.0,0.0,0.2597,0.645,0.6398,0.6543,0.6987,0.6402,0.5825,0.0,0.0,0.0,0.0,0.0,0.0,0.0,0.0,0.0,0.0,0.0,0.0,0.0,0.0,0.0,0.0,0.0,0.0,0.0,0.0,0.0,0.0,0.0,0.0,0.0,0.0,0.0,0.0,0.0,0.0,0.0,0.0,0.0,0.0,0.0,0.0,0.0,0.0,0.0,0.0,0.0,0.0,0.0,0.0,0.0,0.0,0.0,0.0,-0.1964,0.0,0.0,0.0,0.0,0.0,0.0,0.0,0.0,0.0,0.0,0.0,0.0,0.0,0.0,0.0,0.0,0.0,0.0,0.0,0.0,0.0,0.0,0.0,0.0,0.0,0.0,0.0,0.0,0.0,0.0,0.0,0.0,0.0,0.0,0.0,0.0,0.0,0.0,0.0,0.0,0.0,0.0,0.0,0.0,0.0,0.0,0.0,0.0,0.0,0.0,0.0,0.0,0.0,0.0,0.0,0.0,0.0,0.0,0.0,0.3576,0.7643,0.7574,0.7346,0.7244,0.7067,0.664,0.0,0.0,0.0,0.0,0.0,0.0,0.0,0.0,0.0,0.0,0.0,0.0,0.0,0.0,0.0,0.0,0.0,0.0,0.0,0.0,0.0,0.0,0.0,0.0,0.0,0.0,0.0,0.0,0.0,0.0,0.0,0.0,0.0,0.0,0.0,0.0,0.0,0.0,0.0,0.0,0.0,0.0,0.0,0.0,0.0,0.0,0.0,0.0,0.0,0.0,0.0,0.0,0.0,0.0,0.0,0.0,0.0,0.0,0.0,0.0,0.0,0.0,0.0,0.0,0.0,0.0,0.0,0.0,0.0,0.0,0.0,0.0,0.0,0.0,0.0,0.0,0.0,0.0,0.0,0.0,0.0,0.0,0.0,0.0,0.0,0.0,0.0,0.0,0.0,0.0,0.0,0.0,0.0,0.0,0.0,0.0,0.0,0.0,0.0,0.0,0.0,0.0,0.0,0.0,0.0,0.0,0.0,0.1402,0.3895,0.7476,0.7696,0.7636,0.7675,0.8271,0.8121,0.7233,0.0,0.0,0.0,0.0,0.0,0.0,0.0,0.0,0.0,0.0,0.0,0.0,0.0,0.0,0.0,0.0,0.0,0.0,0.0,0.0,0.0,0.0,0.0,0.0,0.0,0.0,0.0,0.0,0.0,0.0,0.0,0.0,0.0,0.0,0.0,0.0,0.0,0.0,-0.479,-0.2535,0.0,0.0,0.0,0.0,0.0,0.0,0.0,0.0,-0.054,0.0,0.0,0.0,0.0,0.0,0.0,0.0,0.0,0.0,0.0,0.0,0.0,0.0,0.0,0.0,0.0,0.0,0.0,0.0,0.0,0.0,0.0,0.0,0.0,0.0,0.0,0.0,0.0,0.0,0.0,0.0,0.0,0.0,0.0,0.0,0.0,0.0,0.0,0.0,0.0,0.0,0.0,0.0,0.0,0.0,0.0,0.0,0.0,0.0,0.0,0.0,0.0,0.0,0.0,0.0,0.0,-0.0,0.2425,0.5038,0.78,0.7709,0.8052,0.8922,0.9703,0.9737,0.9195,0.0,0.0,0.0,0.0,0.0,0.0,0.0,0.0,0.0,0.0,0.0,0.0,0.0,0.0,0.0,0.0,0.0,0.0,0.0,0.0,0.0,0.0,0.0,0.0,0.0,0.0,0.0,0.0,0.0,0.0,0.0,0.0,0.0,0.0,0.0,0.0,0.0,0.0,0.0,-0.5125,-0.3605,0.0,0.0,0.0,0.0,0.0,0.0,0.0,0.0,0.2893,0.0,0.0,0.0,0.0,0.0,0.0,0.0,0.0,0.0,0.0,0.0,0.0,0.0,0.0,0.0,0.0,0.0,0.0,0.0,0.0,0.0,0.0,0.0,0.0,0.0,0.0,0.0,0.0,0.0,0.0,0.0,0.0,0.0,0.0,0.0,0.0,0.0,0.0,0.0,0.0,0.0,0.0,0.0,0.0,0.0,0.0,0.0,0.0,0.0,0.0,0.0,0.0,0.0,0.0,0.0,0.0588,0.2863,0.5292,0.7907,0.8527,0.9116,0.9571,1.0338,1.0534,0.0,0.0,0.0,0.0,0.0,0.0,0.0,0.0,0.0,0.0,0.0,0.0,0.0,0.0,0.0,0.0,0.0,0.0,0.0,0.0,0.0,0.0,0.0,0.0,0.0,0.0,0.0,0.0,0.0,0.0,0.0,0.0,0.0,0.0,0.0,0.0,0.0,0.0,0.0,0.0,-0.5495,-0.4273,-0.1899,0.0,0.0,0.0,0.0,0.0,0.0,0.5322,0.4378,0.0,0.0,0.0,0.0,0.0,0.0,0.0,0.0,0.0,0.0,0.0,0.0,0.0,0.0,0.0,0.0,0.0,0.0,0.0,0.0,0.0,0.0,0.0,0.0,0.0,0.0,0.0,0.0,0.0,0.0,0.0,0.0,0.0,0.0,0.0,0.0,0.0,0.0,0.0,0.0,0.0,0.0,0.0,0.0,0.0,0.0,0.0,0.0,0.0,0.0,0.0,0.0,0.0,0.0,0.0,0.1123,0.3553,0.6048,0.8401,0.9437,1.0201,1.0469,1.1229,1.1259,0.0,0.0,0.0,0.0,0.0,0.0,0.0,0.0,0.0,0.0,0.0,0.0,0.0,0.0,0.0,0.0,0.0,0.0,0.0,0.0,0.0,0.0,0.0,0.0,0.0,0.0,0.0,0.0,0.0,0.0,0.0,0.0,0.0,0.0,0.0,0.0,0.0,0.0,0.0,0.0,0.0,-0.4443,-0.2614,-0.1002,0.0,0.0,0.0,0.0,0.5763,0.5704,0.0,0.0,0.0,0.0,0.0,0.0,0.0,0.0,0.0,0.0,0.0,0.0,0.0,0.0,0.0,0.0,0.0,0.0,0.0,0.0,0.0,0.0,0.0,0.0,0.0,0.0,0.0,0.0,0.0,0.0,0.0,0.0,0.0,0.0,0.0,0.0,0.0,0.0,0.0,0.0,0.0,0.0,0.0,0.0,0.0,0.0,0.0,0.0,0.0,0.0,0.0,0.0,0.0,0.0,0.0,0.0,0.1198,0.5388,0.843,1.0236,1.0121,1.0969,1.2924,1.2848,1.2481,0.0,0.0,0.0,0.0,0.0,0.0,0.0,0.0,0.0,0.0,0.0,0.0,0.0,0.0,0.0,0.0,0.0,0.0,0.0,0.0,0.0,0.0,0.0,0.0,0.0,0.0,0.0,0.0,0.0,0.0,0.0,0.0,0.0,0.0,0.0,0.0,0.0,0.0,0.0,0.0,0.0,-0.4277,-0.0339,0.0068,0.0623,0.0,0.0,0.7482,0.664,0.657,0.0,0.0,0.0,0.0,0.0,0.0,0.0,0.0,0.0,0.0,0.0,0.0,0.0,0.0,0.0,0.0,0.0,0.0,0.0,0.0,0.0,0.0,0.0,0.0,0.0,0.0,0.0,0.0,0.0,0.0,0.0,0.0,0.0,0.0,0.0,0.0,0.0,0.0,0.0,0.0,0.0,0.0,0.0,0.0,0.0,0.0,0.0,0.0,0.0,0.0,0.0,0.0,0.0,0.0,0.0,-0.2006,0.1224,0.5895,0.9019,1.0439,1.1015,1.2082,1.3919,1.3383,1.2798,0.0,0.0,0.0,0.0,0.0,0.0,0.0,0.0,0.0,0.0,0.0,0.0,0.0,0.0,0.0,0.0,0.0,0.0,0.0,0.0,0.0,0.0,0.0,0.0,0.0,0.0,0.0,0.0,0.0,0.0,0.0,0.0,0.0,0.0,0.0,0.0,0.0,0.0,0.0,0.0,0.0,0.0,-0.0,0.252,0.0,0.0,0.0,0.7509,0.6922,0.0,0.0,0.0,0.0,0.0,0.0,0.0,0.0,0.0,0.0,0.0,0.0,0.0,0.0,0.0,0.0,0.0,0.0,0.0,0.0,0.0,0.0,0.0,0.0,0.0,0.0,0.0,0.0,0.0,0.0,0.0,0.0,0.0,0.0,0.0,0.0,0.0,0.0,0.0,0.0,0.0,0.0,0.0,0.0,0.0,0.0,0.0,0.0,0.0,0.0,0.0,0.0,0.0,0.0,0.0,0.0,0.0,0.1243,0.6025,0.9259,1.086,1.1822,1.3125,1.4728,1.4089,0.0,0.0,0.0,0.0,0.0,0.0,0.0,0.0,0.0,0.0,0.0,0.0,0.0,0.0,0.0,0.0,0.0,0.0,0.0,0.0,0.0,0.0,0.0,0.0,0.0,0.0,0.0,-0.1003,0.0,0.0,0.0,0.0,0.0,0.0,0.0,0.0,0.0,0.0,0.0,0.0,0.0,0.0,-0.3597,0.0167,0.4471,0.6746,0.0,0.0,0.7561,0.7289,0.7104,0.6743,0.0,0.0,0.0,0.0,0.0,0.0,0.0,0.0,0.0,0.0,0.0,0.0,0.0,0.0,0.0,0.0,0.0,0.0,0.0,0.0,0.0,0.0,0.0,0.0,0.0,0.0,0.0,0.0,0.0,0.0,0.0,0.0,0.0,0.0,0.0,0.0,0.0,0.0,0.0,0.0,0.0,0.0,0.0,0.0,0.0,0.0,0.0,0.0,0.0,0.0,0.0,0.0,0.0,0.0,0.0,0.1324,0.6014,0.9763,1.2164,1.2476,1.369,1.6077,1.5605,1.4309,0.0,0.0,0.0,0.0,0.0,0.0,0.0,0.0,0.0,0.0,0.0,0.0,0.0,0.0,0.0,0.0,0.0,0.0,0.0,0.0,0.0,0.0,0.0,0.0,0.0,0.0,0.0,0.0,0.0,0.0,0.0,0.0,0.0,0.0,0.0,0.0,0.0,0.0,0.0,0.0,0.0,-0.4299,0.0687,0.5107,0.7859,0.0,0.0,0.8131,0.7636,0.7882,0.7712,0.6503,0.0,0.0,0.0,0.0,0.0,0.0,0.0,0.0,0.0,0.0,0.0,0.0,0.0,0.0,0.0,0.0,0.0,0.0,0.0,0.0,0.0,0.0,0.0,0.0,0.0,0.0,0.0,0.0,0.0,0.0,0.0,0.0,0.0,0.0,0.0,0.0,0.0,0.0,0.0,0.0,0.0,0.0,0.0,0.0,0.0,0.0,0.0,0.0,0.0,0.0,0.0,0.0,0.0,0.1089,0.3266,0.8474,1.1649,1.2771,1.3588,1.4867,1.6553,1.5631,1.4322,0.0,0.0,0.0,0.0,0.0,0.0,0.0,0.0,0.0,0.0,0.0,0.0,0.0,0.0,0.0,0.0,0.0,0.0,0.0,0.0,0.0,0.0,0.0,0.0,0.0,0.0,0.0,0.0,0.1676,0.3244,0.439,0.0,0.0,0.0,0.0,0.0,0.0,0.0,0.0,0.0,0.0,0.0,0.2965,0.6101,0.0,0.0,0.8334,0.8327,0.8131,0.7923,0.765,0.7094,0.6465,0.0,0.0,0.0,0.0,0.0,0.0,0.0,0.0,0.0,0.0,0.0,0.0,0.0,0.0,0.0,0.0,0.0,0.0,0.0,0.0,0.0,0.0,0.0,0.0,0.0,0.0,0.0,0.0,0.0,0.0,0.0,0.0,0.0,0.0,0.0,0.0,0.0,0.0,0.0,0.0,0.0,0.0,0.0,0.0,0.0,0.0,0.0,0.0,0.0,0.0,0.0,0.0,0.1489,0.4494,1.0026,1.2956,1.3026,1.4361,1.5658,1.672,1.5872,1.4669,0.0,0.0,0.0,0.0,0.0,0.0,0.0,0.0,0.0,0.0,0.0,0.0,0.0,0.0,0.0,0.0,0.0,0.0,0.0,0.0,0.0,0.0,0.0,0.0,0.0,0.0,0.0,0.0,0.2458,0.3448,0.4242,0.0,0.0,0.0,0.0,0.0,0.0,0.0,0.0,0.0,0.0,0.3595,0.5424,0.7166,0.835,0.8336,0.8384,0.8384,0.8289,0.8004,0.7691,0.7447,0.0,0.0,0.0,0.0,0.0,0.0,0.0,0.0,0.0,0.0,0.0,0.0,0.0,0.0,0.0,0.0,0.0,0.0,0.0,0.0,0.0,0.0,0.0,0.0,0.0,0.0,0.0,0.344,0.0,0.0,0.0,0.0,0.0,0.0,0.0,0.0,0.0,0.0,0.0,0.0,0.0,0.0,0.0,0.0,0.0,0.0,0.0,0.0,0.0,0.0,0.0,0.0,0.0,0.0,0.4518,1.0314,1.3193,1.3036,1.4529,1.6033,1.7141,1.6553,1.5551,1.4068,0.0,0.0,0.0,0.0,0.0,0.0,0.0,0.0,0.0,0.0,0.0,0.0,0.0,0.0,0.0,0.0,0.0,0.0,0.0,0.0,0.0,0.0,0.0,0.0,0.0,0.0,0.4015,0.1879,0.1257,0.0,0.0,0.0,0.0,0.0,0.0,0.0,0.0,0.0,0.0,0.6259,0.5433,0.8126,0.8411,0.8394,0.8492,0.8377,0.8282,0.8282,0.8255,0.8052,0.0,0.0,0.0,0.0,0.0,0.0,0.0,0.0,0.0,0.0,0.0,0.0,0.0,0.0,0.0,0.0,0.0,0.0,0.0,0.0,0.0,0.0,0.0,0.0,0.0,0.0,0.0,0.4176,0.4169,0.0,0.0,0.0,0.0,0.0,0.0,0.0,0.0,0.0,0.0,0.0,0.6432,0.6277,0.0,0.0,0.0,0.0,0.0,0.0,0.0,0.0,0.0,0.0,0.0,0.0,0.5067,0.4816,1.1049,1.4123,1.3573,1.5862,1.7197,1.7435,1.6874,1.5685,1.3854,0.0,0.0,0.0,0.0,0.0,0.0,0.0,0.0,0.0,0.0,0.0,0.0,0.0,0.0,0.0,0.0,0.0,0.0,0.0,0.0,0.0,0.0,0.0,0.0,0.0,0.3395,0.0,0.0,0.0,0.0,0.0,0.0,0.0,0.0,0.0,0.0,0.0,0.8048,0.8312,0.7577,0.7384,0.8488,0.856,0.871,0.0,0.0,0.0,0.0,0.0,0.0,0.0,0.0,0.0,0.0,0.0,0.0,0.0,0.0,0.7678,0.6834,0.546,0.3626,0.0608,0.0,0.0,0.0,0.0,0.0,0.0,0.0,0.0,0.0,0.0,0.0,0.0,0.0,0.0,0.5386,0.0,0.5172,0.0,0.0,0.0,0.0,0.0,0.0,0.0,0.0,0.7011,0.7258,0.7745,0.775,0.7951,0.0,0.7671,0.6866,0.0,0.0,0.0,0.0,0.0,0.0,0.0,0.0,0.7835,0.7118,1.2113,1.4725,1.4451,1.6667,1.7782,1.7582,1.7007,1.5885,1.4148,1.2879,1.1383,0.0,0.0,0.0,0.0,0.0,0.0,0.0,0.0,0.0,0.0,0.0,0.0,0.0,0.0,0.0,0.0,0.0,0.0,0.0,0.0,0.0,0.0,0.0,0.4558,0.0,0.0,0.0,0.0,0.0,0.0,0.0,0.0,0.0,0.8156,0.8187,0.812,0.8335,0.8428,0.8529,0.8659,0.0,0.0,0.0,0.0,0.0,0.0,0.0,0.9737,0.9041,0.943,0.9797,0.9571,0.9173,0.881,0.8533,0.0,0.0,0.7717,0.7439,0.6461,0.3591,0.4612,0.6687,0.9009,0.9129,0.8837,0.0,0.0,0.0,0.0,0.0,0.0,0.0,0.0,0.8403,0.7873,0.0,0.7066,0.0,0.0,0.0,0.0,0.0,0.402,0.0,0.0,0.7681,0.8524,0.9992,0.9921,1.0688,1.2015,1.0649,0.9683,0.9012,0.6514,0.0,0.0,0.0,0.0,0.0,0.0,0.9662,1.1155,1.3442,1.4858,1.5541,1.6948,1.7701,1.7674,1.7123,1.6276,1.5134,1.4162,1.3013,1.1543,0.9843,0.0,0.0,0.0,0.0,0.0,0.0,0.0,0.0,0.0,0.0,0.0,0.0,0.0,0.0,0.0,0.0,0.0,0.0,0.0,0.0,0.4001,0.0,0.0,0.0,0.0,0.0,0.0,0.0,0.0,0.0,0.0,0.8578,0.8601,0.8401,0.886,0.0,0.0,0.0,0.0,0.8899,0.8886,1.013,1.1156,1.1437,1.2654,1.3217,1.2,0.0,0.0,1.2199,1.0576,0.9446,0.9119,0.9325,0.9306,0.8994,0.8772,0.8557,0.8465,0.8494,0.8904,0.8969,0.8946,0.8941,1.2769,0.0,0.0,0.0,0.0,1.0029,1.0383,1.082,1.1028,1.0579,0.9564,0.9114,0.0,0.0,0.0,0.0,0.0,0.0,0.7765,1.0021,0.9597,1.0184,1.1885,1.1885,1.2164,1.2615,1.2063,1.1191,0.9862,0.8991,0.7461,0.5365,0.0,0.0,0.0,0.0,0.9349,1.1589,1.3039,1.49,1.7154,1.8582,1.9252,1.902,1.8716,1.764,1.6007,1.5257,1.4412,1.3376,1.2042,0.0,0.0,0.0,0.0,0.0,0.0,0.0,0.0,0.0,0.0,0.0,0.0,0.0,0.0,0.0,0.0,0.0,0.0,0.0,0.4802,0.5142,0.5545,0.0,0.0,0.0,0.0,0.0,0.0,0.0,0.0,0.0,0.9127,0.8855,0.8592,0.0,0.0,0.8798,0.8866,0.8994,0.9639,1.1073,1.1594,0.0,0.0,1.4188,1.4158,1.3341,1.6494,1.8015,1.4259,1.161,1.018,1.0989,1.0434,0.9795,0.9598,0.93,0.9216,0.9236,0.9377,0.9474,0.9813,0.971,0.972,1.6867,1.4849,1.2969,1.2079,1.1725,1.1768,1.2106,1.2541,1.2802,1.2501,1.1807,1.1485,1.0244,0.8122,0.7062,0.0,0.0,0.0,1.0021,1.1783,1.1353,1.2113,1.3685,1.3849,1.4123,1.4631,1.3981,1.3074,1.2123,1.142,0.9828,0.7381,0.0,0.0,0.5774,0.8267,1.041,1.2151,1.352,1.5672,1.8499,2.0001,2.0343,1.9642,1.9944,1.9089,1.672,1.6621,1.5973,1.4796,1.3622,1.1939,0.0,0.0,0.0,0.0,0.0,0.0,0.0,0.0,0.0,0.0,0.0,0.3874,0.0,0.0,0.0,0.0,0.4171,0.5439,0.5665,0.5985,0.0,0.0,0.0,0.0,0.0,0.0,0.0,0.8044,0.8496,0.9138,1.023,0.9529,0.8879,0.8791,1.0036,1.0858,1.0731,0.0,1.197,1.3333,1.4013,1.4718,1.5502,1.6414,1.6785,1.648,1.8514,1.9459,1.6706,1.4868,1.3858,1.2815,1.187,1.1038,1.0321,1.0032,0.9883,0.9808,0.9836,1.0046,1.0315,1.0287,1.027,2.0816,2.0557,1.656,1.4016,1.2704,1.2929,1.3111,1.3111,1.4213,1.407,1.325,1.4013,1.2304,0.8839,0.8102,0.0,1.0135,1.1142,1.2113,1.2977,1.3174,1.4017,1.5518,1.5518,1.6274,1.7569,1.6143,1.5291,1.507,1.3691,1.2043,1.0219,0.8276,0.7443,0.7739,1.0299,1.2094,1.2864,1.465,1.6989,1.9834,2.1371,2.1371,2.004,2.1167,2.0483,1.7612,1.8047,1.753,1.5879,1.474,1.3178,1.1031,0.0,0.0,0.0,0.0,0.0,0.0,0.0,0.0,0.0,0.0,0.0,0.0,0.0,0.0,0.0,0.4072,0.0,0.6058,0.6512,0.0,0.0,0.0,0.6983,0.6766,0.7829,0.8601,0.8528,0.0,0.0,1.2131,1.0886,0.9821,0.9824,1.2525,1.4306,1.3538,1.4114,1.496,1.5318,1.6684,1.749,1.7311,1.8838,2.0037,2.0249,2.0052,1.9474,1.8728,1.8963,1.7999,1.4503,1.3535,1.2759,1.0948,1.0643,1.0663,1.0453,1.0365,1.0351,1.046,1.0493,1.0534,2.2429,2.2274,2.1233,1.9328,1.6996,1.7016,1.708,1.708,1.7404,1.7085,1.6443,1.5668,1.4012,1.1812,1.1544,1.1831,1.223,1.2555,1.3383,1.4707,1.487,1.5683,1.7041,1.7041,1.7252,1.7569,1.7187,1.6411,1.5329,1.4941,1.3984,1.2556,1.204,1.0484,0.8055,0.9944,1.1756,1.3209,1.5741,1.883,2.2584,2.4409,2.4427,2.2785,2.3366,2.2449,1.9873,1.9002,1.7772,1.591,1.5241,1.4476,1.3283,1.1276,0.0,0.0,0.0,0.0,0.0,0.0,0.0,0.0,0.0,0.4388,0.6193,0.0,0.4968,0.0,0.4969,0.5828,0.6972,0.7689,0.0,0.0,0.7688,0.754,0.8153,0.8364,0.8543,0.8504,1.022,1.2194,1.4478,1.5235,1.56,1.5455,1.5686,1.5654,1.4871,1.5064,1.5915,1.7258,1.7937,1.8653,1.9776,2.046,2.0889,2.0668,2.0735,2.0447,1.9853,1.8826,1.7748,1.6713,1.4661,1.2701,1.0767,1.0609,1.0704,1.0656,1.0629,1.0622,1.0656,1.0663,1.0677,2.481,2.481,2.4149,2.2927,2.1338,2.0,1.9126,1.849,1.849,1.8273,1.7991,1.7219,1.5982,1.4382,1.373,1.3793,1.4451,1.4451,1.5298,1.6767,1.6767,1.7213,1.7983,1.7983,1.7983,1.7983,1.7983,1.7538,1.6767,1.6767,1.6102,1.4658,1.4658,1.3305,1.086,1.2135,1.3689,1.5421,1.8807,2.1636,2.3953,2.5534,2.5462,2.3466,2.4424,2.3538,2.0603,2.0325,1.8895,1.6338,1.5534,1.4893,1.4167,1.2879,1.1261,0.0,0.0,0.0,0.0,0.0,0.0,0.0,0.0,0.0,0.0,0.0,0.6091,0.5879,0.6273,0.7177,0.8687,0.9917,1.0428,1.0104,0.943,0.9297,0.993,0.9975,1.012,1.0616,1.2255,1.446,1.7323,1.7074,1.7345,1.8765,1.8976,1.8641,1.803,1.7925,1.8435,1.9574,1.9864,2.0246,2.1354,2.1518,2.1551,2.1397,2.1256,2.133,2.1042,2.0208,1.934,1.8581,1.6462,1.3779,1.1358,1.0806,1.0928,1.0968,1.0948,1.0867,1.0744,1.0717,1.0717,2.7596,2.7464,2.6186,2.5591,2.5143,2.2672,2.0758,1.9361,1.9152,1.8888,1.8611,1.8592,1.784,1.6534,1.5288,1.5401,1.6534,1.6534,1.7216,1.849,1.849,1.8601,1.8809,1.8601,1.8601,1.8809,1.8601,1.849,1.849,1.849,1.7798,1.6646,1.6646,1.5962,1.4815,1.5619,1.6996,1.8707,2.2428,2.4452,2.4656,2.5824,2.5542,2.3542,2.483,2.4197,2.1016,2.1631,2.06,1.7672,1.6192,1.5116,1.4241,1.4209,1.2982,0.0,1.1824,0.0,0.0,0.0,0.0,0.0,0.0,0.0,0.0,0.6991,0.714,0.7267,0.7823,0.8898,1.0807,1.2802,1.3488,1.2247,1.1764,1.1611,1.1915,1.2109,1.2579,1.3608,1.467,1.6628,1.984,1.8031,1.753,2.0488,2.1416,2.1518,2.1281,2.1082,2.1182,2.1577,2.1817,2.1753,2.1924,2.2096,2.2096,2.1964,2.1779,2.1832,2.1924,2.2082,2.1701,2.005,1.8273,1.5837,1.2527,1.1905,1.1593,1.1795,1.1462,1.0926,1.086,1.0799,1.0772,2.9215,2.9103,2.8878,2.805,2.6857,2.6232,2.5184,2.3809,2.2447,2.09,1.9212,1.9225,1.8844,1.8046,1.7798,1.7798,1.8144,1.8033,1.8255,1.849,1.849,1.9126,2.0179,1.9016,1.9126,2.0179,1.903,1.849,1.849,1.849,1.838,1.8144,1.8033,1.7909,1.7785,0.0,0.0,0.0,2.3791,2.5404,2.6468,2.6793,2.6384,2.5256,2.5489,0.0,2.3218,2.2428,2.2008,2.1825,1.8669,0.0,0.0,0.0,0.0,0.0,0.0,0.0,0.0,0.0,0.0,0.0,0.5631,0.5768,0.7301,0.7195,0.7698,0.923,0.8954,0.9904,1.2654,1.5719,1.6502,1.3973,1.3828,1.4039,1.4142,1.4361,1.4973,1.6006,1.7044,1.8565,2.0816,2.0592,2.0361,2.1319,2.2002,2.216,2.2051,2.1921,2.183,2.1897,2.1991,2.2136,2.2268,2.2149,2.2176,2.1977,2.1977,2.1991,2.2017,2.2017,2.1991,2.1304,1.9941,1.8463,1.7181,1.519,1.3505,1.3513,1.2276,1.1145,1.0946,1.094,1.094,3.0215,0.0,3.0215,2.9738,0.0,2.9028,2.8663,2.7795,2.506,2.2864,2.1071,2.1466,2.0709,1.9345,1.9345,1.9345,1.9345,1.9359,1.9345,1.9345,2.0141,2.0931,2.1699,2.1699,2.1594,2.1444,2.067,1.9821,1.8931,1.8918,1.8931,1.8918,1.8931,1.9357,2.0117,2.2292,2.3611,2.419,2.5601,2.6683,2.7344,2.7344,2.6816,2.5801,0.0,0.0,0.0,0.0,0.0,0.0,0.0,0.0,0.0,0.0,0.0,1.4705,1.5444,1.627,1.6566,1.3832,1.1405,0.9681,1.0988,1.154,1.091,0.8773,0.8787,1.1634,1.3244,1.4256,1.4889,1.734,1.8007,1.5873,1.5854,1.6109,1.6331,1.6475,1.7032,1.8321,1.9062,1.9966,2.1545,2.163,2.1713,2.1992,2.2351,2.2565,2.2526,2.2298,2.2245,2.2392,2.2418,2.2418,2.2566,2.2566,2.2418,2.2418,2.2418,2.2418,2.2418,2.2418,2.2405,2.2136,2.0896,1.9652,1.922,1.7317,1.5265,1.4284,1.2734,1.1482,1.1362,1.1127,1.1158,3.1113,3.1113,3.1113,3.1113,3.1113,3.1113,3.1113,3.0937,0.0,0.0,0.0,2.3841,2.2961,2.1046,2.0818,2.0591,2.0698,2.0591,2.0711,2.0698,2.2349,2.3299,2.3535,2.4545,2.4382,2.3084,2.2503,2.1453,1.9986,1.9636,1.9519,1.9519,1.987,2.0873,2.2663,2.5027,2.6318,2.6313,2.7285,2.7773,2.7773,2.7695,2.7129,2.5996,2.625,2.5801,2.459,2.4531,2.421,2.3331,2.2539,2.0686,1.7852,1.7695,1.7056,1.5524,1.6019,1.6545,1.6973,1.5291,1.4061,1.3362,1.658,1.7529,1.4993,1.1475,1.0771,1.4103,1.7477,1.8816,1.7089,1.8479,1.9023,1.7693,1.7817,1.8082,1.8459,1.8544,1.9075,2.0453,2.0716,2.0952,2.1683,2.1924,2.2164,2.2418,2.266,2.2917,2.2969,2.2686,2.2565,2.2752,2.2779,2.2832,2.2846,2.2832,2.2859,2.2819,2.2832,2.2859,2.2859,2.2859,2.2859,2.2806,2.1596,2.0869,2.0467,1.9044,1.7248,1.5698,1.3657,1.2357,1.2558,1.2396,1.2226,3.1992,3.1992,3.1992,3.1992,3.1992,3.1992,3.1992,3.1793,2.9085,2.6866,2.5255,2.5271,2.4989,2.4311,2.2928,2.2364,2.2349,2.2364,2.2364,2.2483,2.3975,2.5493,2.6549,2.5608,2.569,2.6346,2.3912,2.2498,2.2112,2.0815,2.0107,2.0334,2.1532,2.3598,2.6259,2.696,2.7734,2.9056,2.8466,2.8203,2.8203,2.7851,2.7402,2.6855,2.6543,2.5957,2.5019,2.498,2.4785,2.419,2.261,2.1466,2.0937,1.861,1.6938,1.6507,1.6547,1.7103,1.8088,1.699,1.6499,1.6951,1.8357,1.8836,1.7935,1.6022,1.5266,1.6445,1.8646,1.9877,1.9351,1.9747,1.9947,1.9745,1.9994,2.027,2.0558,2.0795,2.1031,2.141,2.1673,2.1819,2.2191,2.2325,2.2485,2.2726,2.2832,2.3063,2.314,2.2993,2.2832,2.2846,2.2859,2.2859,2.2926,2.2873,2.2913,2.2859,2.2899,2.2939,2.2939,2.2939,2.2939,2.2886,2.2638,2.2487,2.2336,2.1032,1.968,1.8843,1.6656,1.5238,1.6028,1.6093,1.5193,3.2168,3.2168,3.2168,3.2168,3.2168,3.2168,3.2168,3.2129,3.0997,2.947,2.7939,2.78,2.709,2.5907,2.5198,2.4738,2.4427,2.4547,2.4547,2.4667,2.6084,2.7282,2.7885,2.8137,2.801,2.7579,2.6282,2.4992,2.3991,2.3268,2.281,2.2928,2.4444,2.5973,2.7236,2.8163,2.8859,2.957,2.918,2.8984,2.8984,2.8574,2.8144,2.7715,2.7305,2.6797,2.6152,2.6133,2.5917,2.5586,2.4805,2.4016,2.3326,2.0664,1.864,1.7566,1.7595,1.8022,1.8658,1.8076,1.8207,1.9412,1.9735,1.9685,1.9455,1.8481,1.8071,1.8606,1.9786,2.0291,2.004,2.0294,2.0398,2.0695,2.0962,2.1256,2.1537,2.1697,2.183,2.1832,2.1992,2.2271,2.2553,2.2862,2.2939,2.2948,2.3081,2.3407,2.3541,2.346,2.3354,2.3354,2.3354,2.3354,2.334,2.334,2.334,2.3354,2.3507,2.3507,2.3367,2.3354,2.3354,2.3354,2.3354,2.3354,2.3354,2.278,2.1616,1.9991,1.8965,1.8122,1.8349,1.8073,1.6959,3.2441,3.2461,3.2441,3.2441,3.2461,3.2441,3.2461,3.2461,3.2441,3.1788,3.0618,3.0328,2.9418,2.7902,2.7531,2.7114,2.6861,2.6844,2.6844,2.6966,2.8559,2.9315,2.9315,3.0661,3.0332,2.8861,2.8454,2.7417,2.5997,2.5495,2.5495,2.5963,2.7027,2.7737,2.8118,2.9278,2.9863,2.9863,2.9863,2.9766,2.957,2.9238,2.8906,2.8594,2.8262,2.7891,2.748,2.7441,2.7221,2.6782,2.6743,2.6069,2.4801,2.3389,2.149,1.9362,1.9015,1.8877,1.8552,1.8685,1.9347,2.0985,2.0634,2.0447,2.0362,2.0465,2.0369,2.0375,2.0456,2.051,2.0548,2.0735,2.085,2.1269,2.1639,2.1894,2.2031,2.2084,2.2124,2.2178,2.2432,2.2632,2.3025,2.3403,2.3407,2.3293,2.3674,2.4004,2.3875,2.3915,2.3968,2.3941,2.3861,2.3741,2.3768,2.3599,2.3585,2.3768,2.391,2.387,2.3728,2.3754,2.3768,2.3728,2.3741,2.3714,2.3754,2.3754,2.2834,2.1293,2.0697,2.0756,2.085,2.0249,1.9138,3.3301,3.3301,3.3301,3.3301,3.3301,3.332,3.3301,3.3301,3.3301,3.3175,3.2952,3.2254,3.1783,3.1462,3.0057,2.9367,2.9313,2.9349,2.9331,2.9454,3.102,3.1789,3.175,3.2012,3.1696,3.1049,2.9758,2.8799,2.808,2.673,2.673,2.7944,2.8181,2.9046,3.0412,3.0645,3.0781,3.0762,3.0781,3.0391,2.9629,2.9531,2.9492,2.9453,2.9414,2.9199,2.8711,2.875,2.8252,2.7408,2.7083,2.6352,2.5136,2.6494,2.5724,2.1751,2.1156,2.0,1.8045,1.8707,1.9773,2.0967,2.1222,2.1105,2.1149,2.2414,2.2537,2.1465,2.0902,2.1007,2.1349,2.1571,2.1692,2.2078,2.22,2.2217,2.2325,2.2378,2.2472,2.2752,2.302,2.3386,2.3579,2.3682,2.3714,2.3768,2.4152,2.4327,2.4182,2.4329,2.4462,2.4422,2.4142,2.3848,2.3821,2.3781,2.3848,2.3821,2.395,2.3991,2.3875,2.4004,2.395,2.3941,2.3848,2.3861,2.3834,2.3781,2.3665,2.3119,2.2962,2.3366,2.3834,2.3418,2.2194,3.418,3.418,3.418,3.418,3.418,3.418,3.418,3.416,3.3906,3.3809,3.373,3.3164,3.2773,3.2539,3.1884,3.138,3.1153,3.1134,3.1134,3.1256,3.1905,3.2168,3.2168,3.2168,3.207,3.1914,3.1271,3.0793,3.054,2.9999,2.9999,3.0641,3.0622,3.1003,3.1641,3.1641,3.1641,3.1641,3.166,3.1348,3.0742,3.0195,2.9941,2.9922,2.9707,2.9492,2.9336,2.9297,2.9141,2.868,2.8071,2.7758,2.7592,2.8539,2.7713,2.4667,2.4553,2.2855,1.8971,1.9469,2.0159,2.1036,2.3445,2.3825,2.145,2.3237,2.5439,2.7445,2.5045,2.3148,2.3519,2.2776,2.2462,2.3473,2.3189,2.266,2.2645,2.2846,2.302,2.3292,2.3407,2.3735,2.3803,2.3848,2.4075,2.4235,2.4555,2.4609,2.4476,2.4569,2.4623,2.4609,2.4422,2.4315,2.4262,2.4275,2.4275,2.4275,2.4289,2.4289,2.4262,2.4289,2.4289,2.4262,2.4235,2.4235,2.4315,2.4289,2.4275,2.409,2.4117,2.4302,2.4607,2.4448,2.3705,3.4687,3.4687,3.4687,3.4687,3.4687,3.4687,3.4687,3.4668,3.4375,3.4238,3.4219,3.3906,3.3613,3.332,3.3086,3.2793,3.2539,3.2519,3.2519,3.2519,3.25,3.2519,3.2519,3.2519,3.2461,3.2363,3.2344,3.2285,3.2187,3.2168,3.2168,3.2168,3.2168,3.2168,3.2168,3.2168,3.2168,3.2168,3.2168,3.2012,3.1641,3.1074,3.0625,3.0391,3.0098,2.9941,2.9922,2.9922,2.9863,2.9746,2.9292,2.9215,2.957,2.9844,2.9145,2.7422,2.7687,2.6503,2.2761,2.2097,2.2392,2.3825,2.7136,2.6744,2.2889,2.4305,2.8289,3.2137,2.9445,2.6986,2.5642,2.4605,2.4349,2.5233,2.4281,2.361,2.3225,2.3327,2.3447,2.3641,2.3856,2.3941,2.4179,2.4195,2.4236,2.4556,2.469,2.4756,2.4783,2.4823,2.4903,2.4877,2.4877,2.4796,2.4676,2.4583,2.4636,2.4636,2.4596,2.4583,2.4636,2.4623,2.4623,2.4462,2.4596,2.4609,2.4529,2.4569,2.4609,2.4623,2.4623,2.4609,2.4569,2.4609,2.4623,3.4687,3.4707,3.4707,3.4746,3.4707,3.4746,3.4726,3.4785,3.4687,3.4668,3.4668,3.4609,3.4609,3.4492,3.375,3.3398,3.3359,3.3359,3.3379,3.3359,3.3359,3.3379,3.3379,3.3359,3.3144,3.2793,3.2773,3.2578,3.2246,3.2207,3.2168,3.2187,3.2246,3.2207,3.2246,3.2266,3.2187,3.2266,3.2266,3.2187,3.2148,3.209,3.1641,3.0976,3.084,3.084,3.084,3.084,3.0644,3.0215,3.0522,3.0364,2.9819,3.0406,3.0359,2.9546,3.0236,3.0572,2.9702,2.7322,2.6968,2.9888,3.1584,2.9798,2.3583,2.6453,3.0248,3.3126,3.2906,3.1138,2.8381,2.7133,2.6635,2.6254,2.5814,2.5025,2.3803,2.3701,2.3754,2.395,2.4152,2.4249,2.4529,2.4609,2.4623,2.4716,2.489,2.5064,2.509,2.5277,2.5384,2.5398,2.5371,2.5277,2.4783,2.477,2.4743,2.4743,2.4796,2.4676,2.4636,2.4636,2.4636,2.4636,2.4636,2.4636,2.4636,2.4636,2.4623,2.4636,2.4636,2.4636,2.4636,2.4636,2.4636,3.5547,3.5547,3.5547,3.5547,3.5547,3.5547,3.5547,3.5508,3.5254,3.5137,3.5078,3.4844,3.4687,3.4687,3.4375,3.4238,3.4238,3.4238,3.4238,3.4238,3.4238,3.4082,3.3848,3.3828,3.3613,3.3242,3.3184,3.3125,3.2988,3.2969,3.2969,3.2969,3.2969,3.2969,3.2969,3.2969,3.2969,3.2969,3.2969,3.2851,3.2578,3.2578,3.2285,3.1758,3.1719,3.1719,3.1699,3.1719,3.1621,3.1465,3.113,3.1052,3.125,3.1054,3.0798,3.052,3.1262,3.1992,3.2187,3.0973,3.0649,3.2191,3.3047,3.2352,2.9938,3.0829,3.2592,3.3843,3.4206,3.3291,3.1742,2.8826,2.7201,2.8221,2.6384,2.4609,2.4052,2.3928,2.4048,2.4102,2.4302,2.4529,2.4663,2.4796,2.4917,2.4957,2.517,2.5331,2.5371,2.5464,2.5545,2.5518,2.5504,2.5451,2.5456,2.5211,2.5197,2.5144,2.5117,2.4983,2.4767,2.4756,2.473,2.4756,2.473,2.4743,2.477,2.477,2.4743,2.4716,2.4716,2.4756,2.4636,2.4756,2.4716,3.6035,3.6035,3.6035,3.6035,3.6035,3.6035,3.6035,3.5996,3.5723,3.5605,3.5527,3.5254,3.5137,3.5137,3.5117,3.5117,3.5078,3.4844,3.4687,3.4687,3.4687,3.4551,3.4316,3.4277,3.4121,3.3887,3.3848,3.3828,3.3828,3.3828,3.3828,3.3828,3.3711,3.3633,3.3613,3.3496,3.3418,3.3418,3.3418,3.3262,3.3027,3.2988,3.2871,3.2617,3.2578,3.2422,3.2187,3.2168,3.2168,3.2148,3.1667,3.1687,3.2329,3.1828,3.1347,3.1367,3.2124,3.2848,3.3231,3.2922,3.2766,3.3348,3.369,3.3711,3.3508,3.3604,3.4245,3.4818,3.5067,3.4916,3.3501,3.0275,2.8397,2.9506,2.7323,2.5158,2.4215,2.4182,2.4356,2.4342,2.4649,2.4796,2.4917,2.5104,2.5197,2.5389,2.563,2.5651,2.5651,2.5745,2.5798,2.5798,2.5838,2.5852,2.5953,2.5798,2.5558,2.563,2.5371,2.5264,2.5006,2.4983,2.489,2.489,2.4903,2.4917,2.4917,2.4917,2.4903,2.489,2.4997,2.509,2.501,2.4957,2.497,3.6035,3.6035,3.6035,3.6055,3.6074,3.6094,3.6055,3.6055,3.6055,3.6035,3.6016,3.5996,3.5957,3.5996,3.5937,3.5976,3.5781,3.5156,3.4844,3.4844,3.4824,3.4785,3.4707,3.4707,3.4668,3.457,3.4648,3.4648,3.459,3.457,3.457,3.457,3.4238,3.4082,3.4062,3.373,3.3496,3.3535,3.3555,3.3496,3.3437,3.3476,3.3476,3.3437,3.3437,3.3105,3.2344,3.2266,3.2285,3.2266,3.2246,3.2529,3.3092,3.2607,3.2226,3.2363,3.2962,3.3446,3.346,3.3408,3.3425,3.3708,3.4225,3.4362,3.3969,3.4197,3.4916,3.5719,3.5759,3.5303,3.386,3.2319,3.0977,2.9506,2.9281,2.7641,2.5436,2.4636,2.4595,2.4644,2.49,2.5197,2.5411,2.5491,2.5518,2.5738,2.594,2.5959,2.5972,2.6119,2.6319,2.6333,2.6239,2.6172,2.6279,2.6346,2.6168,2.5899,2.5625,2.5518,2.5478,2.5358,2.5264,2.5251,2.5073,2.5086,2.5251,2.5251,2.5291,2.5304,2.5384,2.5384,2.5317,2.5264,2.5496,3.6035,3.6035,3.6035,3.6191,3.6445,3.6465,3.6465,3.6465,3.6465,3.6465,3.6465,3.6465,3.6465,3.6465,3.6465,3.6309,3.6016,3.5723,3.5605,3.5605,3.5605,3.543,3.5215,3.5176,3.5,3.4746,3.4687,3.4707,3.4726,3.4726,3.4687,3.4668,3.457,3.4512,3.4492,3.4375,3.4297,3.4297,3.4297,3.4297,3.4297,3.4297,3.4277,3.4297,3.4297,3.4141,3.3906,3.3359,3.3047,3.3027,3.3027,3.3191,3.3355,3.3191,3.3019,3.3107,3.376,3.4664,3.4963,3.4485,3.4342,3.489,3.5159,3.5185,3.5117,3.4851,3.514,3.5894,3.5973,3.5703,3.5201,3.4883,3.4242,3.3793,3.0926,2.7845,2.5538,2.505,2.5251,2.5179,2.5371,2.5424,2.5531,2.5665,2.5825,2.6007,2.6066,2.6226,2.6266,2.6306,2.6386,2.6386,2.64,2.64,2.64,2.64,2.6226,2.6181,2.5905,2.5825,2.5785,2.5732,2.5651,2.5598,2.5418,2.5418,2.5585,2.5751,2.5638,2.5585,2.5545,2.5531,2.5531,2.5738,2.5819,3.6504,3.6504,3.6484,3.666,3.6894,3.6914,3.6894,3.6914,3.6914,3.6914,3.6894,3.6894,3.6894,3.6914,3.6894,3.6758,3.6504,3.6504,3.6504,3.6426,3.6113,3.5859,3.5644,3.5625,3.5488,3.5254,3.5195,3.5195,3.5195,3.5195,3.5195,3.5195,3.5039,3.4961,3.4922,3.4785,3.4687,3.4687,3.4687,3.4687,3.4687,3.4687,3.4687,3.4687,3.4687,3.4687,3.4648,3.416,3.3906,3.3887,3.3739,3.3739,3.3887,3.3572,3.3502,3.3882,3.4634,3.5301,3.556,3.4844,3.477,3.5343,3.5461,3.5949,3.6479,3.5879,3.5529,3.6249,3.6504,3.6327,3.6031,3.5984,3.6227,3.6912,3.1929,2.8,2.5828,2.5398,2.5558,2.5611,2.5678,2.5718,2.5852,2.5959,2.6119,2.6146,2.6266,2.64,2.64,2.6386,2.6413,2.6413,2.64,2.64,2.64,2.64,2.64,2.6293,2.6199,2.6146,2.6106,2.6039,2.5972,2.5985,2.5803,2.583,2.5999,2.6114,2.6114,2.5852,2.5785,2.5892,2.5972,2.5932,2.5985,3.7285,3.7305,3.7285,3.7285,3.7324,3.7324,3.7344,3.7344,3.7344,3.7324,3.7344,3.7344,3.7324,3.7324,3.7344,3.7285,3.7266,3.7187,3.7168,3.6992,3.6562,3.6191,3.6172,3.6172,3.6133,3.6094,3.6074,3.6094,3.6094,3.6016,3.6055,3.5957,3.5605,3.543,3.5371,3.5,3.4883,3.4902,3.4863,3.4863,3.4863,3.4844,3.4844,3.4863,3.4863,3.4883,3.4883,3.4883,3.4785,3.4687,3.4401,3.4381,3.4478,3.3969,3.3593,3.4347,3.5428,3.5547,3.5284,3.5121,3.4854,3.5104,3.5724,3.6642,3.7668,3.6799,3.6186,3.709,3.7347,3.7047,3.6528,3.6295,3.6981,3.7595,3.3395,2.9133,2.6392,2.617,2.6641,2.6357,2.6128,2.6222,2.6423,2.6333,2.6373,2.6426,2.644,2.648,2.6547,2.6587,2.6493,2.652,2.6613,2.664,2.6707,2.672,2.672,2.6694,2.6573,2.648,2.636,2.6279,2.6226,2.6253,2.6306,2.6346,2.6319,2.6239,2.6226,2.6186,2.6226,2.636,2.6346,2.6239,2.6279,3.7305,3.7305,3.7305,3.748,3.7734,3.7754,3.7754,3.7754,3.7754,3.7773,3.7754,3.7754,3.7754,3.7754,3.7754,3.7598,3.7402,3.7344,3.7305,3.7266,3.7109,3.6973,3.6953,3.6953,3.6934,3.6914,3.6875,3.6953,3.6934,3.6641,3.6504,3.6484,3.6094,3.5879,3.582,3.5742,3.5684,3.5664,3.5664,3.5664,3.5664,3.5684,3.5664,3.5664,3.5664,3.5664,3.5703,3.5996,3.5644,3.4766,3.4498,3.4707,3.5337,3.4293,3.3936,3.489,3.5638,3.6048,3.584,3.5684,3.5701,3.5654,3.5889,3.6456,3.7468,3.6591,3.663,3.7324,3.7885,3.8105,3.7783,3.7352,3.7653,3.7939,3.5168,3.2243,3.053,3.04,3.0145,2.885,2.84,2.7734,2.6716,2.6453,2.652,2.6667,2.672,2.676,2.6854,2.6934,2.6894,2.6987,2.7068,2.7054,2.7068,2.7068,2.7068,2.6919,2.6812,2.6814,2.6627,2.6413,2.6373,2.636,2.6493,2.656,2.6453,2.636,2.64,2.652,2.6493,2.6533,2.6453,2.6373,2.652,3.7832,3.7832,3.7832,3.7969,3.8184,3.8203,3.8203,3.8203,3.8203,3.8203,3.8203,3.8203,3.8203,3.8203,3.8184,3.8066,3.7851,3.7832,3.7832,3.7832,3.7832,3.7637,3.7383,3.7305,3.7305,3.7305,3.7305,3.7285,3.7246,3.7051,3.6953,3.6894,3.668,3.6562,3.6582,3.6562,3.6543,3.6562,3.6562,3.6562,3.6562,3.6562,3.6562,3.6562,3.6562,3.6562,3.6601,3.6797,3.6445,3.5433,3.5143,3.5278,3.5801,3.5066,3.4871,3.584,3.6583,3.6976,3.6421,3.6538,3.6495,3.6489,3.6547,3.7022,3.7519,3.7016,3.7016,3.8014,3.8398,3.8601,3.8497,3.8242,3.8584,3.8831,3.769,3.5449,3.271,3.1622,3.1027,2.9844,2.8819,2.8128,2.6734,2.6734,2.6841,2.6961,2.7014,2.7094,2.7188,2.7255,2.7308,2.7348,2.7335,2.7281,2.7255,2.7255,2.7445,2.7308,2.7308,2.7161,2.6987,2.672,2.6707,2.6734,2.6747,2.6907,2.6694,2.6694,2.68,2.6854,2.676,2.672,2.6707,2.664,2.6774,3.8574,3.8574,3.8574,3.8574,3.8555,3.8574,3.8535,3.8555,3.8535,3.8535,3.8535,3.8555,3.8516,3.8574,3.8496,3.8555,3.8535,3.8437,3.8496,3.8457,3.8418,3.8144,3.7637,3.7598,3.7578,3.7559,3.7461,3.75,3.7539,3.7441,3.7363,3.7324,3.7285,3.7266,3.7148,3.7207,3.7285,3.7207,3.7148,3.7129,3.7148,3.7148,3.7129,3.7129,3.7129,3.7148,3.7207,3.7285,3.695,3.6224,3.6176,3.6195,3.6253,3.6291,3.6451,3.695,3.7667,3.7907,3.7144,3.7003,3.7422,3.75,3.7397,3.7798,3.823,3.8039,3.8214,3.8672,3.8711,3.8896,3.8769,3.9082,3.9543,3.9746,3.9674,3.7613,3.4111,3.1884,3.0993,3.016,2.8669,2.7514,2.7078,2.7255,2.7431,2.7281,2.7321,2.7402,2.7495,2.7575,2.7562,2.7522,2.7495,2.7428,2.7415,2.7415,2.7633,2.7673,2.7714,2.766,2.7428,2.7268,2.7215,2.7175,2.7203,2.7203,2.727,2.7148,2.7201,2.7148,2.7028,2.7108,2.7188,2.7054,2.7081,3.8574,3.8574,3.8574,3.8574,3.8574,3.8574,3.8594,3.8613,3.8594,3.8652,3.8594,3.8594,3.8613,3.8613,3.8652,3.8574,3.8652,3.8652,3.8574,3.8574,3.8574,3.8516,3.8301,3.832,3.8281,3.8262,3.8281,3.8281,3.8223,3.793,3.7793,3.7754,3.7539,3.7305,3.7344,3.7422,3.7305,3.7305,3.7324,3.7363,3.7383,3.7383,3.7383,3.7383,3.7363,3.7324,3.7383,3.7617,3.7533,3.7074,3.71,3.73,3.7783,3.7924,3.7744,3.7583,3.7983,3.7881,3.6789,3.7488,3.8334,3.8281,3.8166,3.8437,3.8701,3.9633,3.981,3.9609,3.9609,3.9531,3.9362,3.9687,3.9883,3.998,3.9678,3.8785,3.639,3.5312,3.4277,3.2553,3.055,2.9001,2.7445,2.7321,2.7402,2.7549,2.7655,2.7722,2.7789,2.7856,2.7829,2.7762,2.7776,2.7736,2.7736,2.7736,2.7902,2.7915,2.7942,2.7956,2.7736,2.7629,2.7509,2.7552,2.7418,2.7485,2.762,2.7375,2.7375,2.7321,2.7321,2.7388,2.7428,2.7375,2.7402,3.8574,3.8574,3.8574,3.8691,3.8848,3.8867,3.9004,3.916,3.9199,3.916,3.9012,3.916,3.918,3.8993,3.918,3.9199,3.9199,3.9199,3.9199,3.9219,3.9219,3.9219,3.9199,3.9141,3.9043,3.8691,3.8574,3.8574,3.8496,3.8379,3.8223,3.8223,3.7988,3.7969,3.7891,3.7891,3.793,3.793,3.7891,3.7891,3.791,3.791,3.791,3.791,3.7891,3.7891,3.7949,3.8301,3.8292,3.7962,3.7924,3.8098,3.8517,3.864,3.8295,3.8112,3.8695,3.8629,3.7924,3.797,3.8573,3.858,3.8624,3.8663,3.8966,4.0184,4.0873,4.0322,4.0112,3.9941,3.9926,3.9985,3.993,3.8817,3.8855,3.808,3.6307,3.6097,3.5207,3.2794,3.0336,2.8963,2.8,2.7767,2.7682,2.7896,2.7909,2.7976,2.7963,2.803,2.8056,2.8043,2.807,2.8083,2.8083,2.807,2.803,2.8016,2.8171,2.8184,2.7989,2.8036,2.7902,2.7821,2.7767,2.7875,2.7969,2.7682,2.7629,2.7722,2.7749,2.7875,2.7861,2.7749,2.7789,3.8613,3.8672,3.8672,3.8926,3.9277,3.9316,3.9512,3.9824,3.9883,3.9576,3.9484,3.9712,3.9726,3.9635,3.9805,3.9863,3.9863,3.9844,3.9746,3.9746,3.9746,3.9746,3.9746,3.9687,3.9473,3.8828,3.8887,3.8867,3.8867,3.8769,3.8867,3.8789,3.8789,3.8789,3.8769,3.8769,3.8769,3.8769,3.8769,3.8789,3.8789,3.8789,3.8789,3.8789,3.8769,3.8789,3.8828,3.9062,3.9109,3.8754,3.8874,3.885,3.9004,3.8603,3.8789,3.8955,3.9436,3.9199,3.9051,3.8778,3.8763,3.8878,3.8993,3.9012,3.941,4.0308,4.0999,4.098,4.0636,4.0312,4.0374,3.9586,3.8732,3.7449,3.7294,3.6424,3.5298,3.5231,3.3661,3.1701,2.9821,2.8438,2.8171,2.7989,2.811,2.8203,2.8203,2.823,2.8243,2.827,2.835,2.8417,2.8484,2.8377,2.835,2.827,2.8257,2.815,2.815,2.815,2.815,2.8043,2.8103,2.803,2.8043,2.8056,2.8211,2.7976,2.7989,2.8136,2.8096,2.7949,2.8003,2.8123,2.8136,3.8769,3.9101,3.9101,3.9355,3.9746,3.9785,3.9824,3.9883,3.9941,3.9712,3.9523,3.9732,4.0131,4.0131,3.9922,3.9902,4.0,4.0039,4.0,4.0,4.0,4.0,4.0039,4.0059,3.9863,3.9746,3.9668,3.9668,3.959,3.9668,3.9512,3.9609,3.959,3.959,3.957,3.9668,3.9551,3.9492,3.9512,3.9531,3.9531,3.9531,3.9531,3.9531,3.9512,3.9551,3.9609,3.9707,3.9766,3.9615,3.9654,4.0033,4.0144,3.946,3.944,4.0007,3.9668,3.9576,4.0033,3.9465,3.9523,4.0361,4.0636,4.0621,4.07,4.0916,4.1207,4.1286,4.1112,4.0976,4.1035,3.95,3.7643,3.6764,3.6086,3.5544,3.4767,3.3736,3.2809,3.1482,2.9677,2.8217,2.8297,2.835,2.8404,2.8484,2.8524,2.8617,2.8698,2.8738,2.8818,2.8871,2.8925,2.8751,2.8604,2.8313,2.822,2.819,2.815,2.815,2.815,2.815,2.815,2.815,2.815,2.8123,2.8123,2.815,2.815,2.815,2.815,2.815,2.815,2.815,2.827,3.9023,3.9219,3.9453,3.9805,4.0176,4.0215,4.0215,4.0254,4.0449,4.043,4.0371,4.0449,4.0566,4.0739,4.0566,4.0547,4.0527,4.0566,4.0566,4.0566,4.0566,4.0547,4.0527,4.0527,4.0547,4.0547,4.0547,4.0273,3.9941,3.9863,3.9941,3.9883,3.9883,3.9883,3.9883,3.9863,3.9922,3.9922,3.9922,3.9922,3.9922,3.9922,3.9902,3.9902,3.9902,3.9883,3.9941,4.0156,4.0024,4.0043,4.0257,4.0739,4.0759,4.068,4.0332,4.0881,4.0327,4.0004,4.0504,3.9988,4.0393,4.0991,4.1168,4.1246,4.1131,4.1229,4.1289,4.1445,4.1289,4.1366,4.158,3.9869,3.8627,3.7417,3.6516,3.5916,3.5031,3.3364,3.2632,3.2206,3.0467,2.9145,2.8472,2.8512,2.8525,2.8751,2.8804,2.8938,2.9072,2.9045,2.9045,2.9018,2.8978,2.8751,2.8591,2.8511,2.8247,2.8243,2.815,2.815,2.815,2.815,2.815,2.815,2.815,2.815,2.815,2.815,2.815,2.815,2.815,2.815,2.815,2.819,2.8283,3.9297,3.9492,3.9863,4.0254,4.0625,4.0664,4.0586,4.0605,4.0859,4.1109,4.1124,4.1014,4.0996,4.1229,4.1113,4.1133,4.1172,4.1133,4.1094,4.1094,4.1094,4.1133,4.1152,4.1172,4.1094,4.1016,4.1055,4.082,4.0391,4.0254,4.0195,4.0254,4.0195,4.0156,4.0215,4.0293,4.0156,4.0156,4.0156,4.0156,4.0156,4.0156,4.0156,4.0156,4.0156,4.0195,4.0293,4.0508,4.0452,4.053,4.0724,4.1133,4.1152,4.1172,4.1266,4.1257,4.1183,4.0818,4.0549,4.0685,4.1016,4.1229,4.1133,4.1211,4.1543,4.1641,4.1621,4.1836,4.1717,4.1597,4.1829,4.1747,4.031,3.8401,3.769,3.7249,3.6156,3.4978,3.3746,3.2785,3.1167,3.0177,2.9576,2.8698,2.8685,2.8871,2.8938,2.9259,2.9353,2.9072,2.9032,2.8991,2.8885,2.8657,2.8511,2.8444,2.8337,2.8203,2.815,2.815,2.815,2.815,2.815,2.815,2.815,2.815,2.815,2.815,2.815,2.815,2.815,2.815,2.815,2.8163,2.8243,3.9668,4.0371,4.043,4.0703,4.1055,4.1074,4.0859,4.0547,4.0625,4.0774,4.094,4.0833,4.0876,4.1148,4.1229,4.1152,4.1172,4.1172,4.1172,4.1172,4.1172,4.1172,4.1172,4.1172,4.1172,4.1172,4.1172,4.1152,4.0898,4.0898,4.0957,4.0918,4.0879,4.0976,4.084,4.082,4.1016,4.0996,4.0976,4.0957,4.0957,4.0937,4.0937,4.0957,4.0937,4.0898,4.0859,4.0976,4.0996,4.1035,4.1094,4.1172,4.1172,4.1172,4.1172,4.1172,4.1133,4.1113,4.1074,4.1133,4.1172,4.1172,4.1172,4.1582,4.2034,4.2229,4.2246,4.2324,4.2344,4.2222,4.2314,4.2818,4.1372,3.9906,3.85,3.8487,3.7836,3.672,3.5477,3.5161,3.415,3.2067,3.0722,2.9699,2.8831,2.8857,2.9072,2.9219,2.9421,2.9112,2.8951,2.8898,2.8845,2.8631,2.8417,2.835,2.8297,2.8177,2.8163,2.815,2.815,2.815,2.815,2.815,2.815,2.815,2.815,2.815,2.815,2.815,2.815,2.815,2.815,2.8177,2.8203,4.0176,4.0547,4.0781,4.0996,4.1152,4.1172,4.0937,4.0644,4.0781,4.0432,3.9988,4.0703,4.1092,4.1151,4.1133,4.1172,4.1172,4.1172,4.1172,4.1172,4.1172,4.1172,4.1172,4.1172,4.1172,4.1172,4.1172,4.1172,4.1172,4.1172,4.1172,4.1172,4.1172,4.1133,4.1172,4.1172,4.1152,4.1152,4.1152,4.1172,4.1172,4.1172,4.1172,4.1172,4.1172,4.1172,4.1172,4.1172,4.1172,4.1172,4.1172,4.1172,4.1172,4.1172,4.125,4.1152,4.125,4.125,4.123,4.1269,4.1191,4.1172,4.1386,4.1778,4.2665,4.284,4.2793,4.2793,4.3013,4.3072,4.2709,4.2481,4.2078,4.0908,4.0033,4.0158,3.9918,3.8398,3.7578,3.7431,3.7136,3.4935,3.2684,3.0821,2.974,2.9339,2.9232,2.903,2.9017,2.8884,2.8738,2.8764,2.8698,2.8617,2.839,2.8243,2.8283,2.8203,2.819,2.8177,2.815,2.815,2.8217,2.819,2.8163,2.815,2.815,2.815,2.815,2.815,2.815,2.815,2.815,2.815,2.8177,4.0684,4.0723,4.1035,4.1172,4.1172,4.1172,4.0918,4.0586,4.084,4.0317,3.974,4.0569,4.1229,4.1152,4.1172,4.1172,4.1172,4.1172,4.1172,4.1172,4.1172,4.1172,4.1172,4.1172,4.1172,4.1172,4.1172,4.1172,4.1172,4.1172,4.1172,4.1172,4.1172,4.1172,4.1172,4.1172,4.1172,4.1172,4.1172,4.1172,4.1172,4.1172,4.1172,4.1172,4.1172,4.1172,4.1172,4.1172,4.1172,4.1172,4.1172,4.1172,4.1172,4.1172,4.1269,4.1152,4.1269,4.1172,4.1269,4.1211,4.1211,4.123,4.1484,4.2171,4.33,4.3356,4.3223,4.3223,4.3445,4.3621,4.3293,4.2279,4.2039,4.202,4.2106,4.2256,4.2101,4.0515,3.9485,3.9485,3.8886,3.7691,3.5265,3.2588,3.1008,3.0032,2.9406,2.9004,2.8977,2.8871,2.8804,2.8858,2.8804,2.8764,2.8631,2.843,2.8364,2.831,2.831,2.835,2.8417,2.843,2.847,2.839,2.827,2.819,2.8203,2.8177,2.815,2.815,2.815,2.815,2.815,2.8163,2.8177,4.1133,4.1133,4.1152,4.1172,4.1172,4.1172,4.0937,4.0586,4.0605,4.0449,4.0215,4.0833,4.1131,4.1268,4.1172,4.1172,4.1172,4.1172,4.1172,4.1172,4.1172,4.1172,4.1172,4.1172,4.1172,4.1172,4.1172,4.1172,4.1172,4.1172,4.1172,4.1172,4.1172,4.1172,4.1172,4.1172,4.1172,4.1172,4.1172,4.1172,4.1172,4.1172,4.1172,4.1172,4.1172,4.1172,4.1172,4.1172,4.1172,4.1172,4.1172,4.1172,4.1172,4.1172,4.1269,4.1211,4.1269,4.1172,4.1269,4.1191,4.1211,4.1387,4.1797,4.2604,4.358,4.3771,4.3594,4.3574,4.3739,4.3613,4.3264,4.2595,4.2288,4.2461,4.2488,4.2295,4.232,4.2261,4.138,4.138,4.0609,3.9377,3.7743,3.5064,3.3052,3.2102,2.9727,2.9152,2.9004,2.8937,2.8937,2.8871,2.9005,2.8804,2.8791,2.8672,2.8552,2.8525,2.8525,2.8605,2.8871,2.8845,2.8711,2.8657,2.8551,2.8404,2.8283,2.8377,2.8377,2.8217,2.815,2.8177,2.827,2.835,2.8323,4.1172,4.1172,4.1172,4.1172,4.1172,4.1172,4.1074,4.0937,4.0918,4.0859,4.0857,4.1072,4.121,4.1152,4.1172,4.1172,4.1172,4.1172,4.1172,4.1172,4.1172,4.1172,4.1172,4.1172,4.1172,4.1172,4.1172,4.1172,4.1172,4.1172,4.1172,4.1172,4.1172,4.1172,4.1172,4.1172,4.1172,4.1172,4.1172,4.1172,4.1172,4.1172,4.1172,4.1172,4.1172,4.1172,4.1172,4.1172,4.1172,4.1172,4.1172,4.1172,4.1172,4.1172,4.1269,4.125,4.1269,4.1328,4.123,4.1289,4.1172,4.1328,4.1894,4.268,4.3599,4.3667,4.3633,4.3691,4.3691,4.3691,4.3507,4.3109,4.3001,4.2884,4.2709,4.2514,4.2436,4.2578,4.2598,4.2172,4.1533,4.0628,3.914,3.7325,3.5717,3.4018,3.1455,2.9474,2.9542,2.9232,2.9083,2.9083,2.9219,2.9165,2.8977,2.8924,2.8871,2.8897,2.8911,2.8964,2.9179,2.9032,2.8925,2.8885,2.8871,2.8778,2.8711,2.8711,2.8604,2.839,2.8283,2.823,2.835,2.8537,2.8551,4.1172,4.1172,4.1172,4.1172,4.1172,4.1172,4.1172,4.1172,4.1152,4.1172,4.1172,4.1172,4.1172,4.1172,4.1172,4.1172,4.1172,4.1172,4.1172,4.1172,4.1172,4.1172,4.1172,4.1172,4.1172,4.1172,4.1172,4.1172,4.1172,4.1172,4.1172,4.1172,4.1172,4.1172,4.1172,4.1172,4.1172,4.1172,4.1172,4.1172,4.1172,4.1172,4.1172,4.1172,4.1172,4.1172,4.1172,4.1172,4.1172,4.1172,4.1172,4.1172,4.1172,4.1191,4.125,4.1328,4.1367,4.1406,4.168,4.1387,4.123,4.1306,4.1989,4.2798,4.3455,4.3706,4.3672,4.3691,4.3691,4.3691,4.3672,4.3398,4.3183,4.3027,4.2949,4.2631,4.2709,4.2871,4.293,4.2806,4.1857,4.0674,4.0529,3.8918,3.7318,3.5221,3.1961,3.0727,3.1043,3.053,2.9472,2.9459,2.9432,2.9379,2.9325,2.9379,2.9446,2.9296,2.9296,2.9419,2.9406,2.9272,2.9205,2.9367,2.9353,2.9326,2.9058,2.8925,2.8738,2.8537,2.8511,2.8564,2.8829,2.9004,2.9071,4.1172,4.1172,4.1172,4.1172,4.1172,4.1172,4.1172,4.1172,4.1172,4.1172,4.1172,4.1172,4.1172,4.1172,4.1172,4.1172,4.1172,4.1172,4.1172,4.1172,4.1172,4.1172,4.1172,4.1172,4.1172,4.1172,4.1172,4.1172,4.1172,4.1269,4.125,4.1289,4.1348,4.1269,4.1191,4.1191,4.1191,4.1172,4.1191,4.1289,4.1269,4.1308,4.1367,4.1387,4.1387,4.1426,4.1426,4.1426,4.1426,4.1211,4.1191,4.1211,4.1387,4.1367,4.1504,4.1777,4.1797,4.217,4.2703,4.1775,4.138,4.1375,4.1998,4.291,4.3529,4.366,4.3691,4.3691,4.3691,4.3691,4.3555,4.3379,4.3223,4.3144,4.3086,4.3066,4.3144,4.3203,4.3262,4.3281,4.136,3.9964,4.0554,4.0305,3.8985,3.6444,3.2818,3.1814,3.2324,3.1811,3.0533,2.9659,2.9633,2.9646,2.9633,2.9766,2.9833,2.986,2.9806,2.97,2.97,2.9673,2.9783,2.9716,2.9662,2.9446,2.9272,2.9085,2.9045,2.9032,2.8978,2.9005,2.942,2.9501,2.9421,4.1172,4.1172,4.1172,4.1172,4.1172,4.1172,4.1172,4.1172,4.1172,4.1172,4.1172,4.1172,4.1172,4.1172,4.1172,4.1172,4.1172,4.1172,4.1172,4.1172,4.1172,4.1172,4.1172,4.1172,4.1172,4.1172,4.1172,4.1211,4.1172,4.1426,4.1582,4.1621,4.1738,4.166,4.1426,4.1348,4.1504,4.1348,4.1621,4.1914,4.168,4.1816,4.1953,4.1953,4.1933,4.1933,4.1914,4.1894,4.1697,4.1461,4.1283,4.1481,4.1894,4.1933,4.2012,4.2187,4.2028,4.2422,4.2715,4.2256,4.1702,4.1817,4.2411,4.3307,4.3751,4.368,4.3652,4.3691,4.3691,4.3691,4.3633,4.3594,4.3516,4.3535,4.3496,4.3496,4.3535,4.3555,4.3594,4.3574,4.2455,4.2178,4.2534,4.1674,4.0287,4.0395,3.767,3.434,3.4082,3.3174,3.1911,3.0355,2.9833,2.9873,2.9913,2.9913,2.9913,2.9887,2.9887,2.986,2.9887,2.9913,2.986,2.9904,2.974,2.9726,2.9579,2.9472,2.9593,2.9606,2.9446,2.9339,2.9352,2.9662,2.9673,4.1172,4.1172,4.1172,4.1172,4.1172,4.1172,4.1172,4.1172,4.1172,4.1172,4.1172,4.1172,4.1172,4.1172,4.1172,4.1172,4.1172,4.1172,4.1172,4.1172,4.1172,4.1172,4.1172,4.1172,4.1172,4.1211,4.1348,4.1406,4.1445,4.1836,4.1992,4.209,4.2285,4.207,4.1836,4.1875,4.1914,4.1855,4.2129,4.2246,4.2148,4.2226,4.2363,4.2363,4.2363,4.2383,4.2402,4.2402,4.2222,4.1824,4.1805,4.2004,4.2441,4.268,4.27,4.2578,4.2651,4.2988,4.302,4.3059,4.2682,4.2384,4.3183,4.3687,4.3726,4.3758,4.3672,4.3691,4.3691,4.3711,4.373,4.373,4.375,4.375,4.3769,4.3769,4.375,4.3789,4.3701,4.3682,4.3965,4.4004,4.4082,4.2854,4.1505,4.2292,4.2705,3.9236,3.5494,3.4043,3.2793,3.1056,2.998,2.9967,2.9953,2.9913,2.9913,2.9913,2.9953,2.9993,2.9913,2.9913,2.9913,2.9913,2.9887,2.9873,2.9887,2.9887,2.9887,2.9847,2.9726,2.9659,2.9455,2.9753,2.994,4.1172,4.1172,4.1172,4.1172,4.1172,4.1172,4.1172,4.1172,4.1172,4.1172,4.1172,4.1172,4.1172,4.1172,4.1172,4.1172,4.1172,4.1172,4.1172,4.1172,4.1172,4.1172,4.1191,4.123,4.1308,4.1406,4.1562,4.1816,4.1875,4.2246,4.2441,4.2519,4.2656,4.2578,4.2539,4.2519,4.2441,4.2344,4.2519,4.2598,4.2539,4.2558,4.2695,4.2715,4.2695,4.2695,4.2676,4.2656,4.2656,4.2617,4.2578,4.2739,4.2958,4.3359,4.3376,4.3288,4.3457,4.3535,4.3594,4.3574,4.3574,4.3254,4.3652,4.373,4.3672,4.3672,4.3691,4.3691,4.3691,4.375,4.3769,4.3828,4.3867,4.3887,4.3926,4.3926,4.3906,4.3965,4.3915,4.4013,4.4375,4.4492,4.4687,4.3802,4.2952,4.3424,4.3595,4.1451,3.7849,3.4595,3.2983,3.0876,3.0127,3.0047,3.0034,3.0127,3.0167,3.0247,3.0154,3.0154,3.0047,3.0034,3.0154,3.0181,3.0047,3.0034,3.0167,3.014,3.006,3.002,3.0074,2.99,2.9847,2.9913,3.0047,4.1172,4.1172,4.1172,4.1172,4.1172,4.1172,4.1172,4.1172,4.1172,4.1172,4.1172,4.1172,4.1172,4.1172,4.1172,4.1172,4.1172,4.1172,4.1172,4.1172,4.1172,4.1172,4.1269,4.1445,4.1562,4.1758,4.1992,4.2246,4.2344,4.2676,4.3086,4.3301,4.3203,4.3242,4.3262,4.332,4.2949,4.2773,4.2988,4.3027,4.3027,4.3105,4.3183,4.3223,4.3203,4.3203,4.3223,4.3223,4.3262,4.3301,4.332,4.334,4.3543,4.3582,4.366,4.3496,4.3633,4.3691,4.3691,4.3711,4.373,4.3867,4.4229,4.417,4.4033,4.3769,4.3789,4.3662,4.3887,4.3965,4.4121,4.4199,4.4277,4.4355,4.4394,4.4433,4.4414,4.4433,4.4382,4.4518,4.4863,4.5019,4.5215,4.5176,4.4508,4.4718,4.4128,4.2241,4.0104,3.6996,3.4438,3.2318,3.0913,3.104,3.063,3.0724,3.0555,3.0568,3.0461,3.0408,3.0448,3.0461,3.0501,3.0474,3.0381,3.0421,3.0371,3.0292,3.0354,3.0488,3.0541,3.0274,3.01,3.0181,3.0234,4.1074,4.0918,4.0918,4.0918,4.0937,4.1094,4.1172,4.1172,4.1172,4.1172,4.1172,4.1172,4.1172,4.1172,4.1172,4.1172,4.1172,4.1172,4.1172,4.1172,4.1191,4.1328,4.1484,4.168,4.1875,4.2129,4.2422,4.2695,4.2793,4.3086,4.3496,4.3613,4.3691,4.3691,4.3652,4.3574,4.3418,4.3301,4.334,4.3476,4.3535,4.3555,4.3652,4.3691,4.3691,4.3691,4.3691,4.3691,4.3691,4.3691,4.3691,4.3691,4.3691,4.3691,4.3691,4.3672,4.3691,4.3643,4.374,4.3779,4.3651,4.3993,4.4473,4.4453,4.4188,4.3923,4.3884,4.3884,4.4071,4.4129,4.4492,4.4648,4.4785,4.4752,4.498,4.5209,4.5019,4.5,4.5098,4.5063,4.5199,4.5527,4.5586,4.5738,4.5586,4.5318,4.4432,4.2941,4.1599,3.972,3.745,3.5234,3.351,3.2464,3.207,3.1416,3.0808,3.0768,3.0688,3.0675,3.0795,3.0782,3.0715,3.0728,3.0742,3.0782,3.061,3.0755,3.0702,3.0822,3.0862,3.0635,3.0474,3.0488,3.0528,4.0918,4.0547,4.0527,4.0586,4.0644,4.1016,4.1172,4.1172,4.1172,4.1172,4.1172,4.1172,4.1172,4.1172,4.1172,4.1172,4.1172,4.1172,4.125,4.123,4.1308,4.1484,4.1777,4.1933,4.2266,4.2558,4.2851,4.3125,4.3223,4.3437,4.3613,4.3691,4.3691,4.3691,4.3691,4.3691,4.3594,4.3574,4.3574,4.3652,4.3672,4.3691,4.3691,4.3691,4.3691,4.3691,4.3691,4.3691,4.3691,4.3691,4.3691,4.3691,4.3691,4.3691,4.3691,4.3808,4.3848,4.3857,4.3865,4.3962,4.4155,4.4349,4.4601,4.481,4.4752,4.4369,4.4291,4.4518,4.4895,4.4805,4.4961,4.5078,4.5195,4.5351,4.5469,4.5508,4.5508,4.5508,4.5566,4.5683,4.582,4.5957,4.5976,4.5957,4.5918,4.5764,4.5064,4.3755,4.3059,4.213,4.0013,3.7907,3.55,3.3765,3.3611,3.2732,3.1367,3.0942,3.0929,3.0969,3.1102,3.1022,3.0889,3.0996,3.1116,3.1009,3.0982,3.1009,3.1049,3.1036,3.1036,3.0942,3.0875,3.0875,3.0835,4.0918,4.0527,4.0527,4.0703,4.0996,4.1133,4.1172,4.1172,4.1172,4.1172,4.1172,4.1172,4.1172,4.1172,4.1172,4.1172,4.1172,4.1269,4.1387,4.1543,4.1621,4.1875,4.2266,4.25,4.2754,4.3008,4.3281,4.3496,4.3535,4.3633,4.3691,4.3691,4.3691,4.3691,4.3691,4.3691,4.3691,4.3691,4.3769,4.3789,4.3789,4.373,4.3691,4.3711,4.373,4.3769,4.3789,4.3769,4.373,4.3691,4.3691,4.3691,4.3691,4.3711,4.3682,4.371,4.4219,4.4246,4.4083,4.4427,4.4771,4.5366,4.5772,4.5699,4.564,4.5195,4.5078,4.5517,4.5595,4.5523,4.543,4.5508,4.5586,4.5762,4.5918,4.5937,4.5957,4.5976,4.5996,4.6094,4.623,4.6269,4.6289,4.6308,4.6308,4.6289,4.6094,4.553,4.5335,4.4542,4.2315,4.0053,3.6709,3.5114,3.4899,3.3558,3.1824,3.1316,3.1343,3.1383,3.141,3.1343,3.1263,3.141,3.149,3.1343,3.1316,3.145,3.1463,3.1356,3.1316,3.1263,3.1316,3.1343,3.1249,4.0469,4.0254,4.0254,4.0488,4.0879,4.1094,4.1172,4.1172,4.1172,4.1172,4.1172,4.1172,4.1172,4.1172,4.1172,4.1191,4.123,4.1387,4.1562,4.1758,4.207,4.2344,4.2695,4.2988,4.3164,4.3379,4.3535,4.3672,4.3691,4.3691,4.3691,4.3691,4.3691,4.3711,4.3711,4.3711,4.373,4.3711,4.3906,4.4004,4.3984,4.3887,4.3887,4.3887,4.4023,4.4062,4.4258,4.4297,4.4297,4.4297,4.4336,4.4336,4.4168,4.3923,4.3981,4.4343,4.4726,4.5111,4.4946,4.5083,4.541,4.6028,4.6205,4.615,4.617,4.5742,4.5742,4.5993,4.5993,4.5898,4.5898,4.5957,4.5976,4.6094,4.6133,4.6152,4.6152,4.6172,4.6172,4.6211,4.6289,4.6289,4.6308,4.6308,4.6308,4.6308,4.6289,4.6289,4.6308,4.6114,4.4277,4.2085,3.8794,3.6252,3.5249,3.3772,3.1935,3.1637,3.2246,3.1623,3.1543,3.161,3.1664,3.165,3.1637,3.1623,3.1637,3.1677,3.1677,3.1557,3.157,3.161,3.1677,3.1677,3.157,3.9961,3.9961,3.9922,4.0176,4.0625,4.1016,4.1172,4.1172,4.1172,4.1172,4.1172,4.1172,4.1172,4.1172,4.1172,4.1211,4.1328,4.1562,4.1758,4.2109,4.2383,4.2754,4.3008,4.3223,4.3418,4.3555,4.3672,4.3691,4.3691,4.3691,4.3691,4.3691,4.3711,4.373,4.3769,4.3808,4.3887,4.4082,4.4277,4.4473,4.4336,4.4141,4.4238,4.4375,4.4512,4.4687,4.4902,4.5019,4.5,4.4961,4.4883,4.5072,4.4863,4.4577,4.4504,4.483,4.5556,4.6003,4.5895,4.553,4.5744,4.6133,4.6269,4.6289,4.6289,4.6269,4.625,4.625,4.625,4.625,4.625,4.6269,4.6289,4.6289,4.6308,4.6308,4.6308,4.6308,4.6308,4.6308,4.6308,4.6308,4.6308,4.6308,4.6308,4.6308,4.6308,4.6308,4.6308,4.5939,4.5021,4.3371,4.0988,3.8628,3.6775,3.5167,3.3699,3.4132,3.4695,3.2988,3.1853,3.1677,3.1677,3.1677,3.1677,3.1867,3.1677,3.1677,3.1677,3.1717,3.1677,3.1677,3.1677,3.1677,3.1717,4.0098,4.0371,4.0039,4.0332,4.0996,4.1133,4.1172,4.1172,4.1172,4.1172,4.1172,4.1172,4.1172,4.1172,4.1172,4.1289,4.1601,4.1816,4.2344,4.2812,4.2871,4.3203,4.3437,4.3457,4.3594,4.3672,4.3691,4.3691,4.3691,4.3691,4.3711,4.375,4.373,4.3906,4.4258,4.4297,4.4375,4.4551,4.4726,4.4941,4.515,4.5033,4.4844,4.4902,4.4922,4.4961,4.5019,4.5019,4.5019,4.5019,4.5098,4.5385,4.5405,4.5215,4.5102,4.5258,4.6009,4.6186,4.617,4.6055,4.623,4.623,4.6308,4.6308,4.6289,4.6289,4.6289,4.6289,4.6289,4.6289,4.6289,4.6289,4.6308,4.6308,4.6308,4.6308,4.6308,4.6308,4.6308,4.6308,4.6308,4.6308,4.6308,4.6308,4.6308,4.6308,4.6308,4.6308,4.6308,4.5939,4.5763,4.4296,4.2836,4.1799,4.0292,3.8229,3.7007,3.7285,3.656,3.406,3.2353,3.1853,3.1677,3.1677,3.1867,3.2056,3.1867,3.1757,3.1784,3.181,3.1717,3.1677,3.1704,3.1784,3.1904]}]]